[[{"header":{"parameterUnit":"m.s-1","parameterCategory":1,"la1":31.0,"la2":29.5877,"lo1":-88.7671,"lo2":-86.6584,"dy":0.0162,"dx":0.0185,"nx":115,"ny":88,"refTime":"2025-12-11T12:00:00:Z","depth":0,"parameterNumber":2,"parameterNumberName":"U-component_of_WINDS"},"data":[0.0,0.0,0.0,0.0,0.0,0.0,0.0,0.0,0.0,0.0,0.0,0.0,0.0,0.0,0.0,0.0,0.0,0.0,0.0,0.0,0.0,0.0,0.0,0.0,0.0,0.0,0.0,0.0,0.0,0.0,0.0,0.0,0.0,0.0,0.0,0.0,0.0,0.0,0.0,0.0,0.0,0.0,0.0,0.0,0.0,0.0,0.0,0.0,0.0,0.0,0.0,0.0,0.0,0.0,0.0,0.0,0.0,0.0,0.0,0.0,0.0,0.0,0.0,0.0,0.0,0.0,0.0,0.0,0.0,0.0,0.0,0.0,0.0,0.0,0.0,0.0,0.0,0.0,0.0,0.0,0.0,0.0,0.0,0.0,0.0,0.0,0.0,0.0,0.0,0.0,0.0,0.0,0.0,0.0,0.0,0.0,0.0,0.0,0.0,0.0,0.0,0.0,0.0,0.0,0.0,0.0,0.0,0.0,0.0,0.0,0.0,0.0,0.0,0.0,0.0,0.0,0.0,0.0,0.0,0.0,0.0,0.0,0.0,0.0,0.0,0.0,0.0,0.0,0.0,0.0,0.0,0.0,0.0,0.0,0.0,0.0,0.0,0.0,0.0,0.0,0.0,0.0,0.0,0.0,0.0,0.0,0.0,0.0,0.0,0.0,0.0,0.0,0.0,0.0,0.0,0.0,0.0,0.0,0.0,0.0,0.0,0.0,0.0,0.0,0.0,0.0,0.0,0.0,0.0,0.0,0.0,0.0,0.0,0.0,0.0,0.0,0.0,0.0,0.0,0.0,0.0,0.0,0.0,0.0,0.0,0.0,0.0,0.0,0.0,0.0,0.0,0.0,0.0,0.0,0.0,0.0,0.0,0.0,0.0,0.0,0.0,0.0,0.0,0.0,0.0,0.0,0.0,0.0,0.0,0.0,0.0,0.0,0.0,0.0,0.0,0.0,0.0,0.0,0.0,0.0,0.0,0.0,0.0,0.0,0.0,0.0,0.0,0.0,0.0,0.0,0.0,0.0,0.0,0.0,0.0,0.0,0.0,0.0,0.0,0.0,0.0,0.0,0.0,0.0,0.0,0.0,0.0,0.0,0.0,0.0,0.0,0.0,0.0,0.0,0.0,0.0,0.0,0.0,0.0,0.0,0.0,0.0,0.0,0.0,0.0,0.0,0.0,0.0,0.0,0.0,0.0,0.0,0.0,0.0,0.0,0.0,0.0,0.0,0.0,0.0,0.0,0.0,0.0,0.0,0.0,0.0,0.0,0.0,0.0,0.0,0.0,0.0,0.0,0.0,0.0,0.0,0.0,0.0,0.0,0.0,0.0,0.0,0.0,0.0,0.0,0.0,0.0,0.0,0.0,0.0,0.0,0.0,0.0,0.0,0.0,0.0,0.0,0.0,0.0,0.0,0.0,0.0,0.0,0.0,0.0,0.0,0.0,0.0,0.0,0.0,0.0,0.0,0.0,0.0,0.0,0.0,0.0,0.0,0.0,0.0,0.0,0.0,0.0,0.0,0.0,0.0,0.0,0.0,0.0,0.0,0.0,0.0,0.0,0.0,0.0,0.0,0.0,0.0,0.0,0.0,0.0,0.0,0.0,0.0,0.0,0.0,0.0,0.0,0.0,0.0,0.0,0.0,0.0,0.0,0.0,0.0,0.0,0.0,0.0,0.0,0.0,0.0,0.0,0.0,0.0,0.0,0.0,0.0,0.0,0.0,0.0,0.0,0.0,0.0,0.0,0.0,0.0,0.0,0.0,0.0,0.0,0.0,0.0,0.0,0.0,0.0,0.0,0.0,0.0,0.0,0.0,0.0,0.0,0.0,0.0,0.0,0.0,0.0,0.0,0.0,0.0,0.0,0.0,0.0,0.0,0.0,0.0,0.0,0.0,0.0,0.0,0.0,0.0,0.0,0.0,0.0,0.0,0.0,0.0,0.0,0.0,0.0,0.0,0.0,0.0,0.0,0.0,0.0,0.0,0.0,0.0,0.0,0.0,0.0,0.0,0.0,0.0,0.0,0.0,0.0,0.0,0.0,0.0,0.0,0.0,0.0,0.0,0.0,0.0,0.0,0.0,0.0,0.0,0.0,0.0,0.0,0.0,0.0,0.0,0.0,0.0,0.0,0.0,0.0,0.0,0.0,0.0,0.0,0.0,0.0,0.0,0.0,0.0,0.0,0.0,0.0,0.0,0.0,0.0,0.0,0.0,0.0,0.0,0.0,0.0,0.0,0.0,0.0,0.0,0.0,0.0,0.0,0.0,0.0,0.0,0.0,0.0,0.0,0.0,0.0,0.0,0.0,0.0,0.0,0.0,0.0,0.0,0.0,0.0,0.0,0.0,0.0,0.0,0.0,0.0,0.0,0.0,0.0,0.0,0.0,0.0,0.0,0.0,0.0,0.0,0.0,0.0,0.0,0.0,0.0,0.0,0.0,0.0,0.0,0.0,0.0,0.0,0.0,0.0,0.0,0.0,0.0,0.0,0.0,0.0,0.0,0.0,0.0,0.0,0.0,0.0,0.0,0.0,0.0,0.0,0.0,0.0,0.0,0.0,0.0,0.0,0.0,0.0,0.0,0.0,0.0,0.0,0.0,0.0,0.0,0.0,0.0,0.0,0.0,0.0,0.0,0.0,0.0,0.0,0.0,0.0,0.0,0.0,0.0,0.0,0.0,0.0,0.0,0.0,0.0,0.0,0.0,0.0,0.0,0.0,0.0,0.0,0.0,0.0,0.0,0.0,0.0,0.0,0.0,0.0,0.0,0.0,0.0,0.0,0.0,0.0,0.0,0.0,0.0,0.0,0.0,0.0,0.0,0.0,0.0,0.0,0.0,0.0,0.0,0.0,0.0,0.0,0.0,0.0,0.0,0.0,0.0,0.0,0.0,0.0,0.0,0.0,0.0,0.0,0.0,0.0,0.0,0.0,0.0,0.0,0.0,0.0,0.0,0.0,0.0,0.0,0.0,0.0,0.0,0.0,0.0,0.0,0.0,0.0,0.0,0.0,0.0,0.0,0.0,0.0,0.0,0.0,0.0,0.0,0.0,0.0,0.0,0.0,0.0,0.0,0.0,0.0,0.0,0.0,0.0,0.0,0.0,0.0,0.0,0.0,0.0,0.0,0.0,0.0,0.0,0.0,0.0,0.0,0.0,0.0,0.0,0.0,0.0,0.0,0.0,0.0,0.0,0.0,0.0,0.0,0.0,0.0,0.0,0.0,0.0,0.0,0.0,0.0,0.0,0.0,0.0,0.0,0.0,0.0,0.0,0.0,0.0,0.0,0.0,0.0,0.0,0.0,0.0,0.0,0.0,0.0,0.0,0.0,0.0,0.0,0.0,0.0,0.0,0.0,0.0,0.0,0.0,0.0,0.0,0.0,0.0,0.0,0.0,0.0,0.0,0.0,0.0,0.0,0.0,0.0,0.0,0.0,0.0,0.0,0.0,0.0,0.0,0.0,0.0,0.0,0.0,0.0,0.0,0.0,0.0,0.0,0.0,0.0,0.0,0.0,0.0,0.0,0.0,0.0,0.0,0.0,0.0,0.0,0.0,0.0,0.0,0.0,0.0,0.0,0.0,0.0,0.0,0.0,0.0,0.0,0.0,0.0,0.0,0.0,0.0,0.0,0.0,0.0,0.0,0.0,0.0,0.0,0.0,0.0,0.0,0.0,0.0,0.0,0.0,0.0,0.0,0.0,0.0,0.0,0.0,0.0,0.0,0.0,0.0,0.0,0.0,0.0,0.0,0.0,0.0,0.0,0.0,0.0,0.0,0.0,0.0,0.0,0.0,0.0,0.0,0.0,0.0,0.0,0.0,0.0,0.0,0.0,0.0,0.0,0.0,0.0,0.0,0.0,0.0,0.0,0.0,0.0,0.0,0.0,0.0,0.0,0.0,0.0,0.0,0.0,0.0,0.0,0.0,0.0,0.0,0.0,0.0,0.0,0.0,0.0,0.0,0.0,0.0,0.0,0.0,0.0,0.0,0.0,0.0,0.0,0.0,0.0,0.0,0.0,0.0,0.0,0.0,0.0,0.0,0.0,0.0,0.0,0.0,0.0,0.0,0.0,0.0,0.0,0.0,0.0,0.0,0.0,0.0,0.0,0.0,0.0,0.0,0.0,0.0,0.0,0.0,0.0,0.0,0.0,0.0,0.0,0.0,0.0,0.0,0.0,0.0,0.0,0.0,0.0,0.0,0.0,0.0,0.0,0.0,0.0,0.0,0.0,0.0,0.0,0.0,0.0,0.0,0.0,0.0,0.0,0.0,-1.5409,0.0,0.0,0.0,0.0,0.0,0.0,0.0,0.0,0.0,0.0,0.0,0.0,0.0,0.0,0.0,0.0,0.0,0.0,0.0,0.0,0.0,0.0,0.0,0.0,0.0,0.0,0.0,0.0,0.0,0.0,0.0,0.0,0.0,0.0,0.0,0.0,0.0,0.0,0.0,0.0,0.0,0.0,0.0,0.0,0.0,0.0,0.0,0.0,0.0,0.0,0.0,0.0,0.0,0.0,0.0,0.0,0.0,0.0,0.0,0.0,0.0,0.0,0.0,0.0,0.0,0.0,0.0,0.0,0.0,0.0,0.0,0.0,0.0,0.0,0.0,0.0,0.0,0.0,0.0,0.0,0.0,0.0,0.0,0.0,0.0,0.0,0.0,0.0,0.0,0.0,0.0,0.0,0.0,0.0,0.0,0.0,0.0,0.0,0.0,0.0,0.0,0.0,0.0,0.0,0.0,0.0,0.0,0.0,0.0,0.0,-1.7244,-1.7002,-1.7287,-1.6628,-1.505,0.0,0.0,0.0,0.0,0.0,0.0,0.0,0.0,0.0,0.0,0.0,0.0,0.0,0.0,0.0,0.0,0.0,0.0,0.0,0.0,0.0,0.0,0.0,0.0,0.0,0.0,0.0,0.0,0.0,0.0,0.0,0.0,0.0,0.0,0.0,0.0,0.0,0.0,0.0,0.0,0.0,0.0,0.0,0.0,0.0,0.0,0.0,0.0,0.0,0.0,0.0,0.0,0.0,0.0,0.0,0.0,0.0,0.0,0.0,0.0,0.0,0.0,0.0,0.0,0.0,0.0,0.0,0.0,0.0,0.0,0.0,0.0,0.0,0.0,0.0,0.0,0.0,0.0,0.0,0.0,0.0,0.0,0.0,0.0,0.0,0.0,0.0,0.0,0.0,0.0,0.0,0.0,0.0,0.0,0.0,0.0,0.0,0.0,0.0,0.0,0.0,0.0,0.0,0.0,0.0,0.0,0.0,0.0,0.0,0.0,0.0,0.0,-1.7877,-1.694,-1.4311,0.0,0.0,0.0,0.0,0.0,0.0,0.0,0.0,0.0,0.0,0.0,0.0,0.0,0.0,0.0,0.0,0.0,0.0,0.0,0.0,0.0,0.0,0.0,0.0,0.0,0.0,0.0,0.0,0.0,0.0,0.0,0.0,0.0,0.0,0.0,0.0,0.0,0.0,0.0,0.0,0.0,0.0,0.0,0.0,0.0,0.0,0.0,0.0,0.0,0.0,0.0,0.0,0.0,0.0,0.0,0.0,0.0,0.0,0.0,0.0,0.0,0.0,0.0,0.0,0.0,0.0,0.0,0.0,0.0,0.0,0.0,0.0,0.0,0.0,0.0,0.0,0.0,0.0,0.0,0.0,0.0,0.0,0.0,0.0,0.0,0.0,0.0,0.0,0.0,0.0,0.0,0.0,0.0,0.0,0.0,0.0,0.0,0.0,0.0,0.0,0.0,0.0,0.0,0.0,0.0,0.0,0.0,0.0,0.0,0.0,-1.7405,-1.7728,-1.8436,0.0,-1.344,0.0,0.0,0.0,0.0,0.0,0.0,0.0,0.0,0.0,0.0,0.0,0.0,0.0,0.0,0.0,0.0,0.0,0.0,0.0,0.0,0.0,0.0,0.0,0.0,0.0,0.0,0.0,0.0,0.0,0.0,0.0,0.0,0.0,0.0,0.0,0.0,0.0,0.0,0.0,0.0,0.0,0.0,0.0,0.0,0.0,0.0,0.0,0.0,0.0,0.0,0.0,0.0,0.0,0.0,0.0,0.0,0.0,0.0,0.0,0.0,0.0,0.0,0.0,0.0,0.0,0.0,0.0,0.0,0.0,0.0,0.0,0.0,0.0,0.0,0.0,0.0,0.0,0.0,0.0,0.0,0.0,0.0,0.0,0.0,0.0,0.0,0.0,0.0,0.0,0.0,0.0,0.0,0.0,0.0,0.0,0.0,0.0,0.0,0.0,0.0,0.0,0.0,0.0,0.0,0.0,0.0,0.0,0.0,0.0,0.0,0.0,-1.886,-1.825,-1.6765,0.0,0.0,0.0,0.0,0.0,0.0,0.0,0.0,0.0,0.0,0.0,0.0,0.0,0.0,0.0,0.0,0.0,0.0,0.0,0.0,0.0,0.0,0.0,0.0,0.0,0.0,0.0,0.0,0.0,0.0,0.0,0.0,0.0,0.0,0.0,0.0,0.0,0.0,0.0,0.0,0.0,0.0,0.0,0.0,0.0,0.0,0.0,0.0,0.0,0.0,0.0,0.0,0.0,0.0,0.0,0.0,0.0,0.0,0.0,0.0,0.0,0.0,0.0,0.0,0.0,0.0,0.0,0.0,0.0,0.0,0.0,0.0,0.0,0.0,0.0,0.0,0.0,0.0,0.0,0.0,0.0,0.0,0.0,0.0,0.0,0.0,0.0,0.0,0.0,0.0,0.0,0.0,0.0,0.0,0.0,0.0,0.0,0.0,0.0,0.0,0.0,0.0,0.0,0.0,0.0,0.0,0.0,0.0,0.0,0.0,-1.7658,0.0,-1.9966,-1.8761,-1.7035,-1.4799,0.0,0.0,0.0,0.0,0.0,0.0,0.0,0.0,0.0,0.0,0.0,0.0,0.0,0.0,0.0,0.0,0.0,0.0,0.0,0.0,0.0,0.0,0.0,0.0,0.0,0.0,0.0,0.0,0.0,0.0,0.0,0.0,0.0,0.0,0.0,0.0,0.0,0.0,0.0,0.0,0.0,0.0,0.0,0.0,0.0,0.0,0.0,0.0,0.0,0.0,0.0,0.0,0.0,0.0,0.0,0.0,0.0,0.0,0.0,0.0,0.0,0.0,0.0,0.0,0.0,0.0,0.0,0.0,0.0,0.0,0.0,0.0,0.0,0.0,0.0,0.0,0.0,0.0,0.0,0.0,0.0,0.0,0.0,0.0,0.0,0.0,0.0,0.0,0.0,0.0,0.0,0.0,0.0,0.0,0.0,0.0,0.0,0.0,0.0,0.0,0.0,0.0,0.0,0.0,0.0,0.0,0.0,0.0,0.0,-1.9078,-2.0219,-2.1361,-2.0591,-1.7908,0.0,0.0,0.0,0.0,0.0,0.0,0.0,0.0,0.0,0.0,0.0,0.0,0.0,0.0,0.0,0.0,0.0,0.0,0.0,0.0,0.0,0.0,0.0,0.0,0.0,0.0,0.0,0.0,0.0,0.0,0.0,0.0,0.0,0.0,0.0,0.0,0.0,0.0,0.0,0.0,0.0,0.0,0.0,0.0,0.0,0.0,0.0,0.0,0.0,0.0,0.0,0.0,0.0,0.0,0.0,0.0,0.0,0.0,0.0,0.0,0.0,0.0,0.0,0.0,0.0,0.0,0.0,0.0,0.0,0.0,0.0,0.0,0.0,0.0,0.0,0.0,0.0,0.0,0.0,0.0,0.0,0.0,0.0,0.0,0.0,0.0,0.0,0.0,0.0,0.0,0.0,0.0,0.0,0.0,0.0,0.0,0.0,0.0,0.0,0.0,0.0,0.0,0.0,0.0,0.0,0.0,0.0,0.0,0.0,-1.8847,-2.1256,-2.2606,-2.2721,-2.0975,-1.8474,0.0,0.0,0.0,0.0,0.0,0.0,0.0,0.0,0.0,0.0,0.0,0.0,0.0,0.0,0.0,0.0,0.0,0.0,0.0,0.0,0.0,0.0,0.0,0.0,0.0,0.0,0.0,0.0,0.0,0.0,0.0,0.0,0.0,0.0,0.0,0.0,0.0,0.0,0.0,0.0,0.0,0.0,0.0,0.0,0.0,0.0,0.0,0.0,0.0,0.0,0.0,0.0,0.0,0.0,0.0,0.0,0.0,0.0,0.0,0.0,0.0,0.0,0.0,0.0,0.0,0.0,0.0,0.0,0.0,0.0,0.0,0.0,0.0,0.0,0.0,0.0,0.0,0.0,0.0,0.0,0.0,0.0,0.0,0.0,0.0,0.0,0.0,0.0,0.0,0.0,0.0,0.0,0.0,0.0,0.0,0.0,0.0,0.0,0.0,0.0,0.0,0.0,0.0,0.0,0.0,0.0,0.0,0.0,0.0,-2.0617,0.0,-2.4392,0.0,-2.1623,-1.9197,0.0,0.0,0.0,0.0,0.0,0.0,0.0,0.0,0.0,0.0,0.0,0.0,0.0,0.0,0.0,0.0,0.0,0.0,0.0,0.0,0.0,0.0,0.0,0.0,0.0,0.0,0.0,0.0,0.0,0.0,0.0,0.0,0.0,0.0,0.0,0.0,0.0,0.0,0.0,0.0,0.0,0.0,0.0,0.0,0.0,0.0,0.0,0.0,0.0,0.0,0.0,0.0,0.0,0.0,0.0,0.0,0.0,0.0,0.0,0.0,0.0,0.0,0.0,0.0,0.0,0.0,0.0,0.0,0.0,0.0,0.0,0.0,0.0,0.0,0.0,0.0,0.0,0.0,0.0,0.0,0.0,0.0,0.0,0.0,0.0,0.0,0.0,0.0,0.0,0.0,0.0,0.0,0.0,0.0,0.0,0.0,0.0,0.0,0.0,0.0,0.0,0.0,0.0,0.0,0.0,0.0,0.0,0.0,-2.0052,-2.3581,-2.5394,-2.5447,-2.3509,-2.2686,-2.0069,0.0,0.0,0.0,0.0,0.0,0.0,0.0,0.0,0.0,0.0,0.0,0.0,0.0,0.0,0.0,0.0,0.0,0.0,0.0,0.0,0.0,0.0,0.0,0.0,0.0,0.0,0.0,0.0,0.0,0.0,0.0,0.0,0.0,0.0,0.0,0.0,0.0,0.0,0.0,0.0,0.0,0.0,0.0,0.0,0.0,0.0,0.0,0.0,0.0,0.0,0.0,0.0,0.0,0.0,0.0,0.0,0.0,0.0,0.0,0.0,0.0,0.0,0.0,0.0,0.0,0.0,0.0,0.0,0.0,0.0,0.0,0.0,0.0,0.0,0.0,0.0,0.0,0.0,0.0,0.0,0.0,0.0,0.0,0.0,0.0,0.0,0.0,0.0,0.0,0.0,0.0,0.0,0.0,0.0,0.0,0.0,0.0,0.0,0.0,0.0,0.0,0.0,0.0,0.0,0.0,0.0,0.0,0.0,0.0,-2.5527,-2.6952,-2.7102,-2.588,-2.3866,-2.1235,0.0,0.0,0.0,0.0,0.0,0.0,0.0,0.0,0.0,0.0,0.0,0.0,0.0,0.0,0.0,0.0,0.0,0.0,0.0,0.0,0.0,0.0,0.0,0.0,0.0,0.0,0.0,0.0,0.0,0.0,0.0,0.0,0.0,0.0,0.0,0.0,0.0,0.0,0.0,0.0,0.0,0.0,0.0,0.0,0.0,0.0,0.0,0.0,0.0,0.0,0.0,0.0,0.0,0.0,0.0,0.0,0.0,0.0,0.0,0.0,0.0,0.0,0.0,0.0,0.0,0.0,0.0,0.0,0.0,0.0,0.0,0.0,0.0,0.0,0.0,0.0,0.0,0.0,0.0,0.0,0.0,0.0,0.0,0.0,0.0,0.0,0.0,0.0,0.0,0.0,0.0,0.0,0.0,0.0,0.0,0.0,0.0,0.0,0.0,0.0,0.0,0.0,0.0,0.0,0.0,0.0,0.0,0.0,0.0,-2.6911,-2.8181,-2.8024,-2.6399,-2.4372,-2.1725,-1.8367,0.0,0.0,0.0,0.0,0.0,0.0,0.0,0.0,0.0,0.0,0.0,0.0,0.0,0.0,0.0,0.0,0.0,0.0,0.0,0.0,0.0,0.0,0.0,0.0,0.0,0.0,0.0,0.0,0.0,0.0,0.0,0.0,0.0,0.0,0.0,0.0,0.0,0.0,0.0,0.0,0.0,0.0,0.0,0.0,0.0,0.0,0.0,0.0,0.0,0.0,0.0,0.0,0.0,0.0,0.0,0.0,0.0,0.0,0.0,0.0,0.0,0.0,0.0,0.0,0.0,0.0,0.0,0.0,0.0,0.0,0.0,0.0,0.0,0.0,0.0,0.0,0.0,0.0,0.0,0.0,0.0,0.0,0.0,0.0,0.0,0.0,0.0,0.0,0.0,0.0,0.0,0.0,0.0,0.0,0.0,0.0,0.0,0.0,0.0,0.0,0.0,0.0,0.0,0.0,0.0,0.0,0.0,0.0,-2.7715,-2.8943,-2.8236,-2.5468,-2.4392,-2.1714,0.0,0.0,0.0,0.0,0.0,0.0,0.0,0.0,0.0,0.0,0.0,0.0,0.0,0.0,0.0,0.0,0.0,0.0,0.0,0.0,0.0,0.0,0.0,0.0,0.0,0.0,0.0,0.0,0.0,0.0,0.0,0.0,0.0,0.0,0.0,0.0,0.0,0.0,0.0,0.0,0.0,0.0,0.0,0.0,0.0,0.0,0.0,0.0,0.0,0.0,0.0,0.0,0.0,0.0,0.0,0.0,0.0,0.0,0.0,0.0,0.0,0.0,0.0,0.0,0.0,0.0,0.0,0.0,0.0,0.0,0.0,0.0,0.0,0.0,0.0,0.0,0.0,0.0,0.0,0.0,0.0,0.0,0.0,0.0,0.0,0.0,0.0,0.0,0.0,0.0,0.0,0.0,0.0,0.0,0.0,0.0,0.0,0.0,0.0,0.0,0.0,0.0,0.0,0.0,0.0,0.0,0.0,0.0,0.0,-2.6989,-2.7791,-2.7526,-2.6062,-2.4454,-2.1923,0.0,0.0,0.0,0.0,0.0,0.0,0.0,0.0,0.0,0.0,0.0,0.0,0.0,0.0,0.0,0.0,0.0,0.0,0.0,0.0,0.0,0.0,0.0,0.0,0.0,0.0,0.0,0.0,0.0,0.0,0.0,0.0,0.0,0.0,0.0,0.0,0.0,0.0,0.0,0.0,0.0,0.0,0.0,0.0,0.0,0.0,0.0,0.0,0.0,0.0,0.0,0.0,0.0,0.0,0.0,0.0,0.0,0.0,0.0,0.0,0.0,0.0,0.0,0.0,0.0,0.0,0.0,0.0,0.0,0.0,0.0,0.0,0.0,0.0,0.0,0.0,0.0,0.0,0.0,0.0,0.0,0.0,0.0,0.0,0.0,0.0,0.0,0.0,0.0,0.0,0.0,0.0,0.0,0.0,0.0,0.0,0.0,0.0,0.0,0.0,0.0,0.0,0.0,0.0,0.0,0.0,0.0,0.0,-2.5604,-2.6048,-2.6115,-2.5742,-2.4915,-2.3915,-2.1725,0.0,0.0,0.0,0.0,0.0,0.0,0.0,0.0,0.0,0.0,0.0,0.0,0.0,0.0,0.0,0.0,0.0,0.0,0.0,0.0,0.0,0.0,0.0,0.0,0.0,0.0,0.0,0.0,0.0,0.0,0.0,0.0,0.0,0.0,0.0,0.0,0.0,0.0,0.0,0.0,0.0,0.0,0.0,0.0,0.0,0.0,0.0,0.0,0.0,0.0,0.0,0.0,0.0,0.0,0.0,0.0,0.0,0.0,0.0,0.0,0.0,0.0,0.0,0.0,0.0,0.0,0.0,0.0,0.0,0.0,0.0,0.0,0.0,0.0,0.0,0.0,0.0,0.0,0.0,0.0,0.0,0.0,0.0,0.0,0.0,0.0,0.0,0.0,0.0,0.0,0.0,0.0,0.0,0.0,0.0,0.0,0.0,0.0,0.0,0.0,0.0,0.0,0.0,0.0,0.0,0.0,0.0,0.0,-2.4625,-2.4985,-2.4219,-2.3493,-2.2873,-2.2916,-2.1305,0.0,0.0,0.0,0.0,0.0,0.0,0.0,0.0,0.0,0.0,0.0,0.0,0.0,0.0,0.0,0.0,0.0,0.0,0.0,0.0,0.0,0.0,0.0,0.0,0.0,0.0,0.0,0.0,0.0,0.0,0.0,0.0,0.0,0.0,0.0,0.0,0.0,0.0,0.0,0.0,0.0,0.0,0.0,0.0,0.0,0.0,0.0,0.0,0.0,0.0,0.0,0.0,0.0,0.0,0.0,0.0,0.0,0.0,0.0,0.0,0.0,0.0,0.0,0.0,0.0,0.0,0.0,0.0,0.0,0.0,0.0,0.0,0.0,0.0,0.0,0.0,0.0,0.0,0.0,0.0,0.0,0.0,0.0,0.0,0.0,0.0,0.0,0.0,0.0,0.0,0.0,0.0,0.0,0.0,0.0,0.0,0.0,0.0,0.0,0.0,0.0,0.0,0.0,0.0,0.0,0.0,0.0,0.0,-2.488,-2.3636,-2.2908,-2.2289,-2.183,-2.2046,-2.0816,0.0,0.0,0.0,0.0,0.0,0.0,0.0,0.0,0.0,0.0,0.0,0.0,0.0,0.0,0.0,0.0,0.0,0.0,0.0,0.0,0.0,0.0,0.0,0.0,0.0,0.0,0.0,0.0,0.0,0.0,0.0,0.0,0.0,0.0,0.0,0.0,0.0,0.0,0.0,0.0,0.0,0.0,0.0,0.0,0.0,0.0,0.0,0.0,-0.9646,0.0,0.0,0.0,0.0,0.0,0.0,0.0,0.0,0.0,0.0,0.0,0.0,0.0,0.0,0.0,0.0,0.0,0.0,0.0,0.0,0.0,0.0,0.0,0.0,0.0,0.0,0.0,0.0,0.0,0.0,0.0,0.0,0.0,0.0,0.0,0.0,0.0,0.0,0.0,0.0,0.0,0.0,0.0,0.0,0.0,0.0,0.0,0.0,0.0,0.0,0.0,0.0,0.0,0.0,0.0,0.0,0.0,0.0,0.0,-2.3594,-2.2651,-2.1876,-2.157,-2.1707,-2.1198,-1.9992,0.0,0.0,0.0,0.0,0.0,0.0,0.0,0.0,0.0,0.0,0.0,0.0,0.0,0.0,0.0,0.0,0.0,0.0,0.0,0.0,0.0,0.0,0.0,0.0,0.0,0.0,0.0,0.0,0.0,0.0,0.0,0.0,0.0,0.0,0.0,0.0,0.0,0.0,0.0,0.0,0.0,0.0,0.0,0.0,0.0,0.0,0.0,0.0,0.0,0.0,0.0,0.0,0.0,0.0,0.0,0.0,0.0,0.0,0.0,0.0,0.0,0.0,0.0,0.0,0.0,0.0,0.0,0.0,0.0,0.0,0.0,0.0,0.0,0.0,0.0,0.0,0.0,0.0,0.0,0.0,0.0,0.0,0.0,0.0,0.0,0.0,0.0,0.0,0.0,0.0,0.0,0.0,0.0,0.0,0.0,0.0,0.0,0.0,0.0,0.0,0.0,0.0,0.0,0.0,0.0,0.0,0.0,-2.2487,-2.2018,-2.1639,-2.0939,-2.0965,-2.1834,-2.0499,-1.9201,-1.8043,0.0,0.0,0.0,0.0,0.0,0.0,0.0,0.0,0.0,0.0,0.0,0.0,0.0,0.0,0.0,0.0,0.0,0.0,0.0,0.0,0.0,0.0,0.0,0.0,0.0,0.0,0.0,0.0,0.0,0.0,0.0,0.0,0.0,0.0,0.0,0.0,0.0,0.0,-1.0187,-1.0441,0.0,0.0,0.0,0.0,0.0,0.0,0.0,0.0,-1.0445,0.0,0.0,0.0,0.0,0.0,0.0,0.0,0.0,0.0,0.0,0.0,0.0,0.0,0.0,0.0,0.0,0.0,0.0,0.0,0.0,0.0,0.0,0.0,0.0,0.0,0.0,0.0,0.0,0.0,0.0,0.0,0.0,0.0,0.0,0.0,0.0,0.0,0.0,0.0,0.0,0.0,0.0,0.0,0.0,0.0,0.0,0.0,0.0,0.0,0.0,0.0,0.0,0.0,0.0,0.0,0.0,-2.2746,-2.2662,-2.1777,-2.0112,-1.9608,-2.0027,-2.1298,-2.0105,-1.8944,-1.7985,0.0,0.0,0.0,0.0,0.0,0.0,0.0,0.0,0.0,0.0,0.0,0.0,0.0,0.0,0.0,0.0,0.0,0.0,0.0,0.0,0.0,0.0,0.0,0.0,0.0,0.0,0.0,0.0,0.0,0.0,0.0,0.0,0.0,0.0,0.0,0.0,0.0,0.0,0.0,-1.0742,-1.0828,0.0,0.0,0.0,0.0,0.0,0.0,0.0,0.0,-1.1689,0.0,0.0,0.0,0.0,0.0,0.0,0.0,0.0,0.0,0.0,0.0,0.0,0.0,0.0,0.0,0.0,0.0,0.0,0.0,0.0,0.0,0.0,0.0,0.0,0.0,0.0,0.0,0.0,0.0,0.0,0.0,0.0,0.0,0.0,0.0,0.0,0.0,0.0,0.0,0.0,0.0,0.0,0.0,0.0,0.0,0.0,0.0,0.0,0.0,0.0,0.0,0.0,0.0,0.0,0.0,-2.2578,-2.2205,-2.1315,-2.0007,-1.9393,-1.9615,-2.0653,-1.9235,-1.8318,0.0,0.0,0.0,0.0,0.0,0.0,0.0,0.0,0.0,0.0,0.0,0.0,0.0,0.0,0.0,0.0,0.0,0.0,0.0,0.0,0.0,0.0,0.0,0.0,0.0,0.0,0.0,0.0,0.0,0.0,0.0,0.0,0.0,0.0,0.0,0.0,0.0,0.0,0.0,0.0,-1.1254,-1.1589,-1.1269,0.0,0.0,0.0,0.0,0.0,0.0,-1.2425,-1.2578,0.0,0.0,0.0,0.0,0.0,0.0,0.0,0.0,0.0,0.0,0.0,0.0,0.0,0.0,0.0,0.0,0.0,0.0,0.0,0.0,0.0,0.0,0.0,0.0,0.0,0.0,0.0,0.0,0.0,0.0,0.0,0.0,0.0,0.0,0.0,0.0,0.0,0.0,0.0,0.0,0.0,0.0,0.0,0.0,0.0,0.0,0.0,0.0,0.0,0.0,0.0,0.0,0.0,0.0,0.0,-2.2202,-2.1518,-2.0712,-1.9811,-1.9268,-1.9296,-1.9876,-1.8412,-1.7746,0.0,0.0,0.0,0.0,0.0,0.0,0.0,0.0,0.0,0.0,0.0,0.0,0.0,0.0,0.0,0.0,0.0,0.0,0.0,0.0,0.0,0.0,0.0,0.0,0.0,0.0,0.0,0.0,0.0,0.0,0.0,0.0,0.0,0.0,0.0,0.0,0.0,0.0,0.0,0.0,0.0,-1.244,-1.2088,-1.2458,0.0,0.0,0.0,0.0,-1.3092,-1.3602,0.0,0.0,0.0,0.0,0.0,0.0,0.0,0.0,0.0,0.0,0.0,0.0,0.0,0.0,0.0,0.0,0.0,0.0,0.0,0.0,0.0,0.0,0.0,0.0,0.0,0.0,0.0,0.0,0.0,0.0,0.0,0.0,0.0,0.0,0.0,0.0,0.0,0.0,0.0,0.0,0.0,0.0,0.0,0.0,0.0,0.0,0.0,0.0,0.0,0.0,0.0,0.0,0.0,0.0,0.0,0.0,-2.1141,-2.0797,-1.9878,-1.8522,-1.8601,-1.8759,-1.8943,-1.8073,-1.7444,0.0,0.0,0.0,0.0,0.0,0.0,0.0,0.0,0.0,0.0,0.0,0.0,0.0,0.0,0.0,0.0,0.0,0.0,0.0,0.0,0.0,0.0,0.0,0.0,0.0,0.0,0.0,0.0,0.0,0.0,0.0,0.0,0.0,0.0,0.0,0.0,0.0,0.0,0.0,0.0,0.0,-1.308,-1.2902,-1.324,-1.3252,0.0,0.0,-1.4327,-1.4741,-1.5097,0.0,0.0,0.0,0.0,0.0,0.0,0.0,0.0,0.0,0.0,0.0,0.0,0.0,0.0,0.0,0.0,0.0,0.0,0.0,0.0,0.0,0.0,0.0,0.0,0.0,0.0,0.0,0.0,0.0,0.0,0.0,0.0,0.0,0.0,0.0,0.0,0.0,0.0,0.0,0.0,0.0,0.0,0.0,0.0,0.0,0.0,0.0,0.0,0.0,0.0,0.0,0.0,0.0,0.0,0.0,-2.0398,-2.0962,-2.0668,-1.9813,-1.8485,-1.8782,-1.8647,-1.8026,-1.7046,-1.6381,0.0,0.0,0.0,0.0,0.0,0.0,0.0,0.0,0.0,0.0,0.0,0.0,0.0,0.0,0.0,0.0,0.0,0.0,0.0,0.0,0.0,0.0,0.0,0.0,0.0,0.0,0.0,0.0,0.0,0.0,0.0,0.0,0.0,0.0,0.0,0.0,0.0,0.0,0.0,0.0,0.0,0.0,-1.4189,-1.4859,0.0,0.0,0.0,-1.5654,-1.5674,0.0,0.0,0.0,0.0,0.0,0.0,0.0,0.0,0.0,0.0,0.0,0.0,0.0,0.0,0.0,0.0,0.0,0.0,0.0,0.0,0.0,0.0,0.0,0.0,0.0,0.0,0.0,0.0,0.0,0.0,0.0,0.0,0.0,0.0,0.0,0.0,0.0,0.0,0.0,0.0,0.0,0.0,0.0,0.0,0.0,0.0,0.0,0.0,0.0,0.0,0.0,0.0,0.0,0.0,0.0,0.0,0.0,-2.0964,-2.0668,-1.9848,-1.8581,-1.8846,-1.8443,-1.7221,-1.6207,0.0,0.0,0.0,0.0,0.0,0.0,0.0,0.0,0.0,0.0,0.0,0.0,0.0,0.0,0.0,0.0,0.0,0.0,0.0,0.0,0.0,0.0,0.0,0.0,0.0,0.0,0.0,-0.8804,0.0,0.0,0.0,0.0,0.0,0.0,0.0,0.0,0.0,0.0,0.0,0.0,0.0,0.0,-1.4604,-1.5449,-1.6212,-1.6618,0.0,0.0,-1.6018,-1.5814,-1.5201,-1.4342,0.0,0.0,0.0,0.0,0.0,0.0,0.0,0.0,0.0,0.0,0.0,0.0,0.0,0.0,0.0,0.0,0.0,0.0,0.0,0.0,0.0,0.0,0.0,0.0,0.0,0.0,0.0,0.0,0.0,0.0,0.0,0.0,0.0,0.0,0.0,0.0,0.0,0.0,0.0,0.0,0.0,0.0,0.0,0.0,0.0,0.0,0.0,0.0,0.0,0.0,0.0,0.0,0.0,0.0,0.0,-2.0983,-2.0677,-1.9774,-1.8304,-1.8503,-1.7973,-1.6605,-1.5959,-1.43,0.0,0.0,0.0,0.0,0.0,0.0,0.0,0.0,0.0,0.0,0.0,0.0,0.0,0.0,0.0,0.0,0.0,0.0,0.0,0.0,0.0,0.0,0.0,0.0,0.0,0.0,0.0,0.0,0.0,0.0,0.0,0.0,0.0,0.0,0.0,0.0,0.0,0.0,0.0,0.0,0.0,-1.6279,-1.6415,-1.6859,-1.6984,0.0,0.0,-1.5019,-1.4985,-1.4597,-1.3648,-1.1609,0.0,0.0,0.0,0.0,0.0,0.0,0.0,0.0,0.0,0.0,0.0,0.0,0.0,0.0,0.0,0.0,0.0,0.0,0.0,0.0,0.0,0.0,0.0,0.0,0.0,0.0,0.0,0.0,0.0,0.0,0.0,0.0,0.0,0.0,0.0,0.0,0.0,0.0,0.0,0.0,0.0,0.0,0.0,0.0,0.0,0.0,0.0,0.0,0.0,0.0,0.0,0.0,0.0,-2.0282,-2.0664,-2.0581,-1.983,-1.8524,-1.8742,-1.8084,-1.6421,-1.6217,-1.4408,0.0,0.0,0.0,0.0,0.0,0.0,0.0,0.0,0.0,0.0,0.0,0.0,0.0,0.0,0.0,0.0,0.0,0.0,0.0,0.0,0.0,0.0,0.0,0.0,0.0,0.0,0.0,0.0,-0.9008,-0.9113,-0.8804,0.0,0.0,0.0,0.0,0.0,0.0,0.0,0.0,0.0,0.0,-1.6048,-1.7011,-1.7355,0.0,0.0,-1.541,-1.4907,-1.4195,-1.287,-1.1746,-1.1228,-1.0055,0.0,0.0,0.0,0.0,0.0,0.0,0.0,0.0,0.0,0.0,0.0,0.0,0.0,0.0,0.0,0.0,0.0,0.0,0.0,0.0,0.0,0.0,0.0,0.0,0.0,0.0,0.0,0.0,0.0,0.0,0.0,0.0,0.0,0.0,0.0,0.0,0.0,0.0,0.0,0.0,0.0,0.0,0.0,0.0,0.0,0.0,0.0,0.0,0.0,0.0,0.0,0.0,-2.0446,-2.0598,-2.0686,-2.0085,-1.8733,-1.8971,-1.8218,-1.6394,-1.643,-1.4713,0.0,0.0,0.0,0.0,0.0,0.0,0.0,0.0,0.0,0.0,0.0,0.0,0.0,0.0,0.0,0.0,0.0,0.0,0.0,0.0,0.0,0.0,0.0,0.0,0.0,0.0,0.0,0.0,-0.9113,-0.9106,-0.9113,0.0,0.0,0.0,0.0,0.0,0.0,0.0,0.0,0.0,0.0,-1.6296,-1.7135,-1.7302,-1.6834,-1.5476,-1.4693,-1.3846,-1.2806,-1.1072,-0.9845,-0.9826,0.0,0.0,0.0,0.0,0.0,0.0,0.0,0.0,0.0,0.0,0.0,0.0,0.0,0.0,0.0,0.0,0.0,0.0,0.0,0.0,0.0,0.0,0.0,0.0,0.0,0.0,0.0,0.0,0.0,0.0,-1.7216,0.0,0.0,0.0,0.0,0.0,0.0,0.0,0.0,0.0,0.0,0.0,0.0,0.0,0.0,0.0,0.0,0.0,0.0,0.0,0.0,0.0,0.0,0.0,-2.0911,-2.1088,-2.0499,-1.902,-1.9051,-1.8199,-1.6375,-1.6424,-1.5043,-1.2047,0.0,0.0,0.0,0.0,0.0,0.0,0.0,0.0,0.0,0.0,0.0,0.0,0.0,0.0,0.0,0.0,0.0,0.0,0.0,0.0,0.0,0.0,0.0,0.0,0.0,0.0,-0.9769,-0.9762,-0.9769,0.0,0.0,0.0,0.0,0.0,0.0,0.0,0.0,0.0,0.0,-1.5991,-1.7302,-1.6662,-1.6549,-1.6234,-1.537,-1.3322,-1.152,-1.0703,-0.9254,-0.7952,0.0,0.0,0.0,0.0,0.0,0.0,0.0,0.0,0.0,0.0,0.0,0.0,0.0,0.0,0.0,0.0,0.0,0.0,0.0,0.0,0.0,0.0,0.0,0.0,0.0,0.0,0.0,-1.9634,-1.9719,0.0,0.0,0.0,0.0,0.0,0.0,0.0,0.0,0.0,0.0,0.0,-2.3178,-2.3549,0.0,0.0,0.0,0.0,0.0,0.0,0.0,0.0,0.0,0.0,0.0,0.0,-2.048,-2.062,-2.0421,-1.9712,-1.8526,-1.8863,-1.8078,-1.6111,-1.6421,-1.5096,-1.1865,0.0,0.0,0.0,0.0,0.0,0.0,0.0,0.0,0.0,0.0,0.0,0.0,0.0,0.0,0.0,0.0,0.0,0.0,0.0,0.0,0.0,0.0,0.0,0.0,0.0,-0.9821,0.0,0.0,0.0,0.0,0.0,0.0,0.0,0.0,0.0,0.0,0.0,-1.5129,-1.5815,-1.6885,-1.7357,-1.6595,-1.6042,-1.5099,0.0,0.0,0.0,0.0,0.0,0.0,0.0,0.0,0.0,0.0,0.0,0.0,0.0,0.0,-1.1719,-1.1425,-1.2152,-1.2634,-1.1747,0.0,0.0,0.0,0.0,0.0,0.0,0.0,0.0,0.0,0.0,0.0,0.0,0.0,0.0,-2.0959,0.0,-1.9934,0.0,0.0,0.0,0.0,0.0,0.0,0.0,0.0,-2.4481,-2.4798,-2.4734,-2.4929,-2.4526,0.0,-2.2982,-2.1861,0.0,0.0,0.0,0.0,0.0,0.0,0.0,0.0,-2.0618,-2.0703,-2.0101,-1.931,-1.841,-1.8833,-1.8201,-1.6381,-1.5837,-1.4183,-1.1252,-1.0405,-0.9847,0.0,0.0,0.0,0.0,0.0,0.0,0.0,0.0,0.0,0.0,0.0,0.0,0.0,0.0,0.0,0.0,0.0,0.0,0.0,0.0,0.0,0.0,0.0,-1.0167,0.0,0.0,0.0,0.0,0.0,0.0,0.0,0.0,0.0,-1.3869,-1.4686,-1.5529,-1.633,-1.6631,-1.6543,-1.5776,0.0,0.0,0.0,0.0,0.0,0.0,0.0,-0.6549,-0.6523,-0.6147,-0.5949,-0.6373,-0.7417,-0.8122,-0.8005,0.0,0.0,-1.0696,-1.1711,-1.2171,-1.1327,-1.2076,-1.2801,-1.2723,-1.3473,-1.418,0.0,0.0,0.0,0.0,0.0,0.0,0.0,0.0,-2.272,-2.2108,0.0,-2.1087,0.0,0.0,0.0,0.0,0.0,0.0,0.0,0.0,-2.6339,-2.6381,-2.6308,-2.5515,-2.4915,-2.4431,-2.3967,-2.3577,-2.3125,-2.1044,0.0,0.0,0.0,0.0,0.0,0.0,-2.1562,-2.113,-2.0113,-1.9264,-1.8584,-1.8953,-1.8517,-1.7178,-1.4775,-1.2475,-1.0429,-1.1019,-1.0606,-0.8806,-0.9005,0.0,0.0,0.0,0.0,0.0,0.0,0.0,0.0,0.0,0.0,0.0,0.0,0.0,0.0,0.0,0.0,0.0,0.0,0.0,0.0,-1.0415,0.0,0.0,0.0,0.0,0.0,0.0,0.0,0.0,0.0,0.0,-1.3816,-1.4978,-1.5749,-1.5458,0.0,0.0,0.0,0.0,-1.2312,-1.0627,-0.9817,-0.8802,-0.7276,-0.6429,-0.5738,-0.5385,0.0,0.0,-0.6498,-0.6776,-0.6873,-0.6645,-0.6779,-0.7825,-1.0452,-1.1024,-1.1216,-1.1185,-1.0938,-1.079,-1.1049,-1.1482,-1.1492,-2.629,0.0,0.0,0.0,0.0,-2.323,-2.4487,-2.4931,-2.3878,-2.3517,-2.3598,-2.2433,0.0,0.0,0.0,0.0,0.0,0.0,-2.4936,-2.5582,-2.5553,-2.5291,-2.4849,-2.4597,-2.4121,-2.3443,-2.3739,-2.3692,-2.3339,-2.2418,-2.1582,-2.0877,0.0,0.0,0.0,0.0,-2.0562,-2.0594,-1.8861,-1.7845,-1.7676,-1.8386,-1.8678,-1.8435,-1.4969,-1.1846,-0.9262,-0.9784,-0.9509,-0.8209,-0.7797,0.0,0.0,0.0,0.0,0.0,0.0,0.0,0.0,0.0,0.0,0.0,0.0,0.0,0.0,0.0,0.0,0.0,0.0,0.0,-1.1107,-1.0965,-1.0869,0.0,0.0,0.0,0.0,0.0,0.0,0.0,0.0,0.0,-1.4123,-1.4869,-1.5462,0.0,0.0,-1.3254,-1.2493,-1.1188,-0.9945,-0.8963,0.0,0.0,0.0,-0.5006,-0.3867,-0.3772,-0.3951,-0.4021,-0.4129,-0.4378,-0.4595,-0.4499,-0.4561,-0.4878,-0.5823,-0.9076,-1.074,-0.9349,-0.9695,-1.0791,-1.1485,-1.2112,-1.2342,-2.7122,-2.645,-2.5631,-2.4822,-2.4129,-2.4575,-2.506,-2.5456,-2.4683,-2.4395,-2.4436,-2.3534,-2.2847,-2.2278,-2.2428,0.0,0.0,0.0,-2.4605,-2.5177,-2.4547,-2.4033,-2.3651,-2.3651,-2.3397,-2.2967,-2.328,-2.3315,-2.2986,-2.2675,-2.2211,-2.1601,0.0,0.0,-2.2697,-2.0324,-1.9224,-1.9452,-1.7735,-1.688,-1.7044,-1.7862,-1.8546,-1.8965,-1.5379,-1.1676,-0.8156,-0.8717,-0.8545,-0.7245,-0.6813,-0.6471,0.0,0.0,0.0,0.0,0.0,0.0,0.0,0.0,0.0,0.0,0.0,-0.8119,0.0,0.0,0.0,0.0,-1.0116,-1.1133,-1.236,-1.1864,0.0,0.0,0.0,0.0,0.0,0.0,0.0,-1.3409,-1.3844,-1.3866,-1.3288,-1.3339,-1.3493,-1.385,-1.2406,-1.133,-1.126,0.0,-0.8787,-0.8154,-0.7822,-0.6708,-0.4068,-0.2764,-0.1691,-0.0764,-0.0627,-0.0639,-0.0646,-0.0827,-0.0931,-0.0776,-0.0706,-0.0719,-0.0725,-0.3519,-0.6051,-0.6153,-0.7111,-0.839,-1.0018,-1.0009,-0.936,-2.7113,-2.7006,-2.6113,-2.6383,-2.7284,-2.5631,-2.5056,-2.5253,-2.4952,-2.4712,-2.4456,-2.4333,-2.3864,-2.3218,-2.3413,0.0,-2.5465,-2.4312,-2.417,-2.4877,-2.342,-2.2694,-2.263,-2.2611,-2.2572,-2.2508,-2.2559,-2.2443,-2.2184,-2.1924,-2.1654,-2.1301,-2.0414,-2.0992,-2.2698,-1.9439,-1.7752,-1.7991,-1.6674,-1.6204,-1.66,-1.6848,-1.7707,-1.9109,-1.528,-1.124,-0.7444,-0.7989,-0.7732,-0.6162,-0.6041,-0.5797,-0.5356,0.0,0.0,0.0,0.0,0.0,0.0,0.0,0.0,0.0,0.0,0.0,0.0,0.0,0.0,0.0,-1.1068,0.0,-1.3457,-1.2959,0.0,0.0,0.0,-1.0733,-1.0295,-1.0912,-1.1428,-1.1789,0.0,0.0,-1.1621,0.0,-1.06,-1.1257,-1.0002,-0.9354,-1.011,-0.8998,-0.8173,-0.7418,-0.7369,-0.5572,-0.1188,-0.0071,0.095,0.2786,0.3381,0.3219,0.3207,0.3238,0.3463,0.3583,0.3798,0.3741,0.3816,0.3435,0.2395,-0.2156,-0.3312,-0.4275,-0.6108,-0.5337,-0.3989,-2.3724,-2.3541,-2.3728,-2.5406,-2.7704,-2.5289,-2.3932,-2.3435,-2.3425,-2.3358,-2.332,-2.373,-2.373,-2.3418,-2.2902,-2.2798,-2.2968,-2.2882,-2.2765,-2.2603,-2.2438,-2.1894,-2.1062,-2.1043,-2.0699,-2.0106,-2.042,-2.0564,-2.0457,-1.9669,-1.9738,-2.0466,-1.7887,-1.8406,-2.184,-1.8724,-1.7074,-1.7193,-1.5291,-1.4814,-1.571,-1.21,-1.3002,-1.8958,-1.0152,-0.6586,-0.9336,-0.8044,-0.6757,-0.555,-0.5489,-0.5422,-0.5291,-0.4468,0.0,0.0,0.0,0.0,0.0,0.0,0.0,0.0,0.0,-0.8443,-0.8283,0.0,-1.0764,0.0,-1.2919,-1.388,-1.4142,-1.3437,0.0,0.0,-1.1628,-1.1227,-1.1377,-1.1598,-1.1667,-1.1697,-1.1889,-1.1443,-0.9989,-0.9412,-0.8882,-0.8306,-0.7857,-0.7676,-0.7826,-0.5738,-0.4143,-0.3885,-0.2891,-0.1494,-0.0069,0.2353,0.4257,0.5367,0.549,0.5555,0.552,0.5548,0.5554,0.5621,0.5791,0.6069,0.6204,0.6259,0.5874,0.4523,0.2406,0.0755,0.0757,-0.0189,-0.0564,-2.1862,-2.1773,-2.2407,-2.3694,-2.5194,-2.3809,-2.2575,-2.1541,-2.2284,-2.2585,-2.2511,-2.2717,-2.2744,-2.2623,-2.2074,-2.176,-2.1642,-2.1255,-2.0867,-2.0551,-2.0329,-1.9896,-1.9305,-1.9286,-1.9036,-1.8608,-1.8836,-1.8932,-1.8805,-1.7791,-1.7533,-1.8065,-1.5263,-1.5033,-1.7258,-1.609,-1.52,-1.4761,-1.3056,-1.1926,-1.1246,-0.802,-0.7243,-0.8968,-0.5154,-0.3521,-0.4936,-0.5663,-0.5366,-0.3869,-0.3751,-0.3762,-0.3759,-0.3137,-0.3072,0.0,0.0,0.0,0.0,0.0,0.0,0.0,0.0,0.0,0.0,0.0,-1.202,0.0,-1.3606,-1.3862,-1.3549,-1.3427,-1.2802,-1.1478,-1.1083,-1.0753,-1.016,-1.0116,-1.011,-1.0077,-1.0299,-0.9869,-0.8468,-0.8327,-0.7204,-0.4394,-0.3931,-0.3931,-0.3865,-0.2468,-0.1202,-0.0401,0.0534,0.1543,0.2252,0.4139,0.5639,0.6002,0.6165,0.6187,0.6254,0.6267,0.6341,0.6411,0.6542,0.6944,0.7603,0.7872,0.8036,0.8281,0.7224,0.6224,0.6557,0.5624,0.5127,-2.0696,-2.072,-2.1483,-2.1634,-2.1412,-2.1677,-2.0956,-1.9752,-2.1226,-2.1835,-2.1738,-2.133,-2.1232,-2.1272,-2.0843,-2.0626,-2.0517,-1.9427,-1.8775,-1.8517,-1.7732,-1.7356,-1.7347,-1.733,-1.733,-1.733,-1.727,-1.7188,-1.703,-1.5827,-1.5162,-1.4833,-1.2843,-1.179,-1.1682,-1.2571,-1.2509,-1.1516,-1.0319,-0.8321,-0.5535,-0.379,-0.0951,0.2761,0.0298,-0.0396,0.1286,-0.231,-0.3581,-0.1739,-0.1932,-0.1977,-0.1609,-0.1859,-0.2463,0.0,-0.3707,0.0,0.0,0.0,0.0,0.0,0.0,0.0,0.0,-1.1562,-1.3072,-1.3711,-1.3511,-1.3067,-1.2375,-1.293,-1.2357,-1.0166,-1.0227,-0.9844,-0.8308,-0.8035,-0.7976,-0.7972,-0.8431,-0.8166,-0.6753,-0.6841,-0.5055,-0.113,0.0267,0.0667,0.0866,0.0867,0.1337,0.288,0.3211,0.3885,0.5043,0.5677,0.6029,0.62,0.6412,0.6432,0.6765,0.6799,0.6765,0.6893,0.7119,0.7529,0.8619,0.8974,0.9365,1.026,1.0193,1.0144,1.0236,1.0078,1.0582,-1.9034,-1.8766,-1.979,-1.983,-1.9204,-1.9107,-1.8966,-1.8866,-1.9393,-1.9908,-2.0297,-1.9345,-1.925,-1.9621,-1.8648,-1.8078,-1.789,-1.7133,-1.6523,-1.6049,-1.5373,-1.4954,-1.4804,-1.479,-1.479,-1.4761,-1.4469,-1.4302,-1.4254,-1.3004,-1.2565,-1.2878,-1.1259,-1.0386,-1.0328,0.0,0.0,0.0,-0.7119,-0.5281,-0.2753,0.2839,0.4608,0.2429,0.7654,0.0,0.0705,-0.049,-0.076,-0.0449,-0.2694,0.0,0.0,0.0,0.0,0.0,0.0,0.0,0.0,0.0,0.0,0.0,-0.8055,-0.9377,-1.0871,-1.211,-1.3052,-1.3632,-1.3035,-1.2295,-1.1626,-1.1483,-1.08,-0.9195,-0.9689,-0.9753,-0.8544,-0.8102,-0.8011,-0.8032,-0.8101,-0.6966,-0.404,-0.2422,-0.1171,0.0066,0.2542,0.4631,0.5477,0.4752,0.4506,0.4916,0.5498,0.6218,0.6404,0.7025,0.7534,0.7957,0.8085,0.8206,0.8604,0.8689,0.8765,0.8755,0.8994,0.9204,0.9644,0.9932,1.0413,1.0575,1.0697,1.0621,1.0554,1.0651,1.0554,-1.7967,0.0,-1.8126,-1.8274,0.0,-1.7747,-1.7608,-1.7761,-1.832,-1.8569,-1.8562,-1.7664,-1.7459,-1.7699,-1.6453,-1.5864,-1.5747,-1.4963,-1.4334,-1.3821,-1.3493,-1.3252,-1.3161,-1.3148,-1.3318,-1.3565,-1.335,-1.3244,-1.3165,-1.186,-1.1339,-1.1578,-0.956,-0.8392,-0.8019,-0.5497,-0.4304,-0.4548,-0.2784,0.0,0.3899,0.8489,0.976,0.7506,0.0,0.0,0.0,0.0,0.0,0.0,0.0,0.0,0.0,0.0,0.0,-0.0139,-0.1219,-0.2512,-0.3788,-0.4334,-0.5097,-0.6283,-0.7788,-0.9326,-1.0936,-1.1184,-1.137,-1.1652,-1.1165,-1.0484,-0.9595,-1.0132,-0.9765,-0.7786,-0.8293,-0.8083,-0.6051,-0.5506,-0.5088,-0.4322,-0.4107,-0.3294,-0.1626,0.0196,0.1631,0.2487,0.4581,0.6346,0.6586,0.599,0.5516,0.5966,0.6881,0.7466,0.7451,0.78,0.8292,0.8548,0.872,0.9202,0.9878,1.0013,1.0157,1.053,1.103,1.1347,1.1505,1.23,1.3029,1.3187,1.3562,1.3891,1.3807,1.3049,1.2468,-1.7224,-1.7191,-1.7027,-1.7216,-1.7568,-1.7076,-1.6783,-1.6747,0.0,0.0,0.0,-1.6375,-1.594,-1.5659,-1.4544,-1.3938,-1.3733,-1.2876,-1.2247,-1.1802,-1.1637,-1.1624,-1.1731,-1.1731,-1.2013,-1.2492,-1.2539,-1.2457,-1.2341,-1.1047,-1.0308,-0.9945,-0.7832,-0.6138,-0.4886,-0.136,0.0426,0.0343,0.2096,0.5515,1.0464,1.2959,1.385,1.3085,1.1645,0.7893,0.1645,-0.1802,-0.3146,-0.219,-0.2115,-0.2393,-0.2976,-0.1164,0.0047,0.0283,0.0242,-0.0788,-0.3058,-0.3477,-0.4304,-0.5813,-0.72,-0.87,-1.0439,-0.9951,-0.9533,-0.9416,-0.9037,-0.8467,-0.7545,-0.8695,-0.8374,-0.5457,-0.5772,-0.5019,-0.2675,-0.1886,-0.128,-0.0,0.0502,0.1019,0.1542,0.2486,0.3833,0.5413,0.6412,0.7042,0.6693,0.6331,0.6218,0.6854,0.7702,0.8236,0.837,0.8689,0.8994,0.9625,0.9834,1.0248,1.1162,1.1458,1.1806,1.2514,1.3147,1.3509,1.3747,1.475,1.5837,1.6011,1.6683,1.7415,1.7407,1.5988,1.4823,-1.685,-1.6917,-1.7444,-1.7396,-1.6949,-1.7012,-1.6804,-1.6421,-1.6809,-1.6751,-1.6311,-1.5887,-1.5008,-1.3862,-1.3324,-1.2633,-1.1768,-1.0856,-1.0358,0.0,-0.9518,-0.9424,-0.9865,-0.9856,-1.0147,-1.0667,-1.0667,-1.0417,-0.9943,-0.9315,-0.8504,-0.7493,-0.6187,-0.3952,-0.091,0.1575,0.4177,0.6844,0.7475,0.9257,1.2359,1.4896,1.5526,1.4205,1.251,0.8631,0.2458,-0.1425,-0.3547,-0.3382,-0.3355,-0.1627,0.2117,0.0649,0.0233,0.14,0.1218,0.0542,-0.0498,-0.1753,-0.3376,-0.5198,-0.5913,-0.7312,-0.9865,-0.9365,-0.8838,-0.8791,-0.7555,-0.6921,-0.6773,-0.6839,-0.5365,-0.1676,-0.101,-0.0797,-0.0293,0.106,0.1987,0.2334,0.3451,0.4889,0.5986,0.5639,0.575,0.7469,0.7409,0.7028,0.7653,0.7678,0.7702,0.7897,0.8549,0.9167,0.946,1.0151,1.102,1.2465,1.2508,1.2933,1.4063,1.4339,1.4403,1.4696,1.5339,1.5675,1.5695,1.642,1.7065,1.7172,1.7342,1.7658,1.839,1.7496,1.6445,-1.6686,-1.6581,-1.6901,-1.7141,-1.7322,-1.706,-1.6929,-1.6906,-1.6979,-1.6622,-1.5922,-1.5049,-1.4273,-1.3579,-1.2411,-1.1617,-1.1157,-1.049,-1.0156,-1.0098,-0.969,-0.9748,-1.0205,-1.0244,-1.0389,-1.0649,-1.0687,-1.0254,-0.9527,-0.9154,-0.8316,-0.6897,-0.4295,-0.1161,0.2218,0.4764,0.7329,0.9925,1.0377,1.1889,1.4564,1.6727,1.7198,1.5851,1.5157,1.239,0.6988,0.4203,0.2335,0.1357,0.0604,0.0834,0.2162,0.1502,0.1875,0.3561,0.3551,0.2791,0.1326,-0.0176,-0.1418,-0.2364,-0.2582,-0.3166,-0.4506,-0.572,-0.6032,-0.5206,-0.3868,-0.2982,-0.2996,-0.2996,-0.2159,-0.0222,0.1391,0.2488,0.2791,0.4219,0.5144,0.5098,0.6162,0.7192,0.7756,0.7255,0.7031,0.808,0.7917,0.827,0.9233,0.9384,0.9198,0.8882,0.9574,1.0171,1.0454,1.1472,1.2438,1.3229,1.3902,1.4684,1.5711,1.593,1.6149,1.663,1.737,1.7537,1.7243,1.8166,1.8682,1.831,1.823,1.855,1.8727,1.7801,1.6536,-1.6517,-1.6448,-1.6566,-1.714,-1.7912,-1.7534,-1.7407,-1.7478,-1.7328,-1.6787,-1.591,-1.4981,-1.4391,-1.3926,-1.2527,-1.1768,-1.1537,-1.114,-1.0751,-1.0442,-1.0651,-1.0925,-1.1151,-1.1147,-1.1185,-1.1148,-1.1057,-1.0447,-0.9399,-0.9041,-0.7665,-0.5292,-0.1627,0.1831,0.4941,0.7648,0.9952,1.1792,1.2679,1.4112,1.6222,1.8016,1.8435,1.7478,1.7403,1.5534,1.1597,1.0006,0.8385,0.6654,0.6115,0.5152,0.3548,0.3772,0.4548,0.5717,0.5626,0.4735,0.2997,0.1853,0.1235,0.1381,0.144,0.1333,0.0876,-0.1047,-0.2101,-0.1223,-0.0277,0.0555,0.0832,0.0943,0.1112,0.1507,0.3408,0.4844,0.549,0.6658,0.739,0.7154,0.7933,0.8378,0.8185,0.8159,0.8318,0.8493,0.8945,0.9681,1.0445,1.0744,1.0555,1.0405,1.077,1.1462,1.1678,1.2713,1.3639,1.3886,1.4825,1.5817,1.6576,1.6922,1.7204,1.7908,1.8699,1.8902,1.8471,1.9411,1.9856,1.9125,1.8877,1.8789,1.8069,1.7103,1.6159,-1.6246,-1.6767,-1.715,-1.7731,-1.8431,-1.879,-1.8482,-1.7787,-1.7562,-1.7161,-1.6635,-1.679,-1.6077,-1.4987,-1.4607,-1.4021,-1.3243,-1.3036,-1.2273,-1.1307,-1.2084,-1.2341,-1.2052,-1.2033,-1.1884,-1.1637,-1.1249,-1.0292,-0.874,-0.8049,-0.5454,-0.0931,0.2282,0.4812,0.7324,0.9826,1.1827,1.3298,1.4994,1.6119,1.6757,1.8276,1.8889,1.8476,1.7557,1.6113,1.4126,1.3041,1.1554,0.9934,1.1954,1.2317,1.0176,0.9449,0.8671,0.7569,0.6594,0.5567,0.4635,0.4705,0.4938,0.5561,0.5628,0.5221,0.413,0.3765,0.3049,0.2225,0.1949,0.2627,0.3866,0.4045,0.4426,0.5258,0.5634,0.616,0.7013,0.7274,0.7415,0.7634,0.8222,0.8318,0.9128,0.9261,0.9497,1.0151,1.0358,1.0593,1.0843,1.1351,1.1892,1.1995,1.228,1.2741,1.3465,1.4212,1.494,1.5922,1.6314,1.6853,1.7432,1.7764,1.8027,1.8308,1.8975,1.935,1.9626,2.0244,2.0216,1.9292,1.8816,1.8327,1.6714,1.6094,1.5977,-1.7117,-1.7266,-1.7644,-1.8085,-1.8588,-1.8934,-1.8763,-1.8209,-1.7779,-1.7499,-1.7378,-1.7539,-1.6706,-1.5176,-1.4748,-1.4466,-1.439,-1.4426,-1.3983,-1.3324,-1.4247,-1.4851,-1.4978,-1.4663,-1.3952,-1.2793,-1.2325,-1.0555,-0.7706,-0.5403,-0.1881,0.2305,0.4115,0.6175,0.9044,1.1441,1.3226,1.439,1.6171,1.72,1.7552,1.8513,1.9106,1.9094,1.8758,1.8081,1.6906,1.569,1.4641,1.3794,1.3899,1.348,1.2491,1.1705,1.0735,0.9572,0.8254,0.7251,0.6577,0.6278,0.6231,0.654,0.6519,0.6226,0.5788,0.576,0.5429,0.4944,0.4748,0.5223,0.6276,0.6358,0.6508,0.6983,0.6924,0.7269,0.8269,0.8789,0.9138,0.9401,1.0276,1.0808,1.0885,1.1176,1.1542,1.1935,1.1958,1.1965,1.2027,1.2328,1.2849,1.3668,1.4094,1.4261,1.4605,1.5308,1.6007,1.6513,1.707,1.7647,1.7881,1.8262,1.8387,1.8623,1.9199,1.9639,1.9853,2.0168,2.0245,1.9222,1.7713,1.6818,1.5241,1.5385,1.5665,-1.7808,-1.7738,-1.8199,-1.8573,-1.8807,-1.8747,-1.8559,-1.8258,-1.7821,-1.7528,-1.7321,-1.742,-1.6838,-1.5749,-1.5424,-1.5651,-1.6116,-1.6196,-1.61,-1.5926,-1.6455,-1.7102,-1.7727,-1.6923,-1.5622,-1.4043,-1.283,-0.9879,-0.5454,-0.222,0.1529,0.5239,0.6541,0.8455,1.1277,1.343,1.4805,1.5704,1.718,1.8086,1.8431,1.8981,1.935,1.9552,1.9725,1.9509,1.8891,1.766,1.6942,1.6759,1.5238,1.4307,1.4046,1.335,1.2382,1.1118,0.982,0.8932,0.8464,0.7666,0.7352,0.7742,0.7516,0.7336,0.7448,0.7469,0.7469,0.7433,0.7339,0.744,0.7505,0.7766,0.7951,0.8196,0.8333,0.8859,1.0026,1.065,1.1008,1.1243,1.2043,1.2948,1.2565,1.2687,1.294,1.3183,1.3122,1.3009,1.3094,1.3283,1.3917,1.4908,1.557,1.5844,1.5618,1.6278,1.6876,1.707,1.7579,1.793,1.8037,1.8369,1.876,1.8916,1.9531,1.9951,2.0146,2.0352,1.9923,1.8594,1.7054,1.5533,1.4802,1.5033,1.5231,-1.7999,-1.81,-1.8828,-1.9179,-1.9274,-1.8361,-1.7901,-1.7666,-1.7524,-1.6968,-1.6196,-1.6333,-1.646,-1.6614,-1.7399,-1.8417,-1.8814,-1.8422,-1.8457,-1.8745,-1.8277,-1.8688,-1.9718,-1.8152,-1.6463,-1.4149,-1.1932,-0.7515,-0.1315,0.1251,0.4373,0.8412,1.0446,1.2534,1.435,1.5775,1.6785,1.7121,1.7993,1.882,1.9471,1.9625,1.9669,1.9735,1.994,1.9908,1.9481,1.8698,1.8051,1.7766,1.697,1.6273,1.5575,1.5023,1.3789,1.186,1.1036,1.0497,0.9954,0.9145,0.9064,0.9968,0.963,0.9494,0.9358,0.9372,0.9372,0.9533,0.918,0.8664,0.7807,0.8403,0.9212,1.0093,1.0574,1.1317,1.2567,1.2425,1.2603,1.2728,1.2879,1.3243,1.3855,1.3425,1.3485,1.3726,1.3485,1.3025,1.3222,1.3995,1.4827,1.5487,1.6346,1.7278,1.729,1.7379,1.7677,1.7794,1.7794,1.8008,1.8154,1.8359,1.8779,1.9189,1.9687,2.0098,2.04,2.006,1.9186,1.787,1.602,1.4679,1.469,1.481,1.513,-1.8793,-1.8714,-1.9418,-1.9277,-1.8434,-1.7027,-1.6536,-1.6742,-1.6435,-1.5964,-1.5548,-1.5796,-1.6148,-1.6475,-1.6853,-1.7677,-1.8653,-1.8375,-1.8846,-1.9662,-1.8444,-1.7543,-1.7057,-1.6714,-1.3804,-0.9637,-0.8631,-0.4311,0.3093,0.6505,0.9125,1.1132,1.2685,1.4169,1.5587,1.6791,1.7473,1.7759,1.8642,1.9343,1.9676,1.9915,2.0034,2.008,2.0082,2.0022,1.987,1.9222,1.8715,1.8335,1.7713,1.7238,1.6881,1.5936,1.4677,1.3175,1.2551,1.1939,1.1255,1.0692,1.0505,1.0897,1.0634,1.0426,1.0428,1.0383,1.0383,1.0478,1.0762,1.0609,1.0348,1.0286,1.0782,1.1782,1.2186,1.2646,1.3434,1.3663,1.3646,1.364,1.3364,1.3312,1.3855,1.3914,1.3906,1.4085,1.3914,1.3596,1.3492,1.4231,1.5052,1.5724,1.6647,1.748,1.7783,1.7881,1.8008,1.8008,1.8008,1.8008,1.8096,1.8652,1.9121,1.9068,1.9606,1.9928,2.0148,1.893,1.806,1.6754,1.4888,1.4389,1.479,1.4501,1.4989,-1.8965,-1.8833,-1.8899,-1.8538,-1.7671,-1.6239,-1.5792,-1.603,-1.5786,-1.5448,-1.521,-1.561,-1.5841,-1.5881,-1.5924,-1.651,-1.7541,-1.7473,-1.7649,-1.7931,-1.7198,-1.6248,-1.5307,-1.533,-1.3188,-0.8609,-0.4732,0.0387,0.6484,0.9907,1.2173,1.3781,1.4747,1.5792,1.6953,1.7893,1.8401,1.8632,1.9339,1.9819,1.9918,2.0104,2.0233,2.0227,2.0136,2.0063,1.9951,1.9413,1.9043,1.8788,1.8303,1.789,1.7609,1.6517,1.5403,1.4485,1.3834,1.3297,1.277,1.2243,1.2037,1.2379,1.2086,1.1828,1.1769,1.1756,1.171,1.1789,1.1815,1.2163,1.2629,1.2414,1.2478,1.3279,1.3606,1.3974,1.4451,1.4323,1.4067,1.3717,1.3304,1.3312,1.3674,1.3786,1.3786,1.3795,1.3865,1.3785,1.3605,1.417,1.4862,1.5388,1.6031,1.6578,1.6821,1.6973,1.7647,1.7794,1.7862,1.793,1.7977,1.8666,1.9039,1.9065,1.9269,1.9608,1.9107,1.7811,1.6648,1.5489,1.4421,1.3547,1.3779,1.3938,1.4139,-1.8412,-1.8159,-1.7255,-1.7089,-1.6994,-1.6161,-1.571,-1.5619,-1.571,-1.5448,-1.5118,-1.5551,-1.5507,-1.5195,-1.518,-1.5397,-1.5845,-1.5994,-1.5273,-1.4063,-1.4956,-1.4983,-1.4156,-1.3842,-1.3459,-1.2171,-0.1439,0.5792,0.9158,1.1137,1.3257,1.5516,1.6657,1.7581,1.8821,1.92,1.9581,1.9638,1.9992,2.0231,2.0293,2.0253,2.0204,2.0106,2.0068,1.9988,1.9804,1.9316,1.914,1.9215,1.8842,1.8316,1.7693,1.6802,1.6047,1.5461,1.4807,1.4523,1.4489,1.3692,1.3598,1.4124,1.4177,1.3608,1.3449,1.3437,1.3369,1.3147,1.2926,1.3055,1.4174,1.4053,1.3883,1.4191,1.4746,1.5167,1.5167,1.4628,1.3855,1.3191,1.2887,1.2948,1.3009,1.3058,1.3083,1.3063,1.3214,1.3332,1.3276,1.3808,1.4383,1.4624,1.5152,1.5782,1.5834,1.6009,1.6862,1.7569,1.7647,1.7735,1.7502,1.7881,1.7944,1.8043,1.8434,1.8717,1.7317,1.6124,1.5183,1.4117,1.3291,1.271,1.2721,1.2714,1.2751,-1.7778,-1.7485,-1.7009,-1.6575,-1.6243,-1.5916,-1.5595,-1.5271,-1.5315,-1.5074,-1.4814,-1.5134,-1.5059,-1.4752,-1.469,-1.4661,-1.4607,-1.4269,-1.3731,-1.3329,-1.3677,-1.3285,-1.2336,-1.1928,-0.9852,-0.5123,0.4231,1.0085,1.161,1.3186,1.5036,1.6675,1.7583,1.8476,1.9195,1.945,1.9567,1.9784,2.0022,2.011,2.0021,2.0036,1.9992,1.9948,1.9826,1.9807,1.9913,1.9587,1.9501,1.9616,1.9157,1.8512,1.7742,1.7019,1.632,1.5665,1.5261,1.4904,1.4708,1.4497,1.441,1.4627,1.4272,1.3914,1.3747,1.3478,1.3352,1.3486,1.3551,1.3974,1.4632,1.4888,1.4897,1.5031,1.5235,1.5352,1.5177,1.4628,1.3597,1.2443,1.2143,1.2143,1.2197,1.2305,1.2419,1.2449,1.2726,1.2795,1.2643,1.3087,1.3707,1.3978,1.4546,1.4649,1.449,1.4411,1.4972,1.5834,1.6341,1.6945,1.6926,1.7027,1.7051,1.6868,1.7296,1.6742,1.5418,1.4551,1.3668,1.2845,1.1908,1.1651,1.1655,1.1532,1.1482,-1.7278,-1.6878,-1.6812,-1.6419,-1.5829,-1.5817,-1.549,-1.5075,-1.509,-1.4876,-1.4627,-1.4766,-1.4658,-1.4296,-1.409,-1.3762,-1.3387,-1.2822,-1.2572,-1.2479,-1.2351,-1.1718,-1.072,-0.982,-0.6717,-0.1119,0.5945,0.975,1.0472,1.2526,1.4183,1.5323,1.661,1.7687,1.8664,1.9109,1.9433,1.9783,1.986,1.9871,1.9852,1.9771,1.9756,1.9756,1.9694,1.9737,1.9828,1.967,1.9592,1.9549,1.9173,1.8584,1.7924,1.7215,1.667,1.643,1.5908,1.5565,1.555,1.5478,1.5367,1.5319,1.5068,1.4595,1.4269,1.3809,1.3858,1.3753,1.4077,1.4551,1.4971,1.5234,1.54,1.542,1.542,1.5108,1.4628,1.3777,1.2891,1.1851,1.1538,1.1574,1.1654,1.1761,1.1918,1.1969,1.2212,1.2317,1.205,1.2152,1.2466,1.2503,1.2298,1.2451,1.2816,1.2954,1.3165,1.3894,1.4617,1.5493,1.5965,1.6309,1.648,1.5162,1.5025,1.3915,1.2741,1.2769,1.2241,1.1418,1.0529,1.0441,1.0312,1.0223,0.9821,-1.6885,-1.6371,-1.6628,-1.6376,-1.5842,-1.58,-1.5463,-1.4988,-1.5031,-1.4859,-1.4533,-1.4452,-1.4246,-1.3822,-1.3382,-1.2914,-1.2271,-1.1923,-1.1659,-1.1362,-1.0989,-1.05,-0.9905,-0.817,-0.5065,-0.0822,0.363,0.5699,0.6403,0.8889,1.1081,1.2146,1.4116,1.581,1.7166,1.8313,1.9138,1.9556,1.9583,1.9623,1.9729,1.95,1.9443,1.9569,1.9656,1.9656,1.9601,1.9513,1.9423,1.9277,1.8914,1.8538,1.8172,1.737,1.7178,1.7662,1.6757,1.6519,1.678,1.652,1.6273,1.6298,1.6058,1.6001,1.4878,1.4623,1.4508,1.4218,1.4512,1.4902,1.5254,1.54,1.5371,1.5332,1.5205,1.4579,1.3243,1.2474,1.1825,1.1286,1.1002,1.1096,1.1452,1.1458,1.1512,1.1565,1.1837,1.1955,1.1657,1.1424,1.0965,1.0703,1.0697,1.0697,1.1137,1.1273,1.1489,1.181,1.2505,1.3269,1.4119,1.4493,1.4732,1.3585,1.2644,1.1428,1.0753,1.1087,1.0656,0.9763,0.9222,0.9046,0.8459,0.7813,0.6714,-1.667,-1.6316,-1.6128,-1.5943,-1.5814,-1.5814,-1.5433,-1.4943,-1.5031,-1.4658,-1.4181,-1.4052,-1.3802,-1.3357,-1.2871,-1.2543,-1.2259,-1.1568,-1.1196,-1.0912,-0.9778,-0.9253,-0.874,-0.7132,-0.5265,-0.3008,0.0131,0.2421,0.3967,0.5276,0.6941,0.9243,1.1932,1.4056,1.5596,1.7219,1.8253,1.8819,1.9346,1.9493,1.9413,1.9243,1.9209,1.935,1.9311,1.9344,1.9335,1.9139,1.9044,1.9033,1.8407,1.8405,1.8805,1.807,1.7805,1.8298,1.7852,1.7242,1.7105,1.7023,1.6866,1.6429,1.5832,1.5177,1.5166,1.4387,1.4264,1.4414,1.4746,1.4961,1.5312,1.543,1.5252,1.493,1.474,1.4156,1.3161,1.2492,1.1797,1.1186,1.1189,1.1343,1.1476,1.163,1.175,1.1797,1.1886,1.1859,1.1334,1.0683,1.026,0.9814,0.9664,0.9518,0.9518,0.9664,0.9744,0.9846,1.0242,1.0573,1.1132,1.1467,1.1629,1.1288,1.107,1.0091,0.9934,0.9967,0.9088,0.7757,0.7531,0.6985,0.5068,0.3907,0.25,-1.6607,-1.6274,-1.5933,-1.5794,-1.5755,-1.5418,-1.5049,-1.4758,-1.4599,-1.4214,-1.3715,-1.3628,-1.3459,-1.3151,-1.2496,-1.2222,-1.2066,-1.1169,-1.0715,-1.0525,-0.9479,-0.8689,-0.7937,-0.6487,-0.5415,-0.4654,-0.2569,-0.0373,0.1612,0.2455,0.4278,0.6794,0.9695,1.2075,1.3965,1.5769,1.716,1.7899,1.8556,1.8948,1.9398,1.9235,1.9522,1.9759,1.9811,1.9829,1.9867,1.95,1.9202,1.9021,1.8499,1.8444,1.9149,1.8459,1.8318,1.8919,1.8145,1.7465,1.7466,1.7209,1.6811,1.6509,1.5744,1.5635,1.5622,1.4967,1.4862,1.5168,1.5137,1.5156,1.5371,1.5566,1.5352,1.4798,1.4364,1.3822,1.2965,1.2239,1.1812,1.1485,1.1503,1.167,1.1764,1.1944,1.2017,1.1998,1.1707,1.1415,1.0914,1.0185,0.9437,0.8912,0.8385,0.8084,0.8056,0.8146,0.8316,0.8411,0.8648,0.8769,0.9318,0.9585,0.9686,0.9798,0.9483,0.9091,0.8992,0.8271,0.6575,0.5578,0.541,0.4121,0.2084,0.02,-0.1302,-1.6633,-1.6258,-1.5948,-1.5814,-1.5681,-1.4874,-1.4466,-1.4278,-1.409,-1.3702,-1.3335,-1.3245,-1.3163,-1.3082,-1.2246,-1.1763,-1.1664,-1.0866,-1.043,-1.0084,-0.9461,-0.8725,-0.7738,-0.6384,-0.5429,-0.486,-0.4019,-0.2349,-0.0441,0.101,0.2684,0.4946,0.7602,0.9906,1.2027,1.413,1.5894,1.7228,1.7924,1.8633,1.9377,1.9369,1.9589,2.0193,2.0445,2.0372,2.0266,1.9993,1.963,1.9373,1.8812,1.8951,1.9345,1.871,1.8655,1.8903,1.823,1.7696,1.7757,1.712,1.6595,1.6479,1.6455,1.6426,1.6173,1.5864,1.569,1.5622,1.5575,1.5439,1.5527,1.5819,1.5476,1.4808,1.4309,1.36,1.2795,1.197,1.1583,1.183,1.187,1.2051,1.2198,1.2224,1.2063,1.1586,1.1137,1.0398,0.9809,0.9135,0.8385,0.7778,0.7173,0.649,0.6542,0.6602,0.6864,0.7031,0.7371,0.7747,0.8586,0.8884,0.8723,0.8544,0.838,0.8044,0.7634,0.6376,0.453,0.15,-0.0,-0.0584,-0.129,-0.2998,-0.4516,-1.685,-1.6285,-1.5933,-1.5801,-1.5652,-1.4874,-1.4114,-1.3533,-1.3801,-1.3615,-1.3267,-1.321,-1.2978,-1.2615,-1.2066,-1.1579,-1.1223,-1.0815,-1.0461,-0.9819,-0.9701,-0.9035,-0.8001,-0.659,-0.5605,-0.4973,-0.4293,-0.3034,-0.1502,-0.0049,0.1531,0.3797,0.5597,0.764,0.9751,1.2672,1.5253,1.6939,1.7909,1.8578,1.9152,1.9209,1.9299,1.9841,2.0147,2.0016,1.9663,1.9672,1.9777,1.9733,1.9607,1.9479,1.9569,1.9185,1.904,1.9086,1.879,1.8149,1.7612,1.7214,1.6879,1.6455,1.6447,1.6326,1.6101,1.6011,1.5802,1.5612,1.5429,1.5537,1.5859,1.5651,1.5267,1.4654,1.3886,1.3175,1.2499,1.204,1.1908,1.1904,1.1992,1.2225,1.2211,1.1465,1.1236,1.1013,1.0265,0.9367,0.8765,0.8161,0.7553,0.6945,0.6718,0.6264,0.6308,0.6417,0.66,0.6719,0.6885,0.6983,0.7835,0.7683,0.7379,0.7319,0.7432,0.7094,0.7111,0.4945,0.3185,-0.1019,-0.4937,-0.4749,-0.5031,-0.6484,-0.6939,-1.7085,-1.6716,-1.6428,-1.6076,-1.5675,-1.4857,-1.4001,-1.338,-1.3446,-1.3459,-1.3232,-1.321,-1.2943,-1.2473,-1.1993,-1.1516,-1.1009,-1.0572,-1.0284,-0.9872,-0.9636,-0.8953,-0.8018,-0.6978,-0.6032,-0.5569,-0.4666,-0.3445,-0.2045,-0.0766,0.0497,0.1972,0.3842,0.5944,0.7993,1.0902,1.3422,1.5339,1.6478,1.7359,1.8315,1.8393,1.8796,1.9308,1.9704,1.9707,1.9729,1.959,1.9673,1.9685,1.951,1.9513,1.9564,1.9096,1.879,1.8801,1.843,1.78,1.7092,1.7111,1.693,1.6071,1.6397,1.6518,1.6338,1.6042,1.588,1.578,1.5662,1.5586,1.6035,1.5817,1.5265,1.4577,1.3816,1.3136,1.2451,1.2164,1.2071,1.2018,1.1752,1.1582,1.131,1.064,1.0265,1.0045,0.921,0.8385,0.8161,0.7553,0.7022,0.6563,0.6412,0.6274,0.639,0.6464,0.6729,0.6875,0.7027,0.7001,0.739,0.6688,0.58,0.6358,0.7098,0.7111,0.6671,0.4316,0.0543,-0.373,-0.6804,-0.7581,-0.7882,-0.7493,-0.7928,-1.7351,-1.7199,-1.6933,-1.6438,-1.5715,-1.4807,-1.397,-1.3265,-1.3205,-1.3232,-1.3176,-1.3129,-1.2768,-1.2354,-1.1847,-1.14,-1.0924,-1.0531,-1.028,-0.9971,-0.96,-0.8938,-0.8004,-0.7121,-0.6523,-0.6421,-0.5148,-0.3718,-0.2581,-0.1131,-0.0052,0.0399,0.1912,0.4044,0.6411,0.8808,1.1204,1.338,1.4262,1.5324,1.6647,1.6969,1.7616,1.8448,1.8802,1.8909,1.8995,1.8969,1.8957,1.9214,1.8788,1.8878,1.891,1.8646,1.8109,1.815,1.7841,1.7502,1.718,1.7122,1.6854,1.5646,1.6382,1.6818,1.6519,1.6158,1.6036,1.6032,1.5928,1.5918,1.6198,1.5834,1.5392,1.4698,1.4016,1.3063,1.2365,1.2077,1.197,1.1896,1.136,1.1075,1.0415,0.9744,0.9372,0.8922,0.8161,0.7553,0.7326,0.7096,0.6641,0.6335,0.6335,0.6386,0.6444,0.6563,0.682,0.689,0.7048,0.6979,0.6999,0.6643,0.6281,0.6653,0.7121,0.6397,0.3585,-0.0805,-0.4383,-0.7476,-0.7865,-0.7815,-0.7938,-0.8096,-0.8913,-1.7585,-1.6892,-1.702,-1.6597,-1.5699,-1.4648,-1.3811,-1.3271,-1.3234,-1.3198,-1.3129,-1.2803,-1.2401,-1.1884,-1.1345,-1.0934,-1.0686,-1.0516,-1.037,-0.9988,-0.9643,-0.9103,-0.829,-0.7182,-0.6588,-0.6213,-0.5238,-0.4249,-0.3408,-0.1551,-0.0591,-0.0261,0.0403,0.2013,0.412,0.634,0.8667,1.0822,1.2064,1.3356,1.4413,1.5223,1.5849,1.671,1.6996,1.7117,1.7049,1.7223,1.7383,1.7545,1.7499,1.7545,1.7733,1.7882,1.8072,1.8091,1.8051,1.7816,1.7618,1.7373,1.7135,1.684,1.6797,1.6497,1.6158,1.6168,1.611,1.5978,1.6245,1.666,1.7119,1.6075,1.5356,1.4735,1.3598,1.2211,1.1465,1.1162,1.1013,1.0789,1.0634,1.0335,0.9513,0.8765,0.8313,0.7936,0.7403,0.6945,0.6795,0.6641,0.6412,0.6335,0.6257,0.6437,0.6607,0.6742,0.6833,0.687,0.6894,0.6815,0.6834,0.6939,0.6857,0.4667,0.3583,0.2596,-0.0984,-0.5213,-0.6448,-0.7414,-0.7616,-0.7719,-0.8247,-0.8784,-0.9669,-1.7743,-1.7035,-1.6548,-1.6339,-1.601,-1.4387,-1.348,-1.3231,-1.32,-1.306,-1.2838,-1.2579,-1.2066,-1.1431,-1.0809,-1.0428,-1.0232,-0.9905,-0.9833,-0.965,-0.9458,-0.889,-0.8209,-0.7074,-0.6416,-0.5878,-0.5011,-0.4529,-0.4408,-0.3232,-0.157,-0.0318,-0.0155,0.0507,0.1975,0.4157,0.5992,0.7802,0.9445,1.0925,1.1911,1.2826,1.3683,1.4283,1.463,1.4752,1.494,1.5098,1.5437,1.578,1.6071,1.6202,1.6508,1.708,1.7644,1.7772,1.8035,1.805,1.787,1.7482,1.7249,1.6528,1.6557,1.6282,1.5879,1.5944,1.6227,1.6294,1.6519,1.6925,1.6562,1.5731,1.5059,1.4314,1.3091,1.1909,1.1087,1.0789,1.0185,0.9583,0.9135,0.8836,0.8613,0.7859,0.7249,0.6795,0.6563,0.6412,0.6257,0.6261,0.6261,0.6285,0.6305,0.6464,0.6651,0.6793,0.6883,0.6933,0.6364,0.6287,0.5479,0.5124,0.215,-0.0984,-0.1611,-0.1341,-0.3312,-0.6573,-0.6962,-0.7175,-0.7394,-0.7716,-0.8627,-0.9444,-1.0334,-1.7743,-1.7118,-1.6055,-1.5877,-1.5965,-1.4215,-1.329,-1.3208,-1.3088,-1.2873,-1.2508,-1.2246,-1.1726,-1.104,-1.0449,-0.9965,-0.9504,-0.9042,-0.9271,-0.9306,-0.8837,-0.8209,-0.767,-0.6966,-0.6367,-0.5928,-0.5441,-0.4739,-0.4508,-0.4219,-0.2962,-0.1658,-0.0936,-0.0259,0.0685,0.2163,0.3358,0.5055,0.6511,0.8118,0.8987,1.0084,1.1158,1.1798,1.1905,1.2148,1.2596,1.284,1.3389,1.3994,1.4607,1.5021,1.5378,1.631,1.6997,1.7337,1.7952,1.7994,1.782,1.7631,1.7304,1.6375,1.6217,1.5968,1.5939,1.6068,1.6429,1.6816,1.6775,1.6855,1.622,1.5331,1.4411,1.3498,1.2492,1.1545,1.0415,0.9664,0.8988,0.8309,0.7706,0.748,0.7403,0.7249,0.6718,0.6641,0.6412,0.6412,0.6261,0.6261,0.6271,0.6312,0.6376,0.6505,0.6651,0.6696,0.688,0.6976,0.5922,0.5025,0.3767,0.2602,-0.0895,-0.4125,-0.5114,-0.5107,-0.6653,-0.7108,-0.7118,-0.7155,-0.7326,-0.7876,-0.8745,-0.9969,-1.1111,-1.7412,-1.6773,-1.5943,-1.5286,-1.4732,-1.4038,-1.3542,-1.3148,-1.2731,-1.2579,-1.2318,-1.1605,-1.1169,-1.0728,-1.0283,-0.9588,-0.9067,-0.9033,-0.8984,-0.8795,-0.8237,-0.783,-0.7563,-0.6907,-0.6588,-0.6258,-0.6263,-0.5609,-0.4948,-0.4659,-0.4385,-0.3361,-0.148,-0.0055,0.0055,-0.0,0.1877,0.4033,0.4812,0.5545,0.6458,0.7641,0.8488,0.9064,0.9314,0.9592,1.0257,1.0617,1.1239,1.2319,1.3221,1.4032,1.4829,1.5879,1.6493,1.7185,1.7984,1.8796,1.8306,1.784,1.729,1.6427,1.5979,1.5792,1.6035,1.6282,1.6625,1.7256,1.6627,1.599,1.5653,1.4751,1.3571,1.2471,1.1446,1.011,0.8912,0.8912,0.8161,0.7476,0.6945,0.6718,0.6641,0.649,0.6335,0.6261,0.6261,0.6261,0.6274,0.6285,0.6315,0.6366,0.6471,0.6518,0.6121,0.6317,0.6445,0.6726,0.5018,0.3223,0.0447,-0.1612,-0.2684,-0.5382,-0.6557,-0.7094,-0.7091,-0.7088,-0.7088,-0.7118,-0.7265,-0.7941,-0.8906,-1.0232,-1.1655,-1.6574,-1.6071,-1.5419,-1.4797,-1.4189,-1.3315,-1.281,-1.259,-1.227,-1.1909,-1.1641,-1.1234,-1.0542,-0.9862,-0.9383,-0.8832,-0.8218,-0.8412,-0.8362,-0.8165,-0.7811,-0.7509,-0.7074,-0.675,-0.6588,-0.6642,-0.6588,-0.6372,-0.566,-0.5167,-0.4897,-0.4304,-0.3121,-0.1555,-0.0446,-0.0,-0.0,0.1944,0.2998,0.4149,0.5062,0.5936,0.6763,0.7458,0.7511,0.7747,0.8148,0.8651,0.917,1.0147,1.1195,1.2233,1.2998,1.4127,1.5318,1.5991,1.6863,1.758,1.7881,1.7346,1.6866,1.6576,1.6125,1.6164,1.6568,1.6493,1.6496,1.684,1.604,1.527,1.4419,1.3397,1.2091,1.0989,1.0254,0.9281,0.8161,0.8012,0.7629,0.6868,0.6261,0.6261,0.6261,0.6261,0.6261,0.6261,0.6261,0.6261,0.6302,0.6356,0.6393,0.6441,0.6566,0.6622,0.5954,0.5615,0.5507,0.5262,0.2676,0.0268,-0.4034,-0.6212,-0.6106,-0.6008,-0.6818,-0.7084,-0.7074,-0.7068,-0.7068,-0.7173,-0.7193,-0.8224,-0.9366,-1.0577,-1.2085,-1.5662,-1.5272,-1.4811,-1.4327,-1.3762,-1.2659,-1.2106,-1.1962,-1.1704,-1.1394,-1.1008,-1.0715,-0.9855,-0.8918,-0.861,-0.8253,-0.7661,-0.7829,-0.7794,-0.7776,-0.7606,-0.7391,-0.7182,-0.6912,-0.6912,-0.6912,-0.7289,-0.6966,-0.646,-0.6009,-0.5462,-0.4798,-0.4291,-0.3231,-0.1615,-0.0,-0.0,0.0447,0.156,0.2943,0.433,0.4999,0.5534,0.5945,0.6142,0.6216,0.6487,0.7165,0.7624,0.8404,0.944,1.0383,1.0934,1.2234,1.3408,1.415,1.5013,1.5646,1.6172,1.627,1.6312,1.6257,1.6377,1.6389,1.6674,1.6312,1.5916,1.6227,1.4869,1.3655,1.259,1.1931,1.0616,0.9658,0.8917,0.8237,0.771,0.7419,0.7188,0.6718,0.6261,0.6261,0.6261,0.6261,0.6261,0.6261,0.6261,0.6264,0.6329,0.641,0.6491,0.6546,0.6555,0.6628,0.6347,0.5629,0.5326,0.3016,0.0445,-0.1961,-0.5744,-0.7108,-0.6818,-0.6992,-0.7255,-0.7071,-0.7149,-0.7143,-0.7139,-0.7245,-0.7613,-0.8874,-1.0037,-1.124,-1.2517,-1.4866,-1.455,-1.4249,-1.3762,-1.3119,-1.246,-1.1832,-1.1432,-1.1164,-1.1008,-1.0819,-1.0099,-0.9439,-0.8756,-0.833,-0.8019,-0.7815,-0.7868,-0.8032,-0.8146,-0.8037,-0.767,-0.745,-0.7456,-0.7563,-0.7723,-0.7883,-0.7503,-0.6838,-0.6348,-0.5986,-0.5538,-0.4787,-0.4463,-0.3123,-0.0,-0.0,-0.0,-0.0,0.179,0.3479,0.4406,0.4674,0.4714,0.4868,0.4924,0.5044,0.601,0.6736,0.7345,0.8075,0.8673,0.9349,1.0283,1.1305,1.2088,1.2926,1.3502,1.3974,1.5215,1.5972,1.59,1.6049,1.6417,1.637,1.6428,1.6105,1.5067,1.3613,1.2444,1.1495,1.0685,0.9286,0.8385,0.7868,0.7516,0.7064,0.6843,0.6602,0.6345,0.6295,0.6352,0.6366,0.639,0.6342,0.6339,0.6329,0.6335,0.639,0.6471,0.6505,0.6582,0.6642,0.6711,0.6848,0.5366,0.1596,-0.1154,-0.3664,-0.4919,-0.6637,-0.7173,-0.7514,-0.7595,-0.776,-0.7404,-0.7312,-0.7834,-0.8097,-0.7661,-0.8116,-0.9556,-1.0942,-1.228,-1.3501,-1.4651,-1.4098,-1.371,-1.3238,-1.2625,-1.1508,-1.1089,-1.1041,-1.0753,-1.0582,-1.0534,-1.0108,-0.9518,-0.8837,-0.8496,-0.8095,-0.7734,-0.7869,-0.7944,-0.7858,-0.7723,-0.7706,-0.767,-0.783,-0.7889,-0.8209,-0.8262,-0.799,-0.7331,-0.646,-0.5882,-0.537,-0.4787,-0.4577,-0.3516,-0.184,-0.0,-0.0,-0.0,-0.0,0.1552,0.3705,0.4284,0.3792,0.3803,0.4351,0.4892,0.5339,0.5811,0.6282,0.688,0.7344,0.7797,0.8581,0.933,1.0197,1.1051,1.1784,1.2492,1.3872,1.4807,1.5778,1.6011,1.6175,1.5961,1.5503,1.4411,1.3259,1.2164,1.1137,0.9422,0.8832,0.8084,0.7249,0.6817,0.6702,0.6663,0.6445,0.6424,0.6441,0.6498,0.6563,0.6559,0.6552,0.6481,0.642,0.641,0.6417,0.6485,0.6481,0.6602,0.6033,0.592,0.5109,0.5092,0.1424,-0.2751,-0.4912,-0.7121,-0.7101,-0.717,-0.812,-0.8372,-0.8364,-0.8619,-0.8877,-0.9052,-0.9222,-0.9052,-0.8619,-0.9253,-1.042,-1.1908,-1.333,-1.4153,-1.4491,-1.3861,-1.3411,-1.2902,-1.2245,-1.0872,-1.0479,-1.0705,-1.0477,-1.0322,-1.0273,-1.0118,-0.9677,-0.9016,-0.8617,-0.8415,-0.8028,-0.8044,-0.7933,-0.7979,-0.8022,-0.7984,-0.8049,-0.8103,-0.8321,-0.854,-0.8103,-0.7616,-0.7176,-0.6058,-0.5471,-0.5105,-0.4732,-0.4522,-0.4018,-0.2623,-0.0952,-0.0,-0.0,-0.0,-0.0,0.1849,0.3879,0.3599,0.4055,0.443,0.5034,0.5356,0.5319,0.5639,0.5943,0.6268,0.6658,0.7107,0.7807,0.8656,0.9554,1.0586,1.1446,1.2897,1.4023,1.5123,1.5396,1.5531,1.532,1.445,1.3578,1.1944,1.092,0.9664,0.7936,0.7629,0.7326,0.6644,0.6652,0.6544,0.6607,0.6485,0.6566,0.663,0.6668,0.6671,0.6695,0.6681,0.6658,0.659,0.6552,0.6569,0.6542,0.6625,0.6561,0.5883,0.491,0.3807,0.2506,-0.0712,-0.3739,-0.5445,-0.7101,-0.7088,-0.7422,-0.8372,-0.889,-0.8803,-0.9231,-1.0269,-1.0524,-1.0433,-1.0091,-0.9575,-1.0554,-1.1527,-1.2514,-1.384,-1.4109,-1.4278,-1.3874,-1.3382,-1.2804,-1.2084,-1.0839,-1.0348,-1.039,-1.0322,-1.0322,-1.0244,-0.9834,-0.9597,-0.9318,-0.8846,-0.8608,-0.8536,-0.8456,-0.8464,-0.8586,-0.8495,-0.8692,-0.8699,-0.8646,-0.8593,-0.8593,-0.7943,-0.7182,-0.6691,-0.5747,-0.5156,-0.4783,-0.457,-0.4463,-0.4463,-0.4473,-0.2839,-0.0,-0.0,-0.0,-0.0,-0.0,0.2003,0.3771,0.4772,0.5097,0.5287,0.5315,0.5332,0.5481,0.5491,0.5686,0.5752,0.6334,0.678,0.6976,0.8618,0.9548,0.9952,1.2373,1.3616,1.4421,1.4673,1.4579,1.4094,1.3528,1.2705,1.1069,1.004,0.8993,0.7859,0.7022,0.6563,0.639,0.6472,0.6495,0.6559,0.6634,0.6722,0.6814,0.6759,0.6722,0.677,0.6803,0.6814,0.6776,0.6715,0.6729,0.6703,0.6398,0.6313,0.3664,0.2211,-0.0177,-0.1698,-0.2588,-0.4645,-0.6269,-0.717,-0.7248,-0.7764,-0.8715,-0.9061,-0.9061,-1.0274,-1.1649,-1.1649,-1.1472,-1.1391,-1.1305,-1.1729,-1.2613,-1.3502,-1.4077,-1.4329,-1.4084,-1.3438,-1.3247,-1.2722,-1.1819,-1.0771,-1.0321,-1.0322,-1.0322,-1.0322,-1.0283,-1.0088,-0.9804,-0.9515,-0.9468,-0.9181,-0.8756,-0.9041,-0.912,-0.8778,-0.8804,-0.8804,-0.8804,-0.8804,-0.8752,-0.8427,-0.7723,-0.6972,-0.6588,-0.5542,-0.4889,-0.4515,-0.4532,-0.4463,-0.4553,-0.4548,-0.3903,-0.2882,-0.0,-0.0,-0.0,-0.0,0.1158,0.3499,0.4701,0.5394,0.5432,0.5428,0.5428,0.5428,0.5428,0.5428,0.5428,0.5881,0.5885,0.6047,0.7319,0.8236,0.8881,1.0492,1.1834,1.3006,1.3686,1.3581,1.3665,1.3018,1.1755,1.0335,0.9518,0.8389,0.7099,0.6641,0.6359,0.6469,0.6491,0.6624,0.6715,0.68,0.6888,0.6987,0.6993,0.6966,0.6987,0.6963,0.6959,0.687,0.682,0.6943,0.6914,0.6082,0.5407,0.123,-0.1601,-0.4291,-0.6109,-0.546,-0.5361,-0.6536,-0.7337,-0.7499,-0.8189,-0.8969,-0.9918,-1.0438,-1.1735,-1.2948,-1.2778,-1.2772,-1.3124,-1.33,-1.3203,-1.3203,-1.3743,-1.4102,-1.4148,-1.3756,-1.3002,-1.3127,-1.2878,-1.2178,-1.112,-1.0525,-1.0361,-1.0322,-1.0322,-1.0322,-1.0283,-1.0118,-0.9916,-0.9884,-0.9743,-0.9028,-0.9178,-0.917,-0.8823,-0.8804,-0.8804,-0.8804,-0.8752,-0.8586,-0.8209,-0.7343,-0.6534,-0.615,-0.5062,-0.457,-0.4525,-0.457,-0.4611,-0.4642,-0.4646,-0.4731,-0.4022,-0.0,-0.0,-0.0,-0.0,-0.0,0.2732,0.4225,0.5386,0.5435,0.5428,0.5428,0.5428,0.5428,0.5428,0.5428,0.5428,0.5386,0.5723,0.6537,0.7691,0.8783,0.9224,1.057,1.1704,1.2111,1.2184,1.2117,1.1459,1.0415,0.9367,0.8917,0.7936,0.6718,0.6338,0.6332,0.6437,0.658,0.6709,0.6841,0.6926,0.7,0.7105,0.7136,0.7143,0.7061,0.7054,0.7024,0.7017,0.7011,0.6779,0.6257,0.4599,0.2893,-0.1061,-0.384,-0.5644,-0.6821,-0.6716,-0.671,-0.7071,-0.7326,-0.758,-0.8273,-0.8965,-1.0346,-1.1724,-1.2687,-1.3392,-1.3822,-1.3997,-1.3828,-1.3828,-1.3822,-1.3906,-1.4088,-1.4088,-1.4088,-1.3365,-1.2627,-1.3009,-1.3215,-1.2961,-1.1804,-1.093,-1.0361,-1.0322,-1.0322,-1.0322,-1.0322,-1.0244,-1.0244,-1.005,-0.9787,-0.9528,-0.9364,-0.9112,-0.8888,-0.8804,-0.8804,-0.8752,-0.8646,-0.8321,-0.767,-0.6907,-0.6091,-0.5546,-0.489,-0.456,-0.4528,-0.464,-0.4684,-0.4711,-0.4765,-0.49,-0.4706,-0.4454,-0.2929,-0.0,-0.0,0.0735,0.2348,0.403,0.5183,0.5376,0.5432,0.5432,0.5432,0.5428,0.5428,0.5428,0.5428,0.5457,0.5894,0.6789,0.7729,0.852,0.868,0.8836,0.9437,0.9362,0.9291,0.9669,0.997,0.9291,0.8613,0.8084,0.7326,0.6567,0.6464,0.6359,0.6495,0.6641,0.6783,0.6929,0.7021,0.7088,0.7139,0.7143,0.7061,0.6982,0.6989,0.5808,0.4991,0.4535,0.4184,0.3121,0.0534,-0.1329,-0.4001,-0.6189,-0.6539,-0.7078,-0.7068,-0.7153,-0.7149,-0.7149,-0.7404,-0.8097,-0.8965,-1.026,-1.1558,-1.3039,-1.3828,-1.3997,-1.4088,-1.4088,-1.4088,-1.4088,-1.4088,-1.4088,-1.4088,-1.4088,-1.3535,-1.3025,-1.3144,-1.3198,-1.3071,-1.2099,-1.1324,-1.0802,-1.0467,-1.0322,-1.0322,-1.0322,-1.0322,-1.0322,-1.0519,-1.0099,-0.9848,-0.9644,-0.9307,-0.9054,-0.8804,-0.8804,-0.8646,-0.8321,-0.7943,-0.7337,-0.6578,-0.5764,-0.5415,-0.4874,-0.4636,-0.4636,-0.4789,-0.478,-0.4833,-0.49,-0.503,-0.5108,-0.5178,-0.4452,-0.288,-0.1211,-0.0,-0.0,-0.0,0.4712,0.5316,0.5236,0.5236,0.5376,0.5365,0.5428,0.5428,0.5439,0.545,0.5725,0.6215,0.6686,0.7057,0.7173,0.7326,0.7403,0.7326,0.8161,0.877,0.9003,0.8623,0.8012,0.7557,0.7022,0.6602,0.6421,0.6437,0.6583,0.6732,0.6878,0.701,0.7075,0.7139,0.7149,0.7153,0.7078,0.6999,0.5003,0.3835,0.2674,0.1782,0.1248,0.0268,-0.2321,-0.3933,-0.6465,-0.7094,-0.7078,-0.7068,-0.7146,-0.7143,-0.7139,-0.7139,-0.7404,-0.8189,-0.9052,-1.0178,-1.1563,-1.3215,-1.3828,-1.4088,-1.4088,-1.4088,-1.4088,-1.4088,-1.4088,-1.4088,-1.4088,-1.4088,-1.3501,-1.2978,-1.3129,-1.3226,-1.3043,-1.2219,-1.1601,-1.1244,-1.0621,-1.0322,-1.0322,-1.0322,-1.0322,-1.0352,-1.0641,-1.0453,-0.969,-0.9882,-0.965,-0.8947,-0.8804,-0.8804,-0.854,-0.8049,-0.7563,-0.6961,-0.6195,-0.5437,-0.5163,-0.4947,-0.4714,-0.4766,-0.4938,-0.4934,-0.4991,-0.5142,-0.5226,-0.5277,-0.5338,-0.5393,-0.3979,-0.0,-0.0,-0.0,-0.0,0.3696,0.4986,0.484,0.4634,0.5183,0.5376,0.5372,0.5413,0.5471,0.557,0.5828,0.6061,0.6249,0.6493,0.6419,0.6342,0.6264,0.6345,0.6913,0.7533,0.7769,0.7508,0.7176,0.7099,0.6961,0.6631,0.639,0.6536,0.6681,0.6831,0.698,0.7058,0.7122,0.7146,0.7068,0.7081,0.7094,0.6005,0.366,0.098,-0.1516,-0.2856,-0.321,-0.366,-0.4828,-0.5641,-0.6821,-0.7081,-0.7153,-0.7146,-0.7139,-0.7139,-0.7139,-0.7139,-0.7489,-0.8277,-0.9488,-1.0783,-1.2169,-1.3561,-1.3913,-1.4088,-1.4088,-1.4088,-1.4088,-1.4088,-1.4088,-1.4088,-1.4088,-1.4088,-1.3433,-1.2673,-1.3025,-1.3176,-1.3035,-1.2271,-1.1902,-1.17,-1.0812,-1.0351,-1.04,-1.0351,-1.0428,-1.0498,-1.0675,-1.0395,-0.9928,-0.9919,-0.9577,-0.8823,-0.8804,-0.8752,-0.8315,-0.7943,-0.7128,-0.647,-0.5773,-0.5081,-0.4752,-0.4657,-0.4819,-0.4938,-0.5084,-0.5162,-0.5135,-0.5284,-0.5348,-0.5376,-0.5189,-0.5075,-0.3777,-0.0,-0.0,-0.0,-0.0,0.1407,0.3424,0.383,0.3288,0.4517,0.5122,0.4982,0.543,0.5072,0.527,0.5346,0.5313,0.5449,0.5482,0.5485,0.5957,0.6119,0.6362,0.6585,0.6924,0.7009,0.681,0.6761,0.6772,0.6702,0.651,0.6474,0.6617,0.6763,0.6912,0.7031,0.7109,0.6972,0.6621,0.6719,0.6824,0.6471,0.3842,0.1426,-0.205,-0.5473,-0.6379,-0.6367,-0.6539,-0.6903,-0.6992,-0.7081,-0.7071,-0.7146,-0.7143,-0.7139,-0.7139,-0.7139,-0.7139,-0.7489,-0.8189,-0.9749,-1.1477,-1.2516,-1.347,-1.3913,-1.4088,-1.4088,-1.4088,-1.4088,-1.4088,-1.4088,-1.4088,-1.4088,-1.4088,-1.3769,-1.3535,-1.3323,-1.3012,-1.2733,-1.2817,-1.2424,-1.1774,-1.1132,-1.0878,-1.0829,-1.084,-1.0802,-1.0738,-1.0567,-1.0266,-0.9943,-0.9804,-0.9323,-0.8938,-0.8776,-0.8368,-0.7812,-0.7283,-0.6578,-0.5819,-0.5183,-0.48,-0.47,-0.4785,-0.4938,-0.5094,-0.523,-0.5301,-0.5321,-0.5396,-0.5343,-0.4742,-0.5225,-0.4123,-0.2223,-0.0,-0.0,-0.0,-0.0,-0.0,-0.0,-0.0,-0.0,0.2958,0.3244,0.4011,0.528,0.4151,0.3528,0.3469,0.3712,0.3824,0.3834,0.399,0.4382,0.5686,0.6198,0.6424,0.6503,0.64,0.6373,0.6424,0.6448,0.6452,0.6427,0.6566,0.6698,0.6848,0.69,0.6987,0.7071,0.6627,0.6269,0.6373,0.6477,0.4028,0.1338,-0.1427,-0.4926,-0.6468,-0.6824,-0.6903,-0.6887,-0.7061,-0.7064,-0.7153,-0.7149,-0.7143,-0.7139,-0.7139,-0.7139,-0.7228,-0.7316,-0.7753,-0.8364,-1.0178,-1.1986,-1.251,-1.3209,-1.373,-1.4088,-1.4088,-1.4088,-1.4088,-1.4088,-1.4088,-1.4088,-1.4088,-1.4088,-1.4214,-1.3868,-1.3391,-1.3047,-1.2885,-1.3089,-1.2877,-1.2375,-1.187,-1.1531,-1.1282,-1.0954,-1.0687,-1.0758,-1.0577,-1.0349,-1.0022,-0.9872,-0.9411,-0.9001,-0.8691,-0.8178,-0.7551,-0.6848,-0.6249,-0.5546,-0.4912,-0.4611,-0.4762,-0.487,-0.5003,-0.5213,-0.5348,-0.5252,-0.5272,-0.5279,-0.4462,-0.3042,-0.4543,-0.4059,-0.1818,-0.0,-0.0,-0.0,-0.0,-0.0,-0.0,-0.0,-0.0,0.1243,0.1501,0.1757,0.2949,0.3687,0.3001,0.2064,0.1632,-0.0,-0.0,-0.0,-0.0,-0.0,0.6016,0.616,0.6678,0.6599,0.6512,0.6542,0.6441,0.643,0.6502,0.6642,0.6729,0.6764,0.6695,0.6694,0.6545,0.61,0.6198,0.6573,0.4123,-0.1609,-0.3578,-0.3929,-0.6735,-0.6729,-0.7084,-0.7074,-0.7146,-0.7139,-0.7139,-0.7139,-0.7139,-0.7139,-0.7139,-0.7139,-0.7139,-0.7228,-0.7404,-0.8882,-1.0005,-1.1209,-1.2413,-1.3027,-1.3555,-1.3822,-1.4088,-1.4062,-1.4082,-1.4088,-1.4088,-1.4088,-1.4088,-1.4088,-1.4088,-1.4501,-1.3769,-1.3357,-1.321,-1.321,-1.321,-1.3169,-1.308,-1.2615,-1.2138,-1.1627,-1.0725,-1.0351,-1.041,-1.0514,-1.0419,-1.0202,-0.9727,-0.9267,-0.8999,-0.8817,-0.8037,-0.7391,-0.6799,-0.6091,-0.5407,-0.4779,-0.4735,-0.4887,-0.4969,-0.5101,-0.5325,-0.5109,-0.4913,-0.4788,-0.4456,-0.3372,-0.3103,-0.3986,-0.5209,-0.3912,-0.0,-0.0,-0.0,-0.0,-0.0,-0.0,-0.0,-0.0,-0.0,-0.0,-0.0,-0.0,0.2405,0.1986,-0.0,-0.0,-0.0,-0.0,-0.0,-0.0,-0.0,-0.0,0.5831,0.6099,0.6656,0.6649,0.6705,0.6603,0.659,0.6659,0.6238,0.6313,0.6303,0.6216,0.6192,0.5925,0.4661,0.4214,0.4759,0.0447,-0.5757,-0.6659,-0.7009,-0.7088,-0.7081,-0.7071,-0.7149,-0.7139,-0.7139,-0.7139,-0.7139,-0.7139,-0.7139,-0.7139,-0.7139,-0.7139,-0.7401,-0.7925,-0.9826,-1.1558,-1.2419,-1.3118,-1.3646,-1.4088,-1.4088,-1.4041,-1.3995,-1.4028,-1.4055,-1.3961,-1.3941,-1.4088,-1.4088,-1.4088,-1.4117,-1.3323,-1.3245,-1.321,-1.321,-1.321,-1.3223,-1.3062,-1.2269,-1.1847,-1.1553,-1.0802,-1.0264,-1.0205,-0.9841,-0.978,-0.9953,-0.9525,-0.9137,-0.8811,-0.8665,-0.7871,-0.7015,-0.6367,-0.5719,-0.5167,-0.4695,-0.481,-0.4945,-0.5047,-0.5176,-0.5365,-0.3818,-0.2813,-0.1341,-0.1544,-0.2423,-0.2963,-0.418,-0.5406,-0.4919,-0.3288,-0.1541,-0.0,-0.0,-0.0,-0.0,-0.0,-0.0,-0.0,-0.0,-0.0,-0.0,-0.0,-0.0,-0.0,-0.0,-0.0,-0.0,-0.0,-0.0,-0.0,-0.0,0.343,0.4504,0.6389,0.6494,0.6907,0.682,0.6726,0.6465,0.5099,0.4711,0.4858,0.4835,0.5114,0.5121,0.0447,-0.3045,-0.2325,-0.304,-0.6106,-0.6917,-0.7084,-0.7078,-0.7068,-0.7149,-0.7139,-0.7139,-0.7139,-0.7139,-0.7139,-0.7139,-0.7139,-0.7139,-0.7139,-0.7139,-0.7489,-0.8273,-1.0173,-1.1735,-1.3124,-1.3822,-1.3997,-1.4088,-1.4088,-1.4028,-1.3988,-1.3941,-1.3941,-1.3788,-1.3768,-1.3948,-1.4048,-1.4021]},{"header":{"parameterUnit":"m.s-1","parameterCategory":1,"la1":31.0,"la2":29.5877,"lo1":-88.7671,"lo2":-86.6584,"dy":0.0162,"dx":0.0185,"nx":115,"ny":88,"refTime":"2025-12-11T12:00:00:Z","depth":0,"parameterNumber":3,"parameterNumberName":"V-component_of_WINDS"},"data":[0.0,0.0,0.0,0.0,0.0,0.0,0.0,0.0,0.0,0.0,0.0,0.0,0.0,0.0,0.0,0.0,0.0,0.0,0.0,0.0,0.0,0.0,0.0,0.0,0.0,0.0,0.0,0.0,0.0,0.0,0.0,0.0,0.0,0.0,0.0,0.0,0.0,0.0,0.0,0.0,0.0,0.0,0.0,0.0,0.0,0.0,0.0,0.0,0.0,0.0,0.0,0.0,0.0,0.0,0.0,0.0,0.0,0.0,0.0,0.0,0.0,0.0,0.0,0.0,0.0,0.0,0.0,0.0,0.0,0.0,0.0,0.0,0.0,0.0,0.0,0.0,0.0,0.0,0.0,0.0,0.0,0.0,0.0,0.0,0.0,0.0,0.0,0.0,0.0,0.0,0.0,0.0,0.0,0.0,0.0,0.0,0.0,0.0,0.0,0.0,0.0,0.0,0.0,0.0,0.0,0.0,0.0,0.0,0.0,0.0,0.0,0.0,0.0,0.0,0.0,0.0,0.0,0.0,0.0,0.0,0.0,0.0,0.0,0.0,0.0,0.0,0.0,0.0,0.0,0.0,0.0,0.0,0.0,0.0,0.0,0.0,0.0,0.0,0.0,0.0,0.0,0.0,0.0,0.0,0.0,0.0,0.0,0.0,0.0,0.0,0.0,0.0,0.0,0.0,0.0,0.0,0.0,0.0,0.0,0.0,0.0,0.0,0.0,0.0,0.0,0.0,0.0,0.0,0.0,0.0,0.0,0.0,0.0,0.0,0.0,0.0,0.0,0.0,0.0,0.0,0.0,0.0,0.0,0.0,0.0,0.0,0.0,0.0,0.0,0.0,0.0,0.0,0.0,0.0,0.0,0.0,0.0,0.0,0.0,0.0,0.0,0.0,0.0,0.0,0.0,0.0,0.0,0.0,0.0,0.0,0.0,0.0,0.0,0.0,0.0,0.0,0.0,0.0,0.0,0.0,0.0,0.0,0.0,0.0,0.0,0.0,0.0,0.0,0.0,0.0,0.0,0.0,0.0,0.0,0.0,0.0,0.0,0.0,0.0,0.0,0.0,0.0,0.0,0.0,0.0,0.0,0.0,0.0,0.0,0.0,0.0,0.0,0.0,0.0,0.0,0.0,0.0,0.0,0.0,0.0,0.0,0.0,0.0,0.0,0.0,0.0,0.0,0.0,0.0,0.0,0.0,0.0,0.0,0.0,0.0,0.0,0.0,0.0,0.0,0.0,0.0,0.0,0.0,0.0,0.0,0.0,0.0,0.0,0.0,0.0,0.0,0.0,0.0,0.0,0.0,0.0,0.0,0.0,0.0,0.0,0.0,0.0,0.0,0.0,0.0,0.0,0.0,0.0,0.0,0.0,0.0,0.0,0.0,0.0,0.0,0.0,0.0,0.0,0.0,0.0,0.0,0.0,0.0,0.0,0.0,0.0,0.0,0.0,0.0,0.0,0.0,0.0,0.0,0.0,0.0,0.0,0.0,0.0,0.0,0.0,0.0,0.0,0.0,0.0,0.0,0.0,0.0,0.0,0.0,0.0,0.0,0.0,0.0,0.0,0.0,0.0,0.0,0.0,0.0,0.0,0.0,0.0,0.0,0.0,0.0,0.0,0.0,0.0,0.0,0.0,0.0,0.0,0.0,0.0,0.0,0.0,0.0,0.0,0.0,0.0,0.0,0.0,0.0,0.0,0.0,0.0,0.0,0.0,0.0,0.0,0.0,0.0,0.0,0.0,0.0,0.0,0.0,0.0,0.0,0.0,0.0,0.0,0.0,0.0,0.0,0.0,0.0,0.0,0.0,0.0,0.0,0.0,0.0,0.0,0.0,0.0,0.0,0.0,0.0,0.0,0.0,0.0,0.0,0.0,0.0,0.0,0.0,0.0,0.0,0.0,0.0,0.0,0.0,0.0,0.0,0.0,0.0,0.0,0.0,0.0,0.0,0.0,0.0,0.0,0.0,0.0,0.0,0.0,0.0,0.0,0.0,0.0,0.0,0.0,0.0,0.0,0.0,0.0,0.0,0.0,0.0,0.0,0.0,0.0,0.0,0.0,0.0,0.0,0.0,0.0,0.0,0.0,0.0,0.0,0.0,0.0,0.0,0.0,0.0,0.0,0.0,0.0,0.0,0.0,0.0,0.0,0.0,0.0,0.0,0.0,0.0,0.0,0.0,0.0,0.0,0.0,0.0,0.0,0.0,0.0,0.0,0.0,0.0,0.0,0.0,0.0,0.0,0.0,0.0,0.0,0.0,0.0,0.0,0.0,0.0,0.0,0.0,0.0,0.0,0.0,0.0,0.0,0.0,0.0,0.0,0.0,0.0,0.0,0.0,0.0,0.0,0.0,0.0,0.0,0.0,0.0,0.0,0.0,0.0,0.0,0.0,0.0,0.0,0.0,0.0,0.0,0.0,0.0,0.0,0.0,0.0,0.0,0.0,0.0,0.0,0.0,0.0,0.0,0.0,0.0,0.0,0.0,0.0,0.0,0.0,0.0,0.0,0.0,0.0,0.0,0.0,0.0,0.0,0.0,0.0,0.0,0.0,0.0,0.0,0.0,0.0,0.0,0.0,0.0,0.0,0.0,0.0,0.0,0.0,0.0,0.0,0.0,0.0,0.0,0.0,0.0,0.0,0.0,0.0,0.0,0.0,0.0,0.0,0.0,0.0,0.0,0.0,0.0,0.0,0.0,0.0,0.0,0.0,0.0,0.0,0.0,0.0,0.0,0.0,0.0,0.0,0.0,0.0,0.0,0.0,0.0,0.0,0.0,0.0,0.0,0.0,0.0,0.0,0.0,0.0,0.0,0.0,0.0,0.0,0.0,0.0,0.0,0.0,0.0,0.0,0.0,0.0,0.0,0.0,0.0,0.0,0.0,0.0,0.0,0.0,0.0,0.0,0.0,0.0,0.0,0.0,0.0,0.0,0.0,0.0,0.0,0.0,0.0,0.0,0.0,0.0,0.0,0.0,0.0,0.0,0.0,0.0,0.0,0.0,0.0,0.0,0.0,0.0,0.0,0.0,0.0,0.0,0.0,0.0,0.0,0.0,0.0,0.0,0.0,0.0,0.0,0.0,0.0,0.0,0.0,0.0,0.0,0.0,0.0,0.0,0.0,0.0,0.0,0.0,0.0,0.0,0.0,0.0,0.0,0.0,0.0,0.0,0.0,0.0,0.0,0.0,0.0,0.0,0.0,0.0,0.0,0.0,0.0,0.0,0.0,0.0,0.0,0.0,0.0,0.0,0.0,0.0,0.0,0.0,0.0,0.0,0.0,0.0,0.0,0.0,0.0,0.0,0.0,0.0,0.0,0.0,0.0,0.0,0.0,0.0,0.0,0.0,0.0,0.0,0.0,0.0,0.0,0.0,0.0,0.0,0.0,0.0,0.0,0.0,0.0,0.0,0.0,0.0,0.0,0.0,0.0,0.0,0.0,0.0,0.0,0.0,0.0,0.0,0.0,0.0,0.0,0.0,0.0,0.0,0.0,0.0,0.0,0.0,0.0,0.0,0.0,0.0,0.0,0.0,0.0,0.0,0.0,0.0,0.0,0.0,0.0,0.0,0.0,0.0,0.0,0.0,0.0,0.0,0.0,0.0,0.0,0.0,0.0,0.0,0.0,0.0,0.0,0.0,0.0,0.0,0.0,0.0,0.0,0.0,0.0,0.0,0.0,0.0,0.0,0.0,0.0,0.0,0.0,0.0,0.0,0.0,0.0,0.0,0.0,0.0,0.0,0.0,0.0,0.0,0.0,0.0,0.0,0.0,0.0,0.0,0.0,0.0,0.0,0.0,0.0,0.0,0.0,0.0,0.0,0.0,0.0,0.0,0.0,0.0,0.0,0.0,0.0,0.0,0.0,0.0,0.0,0.0,0.0,0.0,0.0,0.0,0.0,0.0,0.0,0.0,0.0,0.0,0.0,0.0,0.0,0.0,0.0,0.0,0.0,0.0,0.0,0.0,0.0,0.0,0.0,0.0,0.0,0.0,0.0,0.0,0.0,0.0,0.0,0.0,0.0,0.0,0.0,0.0,0.0,0.0,0.0,0.0,0.0,0.0,0.0,0.0,0.0,0.0,0.0,0.0,0.0,0.0,0.0,0.0,0.0,0.0,0.0,0.0,0.0,0.0,0.0,0.0,0.0,0.0,0.0,0.0,0.0,0.0,0.0,0.0,0.0,0.0,0.0,0.0,0.0,0.0,0.0,0.0,0.0,0.0,0.0,0.0,0.0,0.0,0.0,0.0,0.0,0.0,0.0,0.0,0.0,-2.7657,0.0,0.0,0.0,0.0,0.0,0.0,0.0,0.0,0.0,0.0,0.0,0.0,0.0,0.0,0.0,0.0,0.0,0.0,0.0,0.0,0.0,0.0,0.0,0.0,0.0,0.0,0.0,0.0,0.0,0.0,0.0,0.0,0.0,0.0,0.0,0.0,0.0,0.0,0.0,0.0,0.0,0.0,0.0,0.0,0.0,0.0,0.0,0.0,0.0,0.0,0.0,0.0,0.0,0.0,0.0,0.0,0.0,0.0,0.0,0.0,0.0,0.0,0.0,0.0,0.0,0.0,0.0,0.0,0.0,0.0,0.0,0.0,0.0,0.0,0.0,0.0,0.0,0.0,0.0,0.0,0.0,0.0,0.0,0.0,0.0,0.0,0.0,0.0,0.0,0.0,0.0,0.0,0.0,0.0,0.0,0.0,0.0,0.0,0.0,0.0,0.0,0.0,0.0,0.0,0.0,0.0,0.0,0.0,0.0,0.0,-2.9421,-2.8018,-2.8348,-2.7811,-2.62,0.0,0.0,0.0,0.0,0.0,0.0,0.0,0.0,0.0,0.0,0.0,0.0,0.0,0.0,0.0,0.0,0.0,0.0,0.0,0.0,0.0,0.0,0.0,0.0,0.0,0.0,0.0,0.0,0.0,0.0,0.0,0.0,0.0,0.0,0.0,0.0,0.0,0.0,0.0,0.0,0.0,0.0,0.0,0.0,0.0,0.0,0.0,0.0,0.0,0.0,0.0,0.0,0.0,0.0,0.0,0.0,0.0,0.0,0.0,0.0,0.0,0.0,0.0,0.0,0.0,0.0,0.0,0.0,0.0,0.0,0.0,0.0,0.0,0.0,0.0,0.0,0.0,0.0,0.0,0.0,0.0,0.0,0.0,0.0,0.0,0.0,0.0,0.0,0.0,0.0,0.0,0.0,0.0,0.0,0.0,0.0,0.0,0.0,0.0,0.0,0.0,0.0,0.0,0.0,0.0,0.0,0.0,0.0,0.0,0.0,0.0,0.0,-2.7794,-2.6978,-2.4913,0.0,0.0,0.0,0.0,0.0,0.0,0.0,0.0,0.0,0.0,0.0,0.0,0.0,0.0,0.0,0.0,0.0,0.0,0.0,0.0,0.0,0.0,0.0,0.0,0.0,0.0,0.0,0.0,0.0,0.0,0.0,0.0,0.0,0.0,0.0,0.0,0.0,0.0,0.0,0.0,0.0,0.0,0.0,0.0,0.0,0.0,0.0,0.0,0.0,0.0,0.0,0.0,0.0,0.0,0.0,0.0,0.0,0.0,0.0,0.0,0.0,0.0,0.0,0.0,0.0,0.0,0.0,0.0,0.0,0.0,0.0,0.0,0.0,0.0,0.0,0.0,0.0,0.0,0.0,0.0,0.0,0.0,0.0,0.0,0.0,0.0,0.0,0.0,0.0,0.0,0.0,0.0,0.0,0.0,0.0,0.0,0.0,0.0,0.0,0.0,0.0,0.0,0.0,0.0,0.0,0.0,0.0,0.0,0.0,0.0,-2.7585,-2.8097,-2.7591,0.0,-2.4883,0.0,0.0,0.0,0.0,0.0,0.0,0.0,0.0,0.0,0.0,0.0,0.0,0.0,0.0,0.0,0.0,0.0,0.0,0.0,0.0,0.0,0.0,0.0,0.0,0.0,0.0,0.0,0.0,0.0,0.0,0.0,0.0,0.0,0.0,0.0,0.0,0.0,0.0,0.0,0.0,0.0,0.0,0.0,0.0,0.0,0.0,0.0,0.0,0.0,0.0,0.0,0.0,0.0,0.0,0.0,0.0,0.0,0.0,0.0,0.0,0.0,0.0,0.0,0.0,0.0,0.0,0.0,0.0,0.0,0.0,0.0,0.0,0.0,0.0,0.0,0.0,0.0,0.0,0.0,0.0,0.0,0.0,0.0,0.0,0.0,0.0,0.0,0.0,0.0,0.0,0.0,0.0,0.0,0.0,0.0,0.0,0.0,0.0,0.0,0.0,0.0,0.0,0.0,0.0,0.0,0.0,0.0,0.0,0.0,0.0,0.0,-2.6564,-2.5704,-2.4972,0.0,0.0,0.0,0.0,0.0,0.0,0.0,0.0,0.0,0.0,0.0,0.0,0.0,0.0,0.0,0.0,0.0,0.0,0.0,0.0,0.0,0.0,0.0,0.0,0.0,0.0,0.0,0.0,0.0,0.0,0.0,0.0,0.0,0.0,0.0,0.0,0.0,0.0,0.0,0.0,0.0,0.0,0.0,0.0,0.0,0.0,0.0,0.0,0.0,0.0,0.0,0.0,0.0,0.0,0.0,0.0,0.0,0.0,0.0,0.0,0.0,0.0,0.0,0.0,0.0,0.0,0.0,0.0,0.0,0.0,0.0,0.0,0.0,0.0,0.0,0.0,0.0,0.0,0.0,0.0,0.0,0.0,0.0,0.0,0.0,0.0,0.0,0.0,0.0,0.0,0.0,0.0,0.0,0.0,0.0,0.0,0.0,0.0,0.0,0.0,0.0,0.0,0.0,0.0,0.0,0.0,0.0,0.0,0.0,0.0,-2.6678,0.0,-2.4546,-2.423,-2.3883,-2.3456,0.0,0.0,0.0,0.0,0.0,0.0,0.0,0.0,0.0,0.0,0.0,0.0,0.0,0.0,0.0,0.0,0.0,0.0,0.0,0.0,0.0,0.0,0.0,0.0,0.0,0.0,0.0,0.0,0.0,0.0,0.0,0.0,0.0,0.0,0.0,0.0,0.0,0.0,0.0,0.0,0.0,0.0,0.0,0.0,0.0,0.0,0.0,0.0,0.0,0.0,0.0,0.0,0.0,0.0,0.0,0.0,0.0,0.0,0.0,0.0,0.0,0.0,0.0,0.0,0.0,0.0,0.0,0.0,0.0,0.0,0.0,0.0,0.0,0.0,0.0,0.0,0.0,0.0,0.0,0.0,0.0,0.0,0.0,0.0,0.0,0.0,0.0,0.0,0.0,0.0,0.0,0.0,0.0,0.0,0.0,0.0,0.0,0.0,0.0,0.0,0.0,0.0,0.0,0.0,0.0,0.0,0.0,0.0,0.0,-2.4528,-2.3157,-2.2217,-2.3688,-2.3873,0.0,0.0,0.0,0.0,0.0,0.0,0.0,0.0,0.0,0.0,0.0,0.0,0.0,0.0,0.0,0.0,0.0,0.0,0.0,0.0,0.0,0.0,0.0,0.0,0.0,0.0,0.0,0.0,0.0,0.0,0.0,0.0,0.0,0.0,0.0,0.0,0.0,0.0,0.0,0.0,0.0,0.0,0.0,0.0,0.0,0.0,0.0,0.0,0.0,0.0,0.0,0.0,0.0,0.0,0.0,0.0,0.0,0.0,0.0,0.0,0.0,0.0,0.0,0.0,0.0,0.0,0.0,0.0,0.0,0.0,0.0,0.0,0.0,0.0,0.0,0.0,0.0,0.0,0.0,0.0,0.0,0.0,0.0,0.0,0.0,0.0,0.0,0.0,0.0,0.0,0.0,0.0,0.0,0.0,0.0,0.0,0.0,0.0,0.0,0.0,0.0,0.0,0.0,0.0,0.0,0.0,0.0,0.0,0.0,-2.4015,-2.2399,-2.183,-2.2328,-2.2395,-2.2511,0.0,0.0,0.0,0.0,0.0,0.0,0.0,0.0,0.0,0.0,0.0,0.0,0.0,0.0,0.0,0.0,0.0,0.0,0.0,0.0,0.0,0.0,0.0,0.0,0.0,0.0,0.0,0.0,0.0,0.0,0.0,0.0,0.0,0.0,0.0,0.0,0.0,0.0,0.0,0.0,0.0,0.0,0.0,0.0,0.0,0.0,0.0,0.0,0.0,0.0,0.0,0.0,0.0,0.0,0.0,0.0,0.0,0.0,0.0,0.0,0.0,0.0,0.0,0.0,0.0,0.0,0.0,0.0,0.0,0.0,0.0,0.0,0.0,0.0,0.0,0.0,0.0,0.0,0.0,0.0,0.0,0.0,0.0,0.0,0.0,0.0,0.0,0.0,0.0,0.0,0.0,0.0,0.0,0.0,0.0,0.0,0.0,0.0,0.0,0.0,0.0,0.0,0.0,0.0,0.0,0.0,0.0,0.0,0.0,-2.098,0.0,-1.9315,0.0,-2.0341,-2.0768,0.0,0.0,0.0,0.0,0.0,0.0,0.0,0.0,0.0,0.0,0.0,0.0,0.0,0.0,0.0,0.0,0.0,0.0,0.0,0.0,0.0,0.0,0.0,0.0,0.0,0.0,0.0,0.0,0.0,0.0,0.0,0.0,0.0,0.0,0.0,0.0,0.0,0.0,0.0,0.0,0.0,0.0,0.0,0.0,0.0,0.0,0.0,0.0,0.0,0.0,0.0,0.0,0.0,0.0,0.0,0.0,0.0,0.0,0.0,0.0,0.0,0.0,0.0,0.0,0.0,0.0,0.0,0.0,0.0,0.0,0.0,0.0,0.0,0.0,0.0,0.0,0.0,0.0,0.0,0.0,0.0,0.0,0.0,0.0,0.0,0.0,0.0,0.0,0.0,0.0,0.0,0.0,0.0,0.0,0.0,0.0,0.0,0.0,0.0,0.0,0.0,0.0,0.0,0.0,0.0,0.0,0.0,0.0,-2.0494,-1.682,-1.5714,-1.5442,-1.5931,-1.7565,-1.8715,0.0,0.0,0.0,0.0,0.0,0.0,0.0,0.0,0.0,0.0,0.0,0.0,0.0,0.0,0.0,0.0,0.0,0.0,0.0,0.0,0.0,0.0,0.0,0.0,0.0,0.0,0.0,0.0,0.0,0.0,0.0,0.0,0.0,0.0,0.0,0.0,0.0,0.0,0.0,0.0,0.0,0.0,0.0,0.0,0.0,0.0,0.0,0.0,0.0,0.0,0.0,0.0,0.0,0.0,0.0,0.0,0.0,0.0,0.0,0.0,0.0,0.0,0.0,0.0,0.0,0.0,0.0,0.0,0.0,0.0,0.0,0.0,0.0,0.0,0.0,0.0,0.0,0.0,0.0,0.0,0.0,0.0,0.0,0.0,0.0,0.0,0.0,0.0,0.0,0.0,0.0,0.0,0.0,0.0,0.0,0.0,0.0,0.0,0.0,0.0,0.0,0.0,0.0,0.0,0.0,0.0,0.0,0.0,0.0,-1.2797,-1.2212,-1.2494,-1.3688,-1.5499,-1.7505,0.0,0.0,0.0,0.0,0.0,0.0,0.0,0.0,0.0,0.0,0.0,0.0,0.0,0.0,0.0,0.0,0.0,0.0,0.0,0.0,0.0,0.0,0.0,0.0,0.0,0.0,0.0,0.0,0.0,0.0,0.0,0.0,0.0,0.0,0.0,0.0,0.0,0.0,0.0,0.0,0.0,0.0,0.0,0.0,0.0,0.0,0.0,0.0,0.0,0.0,0.0,0.0,0.0,0.0,0.0,0.0,0.0,0.0,0.0,0.0,0.0,0.0,0.0,0.0,0.0,0.0,0.0,0.0,0.0,0.0,0.0,0.0,0.0,0.0,0.0,0.0,0.0,0.0,0.0,0.0,0.0,0.0,0.0,0.0,0.0,0.0,0.0,0.0,0.0,0.0,0.0,0.0,0.0,0.0,0.0,0.0,0.0,0.0,0.0,0.0,0.0,0.0,0.0,0.0,0.0,0.0,0.0,0.0,0.0,-0.74,-0.8081,-0.9377,-1.1138,-1.344,-1.6149,-1.927,0.0,0.0,0.0,0.0,0.0,0.0,0.0,0.0,0.0,0.0,0.0,0.0,0.0,0.0,0.0,0.0,0.0,0.0,0.0,0.0,0.0,0.0,0.0,0.0,0.0,0.0,0.0,0.0,0.0,0.0,0.0,0.0,0.0,0.0,0.0,0.0,0.0,0.0,0.0,0.0,0.0,0.0,0.0,0.0,0.0,0.0,0.0,0.0,0.0,0.0,0.0,0.0,0.0,0.0,0.0,0.0,0.0,0.0,0.0,0.0,0.0,0.0,0.0,0.0,0.0,0.0,0.0,0.0,0.0,0.0,0.0,0.0,0.0,0.0,0.0,0.0,0.0,0.0,0.0,0.0,0.0,0.0,0.0,0.0,0.0,0.0,0.0,0.0,0.0,0.0,0.0,0.0,0.0,0.0,0.0,0.0,0.0,0.0,0.0,0.0,0.0,0.0,0.0,0.0,0.0,0.0,0.0,0.0,-0.1028,-0.3554,-0.6002,-0.846,-1.1374,-1.4646,0.0,0.0,0.0,0.0,0.0,0.0,0.0,0.0,0.0,0.0,0.0,0.0,0.0,0.0,0.0,0.0,0.0,0.0,0.0,0.0,0.0,0.0,0.0,0.0,0.0,0.0,0.0,0.0,0.0,0.0,0.0,0.0,0.0,0.0,0.0,0.0,0.0,0.0,0.0,0.0,0.0,0.0,0.0,0.0,0.0,0.0,0.0,0.0,0.0,0.0,0.0,0.0,0.0,0.0,0.0,0.0,0.0,0.0,0.0,0.0,0.0,0.0,0.0,0.0,0.0,0.0,0.0,0.0,0.0,0.0,0.0,0.0,0.0,0.0,0.0,0.0,0.0,0.0,0.0,0.0,0.0,0.0,0.0,0.0,0.0,0.0,0.0,0.0,0.0,0.0,0.0,0.0,0.0,0.0,0.0,0.0,0.0,0.0,0.0,0.0,0.0,0.0,0.0,0.0,0.0,0.0,0.0,0.0,0.0,0.0412,0.0303,-0.1985,-0.6559,-0.9756,-1.3566,0.0,0.0,0.0,0.0,0.0,0.0,0.0,0.0,0.0,0.0,0.0,0.0,0.0,0.0,0.0,0.0,0.0,0.0,0.0,0.0,0.0,0.0,0.0,0.0,0.0,0.0,0.0,0.0,0.0,0.0,0.0,0.0,0.0,0.0,0.0,0.0,0.0,0.0,0.0,0.0,0.0,0.0,0.0,0.0,0.0,0.0,0.0,0.0,0.0,0.0,0.0,0.0,0.0,0.0,0.0,0.0,0.0,0.0,0.0,0.0,0.0,0.0,0.0,0.0,0.0,0.0,0.0,0.0,0.0,0.0,0.0,0.0,0.0,0.0,0.0,0.0,0.0,0.0,0.0,0.0,0.0,0.0,0.0,0.0,0.0,0.0,0.0,0.0,0.0,0.0,0.0,0.0,0.0,0.0,0.0,0.0,0.0,0.0,0.0,0.0,0.0,0.0,0.0,0.0,0.0,0.0,0.0,0.0,-0.0223,0.2336,0.2457,0.0112,-0.4787,-0.8645,-1.299,0.0,0.0,0.0,0.0,0.0,0.0,0.0,0.0,0.0,0.0,0.0,0.0,0.0,0.0,0.0,0.0,0.0,0.0,0.0,0.0,0.0,0.0,0.0,0.0,0.0,0.0,0.0,0.0,0.0,0.0,0.0,0.0,0.0,0.0,0.0,0.0,0.0,0.0,0.0,0.0,0.0,0.0,0.0,0.0,0.0,0.0,0.0,0.0,0.0,0.0,0.0,0.0,0.0,0.0,0.0,0.0,0.0,0.0,0.0,0.0,0.0,0.0,0.0,0.0,0.0,0.0,0.0,0.0,0.0,0.0,0.0,0.0,0.0,0.0,0.0,0.0,0.0,0.0,0.0,0.0,0.0,0.0,0.0,0.0,0.0,0.0,0.0,0.0,0.0,0.0,0.0,0.0,0.0,0.0,0.0,0.0,0.0,0.0,0.0,0.0,0.0,0.0,0.0,0.0,0.0,0.0,0.0,0.0,0.1075,0.4293,0.3512,0.1026,-0.3266,-0.7835,-1.255,0.0,0.0,0.0,0.0,0.0,0.0,0.0,0.0,0.0,0.0,0.0,0.0,0.0,0.0,0.0,0.0,0.0,0.0,0.0,0.0,0.0,0.0,0.0,0.0,0.0,0.0,0.0,0.0,0.0,0.0,0.0,0.0,0.0,0.0,0.0,0.0,0.0,0.0,0.0,0.0,0.0,0.0,0.0,0.0,0.0,0.0,0.0,0.0,0.0,0.0,0.0,0.0,0.0,0.0,0.0,0.0,0.0,0.0,0.0,0.0,0.0,0.0,0.0,0.0,0.0,0.0,0.0,0.0,0.0,0.0,0.0,0.0,0.0,0.0,0.0,0.0,0.0,0.0,0.0,0.0,0.0,0.0,0.0,0.0,0.0,0.0,0.0,0.0,0.0,0.0,0.0,0.0,0.0,0.0,0.0,0.0,0.0,0.0,0.0,0.0,0.0,0.0,0.0,0.0,0.0,0.0,0.0,0.0,0.3441,0.5457,0.4765,0.2048,-0.2825,-0.711,-1.1717,0.0,0.0,0.0,0.0,0.0,0.0,0.0,0.0,0.0,0.0,0.0,0.0,0.0,0.0,0.0,0.0,0.0,0.0,0.0,0.0,0.0,0.0,0.0,0.0,0.0,0.0,0.0,0.0,0.0,0.0,0.0,0.0,0.0,0.0,0.0,0.0,0.0,0.0,0.0,0.0,0.0,0.0,0.0,0.0,0.0,0.0,0.0,0.0,-2.6502,0.0,0.0,0.0,0.0,0.0,0.0,0.0,0.0,0.0,0.0,0.0,0.0,0.0,0.0,0.0,0.0,0.0,0.0,0.0,0.0,0.0,0.0,0.0,0.0,0.0,0.0,0.0,0.0,0.0,0.0,0.0,0.0,0.0,0.0,0.0,0.0,0.0,0.0,0.0,0.0,0.0,0.0,0.0,0.0,0.0,0.0,0.0,0.0,0.0,0.0,0.0,0.0,0.0,0.0,0.0,0.0,0.0,0.0,0.0,0.5015,0.6388,0.5505,0.2696,-0.2186,-0.6684,-1.1427,0.0,0.0,0.0,0.0,0.0,0.0,0.0,0.0,0.0,0.0,0.0,0.0,0.0,0.0,0.0,0.0,0.0,0.0,0.0,0.0,0.0,0.0,0.0,0.0,0.0,0.0,0.0,0.0,0.0,0.0,0.0,0.0,0.0,0.0,0.0,0.0,0.0,0.0,0.0,0.0,0.0,0.0,0.0,0.0,0.0,0.0,0.0,0.0,0.0,0.0,0.0,0.0,0.0,0.0,0.0,0.0,0.0,0.0,0.0,0.0,0.0,0.0,0.0,0.0,0.0,0.0,0.0,0.0,0.0,0.0,0.0,0.0,0.0,0.0,0.0,0.0,0.0,0.0,0.0,0.0,0.0,0.0,0.0,0.0,0.0,0.0,0.0,0.0,0.0,0.0,0.0,0.0,0.0,0.0,0.0,0.0,0.0,0.0,0.0,0.0,0.0,0.0,0.0,0.0,0.0,0.0,0.0,0.321,0.6261,0.7345,0.6054,0.3087,-0.1623,-0.6365,-1.1311,-1.6389,0.0,0.0,0.0,0.0,0.0,0.0,0.0,0.0,0.0,0.0,0.0,0.0,0.0,0.0,0.0,0.0,0.0,0.0,0.0,0.0,0.0,0.0,0.0,0.0,0.0,0.0,0.0,0.0,0.0,0.0,0.0,0.0,0.0,0.0,0.0,0.0,0.0,0.0,-2.7989,-2.8686,0.0,0.0,0.0,0.0,0.0,0.0,0.0,0.0,-2.7935,0.0,0.0,0.0,0.0,0.0,0.0,0.0,0.0,0.0,0.0,0.0,0.0,0.0,0.0,0.0,0.0,0.0,0.0,0.0,0.0,0.0,0.0,0.0,0.0,0.0,0.0,0.0,0.0,0.0,0.0,0.0,0.0,0.0,0.0,0.0,0.0,0.0,0.0,0.0,0.0,0.0,0.0,0.0,0.0,0.0,0.0,0.0,0.0,0.0,0.0,0.0,0.0,0.0,0.0,0.0,0.0,-0.0596,0.4405,0.7605,0.8849,0.6943,0.3396,-0.1723,-0.6051,-1.0937,-1.6336,0.0,0.0,0.0,0.0,0.0,0.0,0.0,0.0,0.0,0.0,0.0,0.0,0.0,0.0,0.0,0.0,0.0,0.0,0.0,0.0,0.0,0.0,0.0,0.0,0.0,0.0,0.0,0.0,0.0,0.0,0.0,0.0,0.0,0.0,0.0,0.0,0.0,0.0,0.0,-2.9512,-2.9751,0.0,0.0,0.0,0.0,0.0,0.0,0.0,0.0,-2.875,0.0,0.0,0.0,0.0,0.0,0.0,0.0,0.0,0.0,0.0,0.0,0.0,0.0,0.0,0.0,0.0,0.0,0.0,0.0,0.0,0.0,0.0,0.0,0.0,0.0,0.0,0.0,0.0,0.0,0.0,0.0,0.0,0.0,0.0,0.0,0.0,0.0,0.0,0.0,0.0,0.0,0.0,0.0,0.0,0.0,0.0,0.0,0.0,0.0,0.0,0.0,0.0,0.0,0.0,0.0,0.0049,0.5229,0.8182,0.8699,0.6963,0.3591,-0.1444,-0.6343,-1.1226,0.0,0.0,0.0,0.0,0.0,0.0,0.0,0.0,0.0,0.0,0.0,0.0,0.0,0.0,0.0,0.0,0.0,0.0,0.0,0.0,0.0,0.0,0.0,0.0,0.0,0.0,0.0,0.0,0.0,0.0,0.0,0.0,0.0,0.0,0.0,0.0,0.0,0.0,0.0,0.0,-2.9509,-2.961,-2.8791,0.0,0.0,0.0,0.0,0.0,0.0,-2.7906,-2.8756,0.0,0.0,0.0,0.0,0.0,0.0,0.0,0.0,0.0,0.0,0.0,0.0,0.0,0.0,0.0,0.0,0.0,0.0,0.0,0.0,0.0,0.0,0.0,0.0,0.0,0.0,0.0,0.0,0.0,0.0,0.0,0.0,0.0,0.0,0.0,0.0,0.0,0.0,0.0,0.0,0.0,0.0,0.0,0.0,0.0,0.0,0.0,0.0,0.0,0.0,0.0,0.0,0.0,0.0,0.0,0.0484,0.6018,0.8739,0.8512,0.6965,0.3707,-0.1346,-0.6747,-1.169,0.0,0.0,0.0,0.0,0.0,0.0,0.0,0.0,0.0,0.0,0.0,0.0,0.0,0.0,0.0,0.0,0.0,0.0,0.0,0.0,0.0,0.0,0.0,0.0,0.0,0.0,0.0,0.0,0.0,0.0,0.0,0.0,0.0,0.0,0.0,0.0,0.0,0.0,0.0,0.0,0.0,-2.9665,-2.8478,-2.7656,0.0,0.0,0.0,0.0,-2.6992,-2.82,0.0,0.0,0.0,0.0,0.0,0.0,0.0,0.0,0.0,0.0,0.0,0.0,0.0,0.0,0.0,0.0,0.0,0.0,0.0,0.0,0.0,0.0,0.0,0.0,0.0,0.0,0.0,0.0,0.0,0.0,0.0,0.0,0.0,0.0,0.0,0.0,0.0,0.0,0.0,0.0,0.0,0.0,0.0,0.0,0.0,0.0,0.0,0.0,0.0,0.0,0.0,0.0,0.0,0.0,0.0,0.0,0.0692,0.6908,0.9857,0.9336,0.761,0.3902,-0.1949,-0.6983,-1.2101,0.0,0.0,0.0,0.0,0.0,0.0,0.0,0.0,0.0,0.0,0.0,0.0,0.0,0.0,0.0,0.0,0.0,0.0,0.0,0.0,0.0,0.0,0.0,0.0,0.0,0.0,0.0,0.0,0.0,0.0,0.0,0.0,0.0,0.0,0.0,0.0,0.0,0.0,0.0,0.0,0.0,-3.0815,-2.8312,-2.8393,-2.8258,0.0,0.0,-2.7376,-2.8019,-2.8847,0.0,0.0,0.0,0.0,0.0,0.0,0.0,0.0,0.0,0.0,0.0,0.0,0.0,0.0,0.0,0.0,0.0,0.0,0.0,0.0,0.0,0.0,0.0,0.0,0.0,0.0,0.0,0.0,0.0,0.0,0.0,0.0,0.0,0.0,0.0,0.0,0.0,0.0,0.0,0.0,0.0,0.0,0.0,0.0,0.0,0.0,0.0,0.0,0.0,0.0,0.0,0.0,0.0,0.0,0.0,-0.3049,0.0778,0.7167,0.9987,0.9016,0.6929,0.312,-0.2533,-0.7903,-1.2914,0.0,0.0,0.0,0.0,0.0,0.0,0.0,0.0,0.0,0.0,0.0,0.0,0.0,0.0,0.0,0.0,0.0,0.0,0.0,0.0,0.0,0.0,0.0,0.0,0.0,0.0,0.0,0.0,0.0,0.0,0.0,0.0,0.0,0.0,0.0,0.0,0.0,0.0,0.0,0.0,0.0,0.0,-2.7404,-2.7225,0.0,0.0,0.0,-2.6843,-2.7845,0.0,0.0,0.0,0.0,0.0,0.0,0.0,0.0,0.0,0.0,0.0,0.0,0.0,0.0,0.0,0.0,0.0,0.0,0.0,0.0,0.0,0.0,0.0,0.0,0.0,0.0,0.0,0.0,0.0,0.0,0.0,0.0,0.0,0.0,0.0,0.0,0.0,0.0,0.0,0.0,0.0,0.0,0.0,0.0,0.0,0.0,0.0,0.0,0.0,0.0,0.0,0.0,0.0,0.0,0.0,0.0,0.0,0.0732,0.7167,1.0004,0.8862,0.6397,0.251,-0.2882,-0.8708,0.0,0.0,0.0,0.0,0.0,0.0,0.0,0.0,0.0,0.0,0.0,0.0,0.0,0.0,0.0,0.0,0.0,0.0,0.0,0.0,0.0,0.0,0.0,0.0,0.0,0.0,0.0,-2.419,0.0,0.0,0.0,0.0,0.0,0.0,0.0,0.0,0.0,0.0,0.0,0.0,0.0,0.0,-2.8355,-2.6624,-2.6327,-2.6211,0.0,0.0,-2.6924,-2.781,-2.8438,-2.8924,0.0,0.0,0.0,0.0,0.0,0.0,0.0,0.0,0.0,0.0,0.0,0.0,0.0,0.0,0.0,0.0,0.0,0.0,0.0,0.0,0.0,0.0,0.0,0.0,0.0,0.0,0.0,0.0,0.0,0.0,0.0,0.0,0.0,0.0,0.0,0.0,0.0,0.0,0.0,0.0,0.0,0.0,0.0,0.0,0.0,0.0,0.0,0.0,0.0,0.0,0.0,0.0,0.0,0.0,0.0,0.0733,0.7019,1.0021,0.9377,0.6552,0.2486,-0.2779,-0.9075,-1.4426,0.0,0.0,0.0,0.0,0.0,0.0,0.0,0.0,0.0,0.0,0.0,0.0,0.0,0.0,0.0,0.0,0.0,0.0,0.0,0.0,0.0,0.0,0.0,0.0,0.0,0.0,0.0,0.0,0.0,0.0,0.0,0.0,0.0,0.0,0.0,0.0,0.0,0.0,0.0,0.0,0.0,-2.8197,-2.627,-2.659,-2.6788,0.0,0.0,-2.8247,-2.8332,-2.9278,-2.9947,-2.9853,0.0,0.0,0.0,0.0,0.0,0.0,0.0,0.0,0.0,0.0,0.0,0.0,0.0,0.0,0.0,0.0,0.0,0.0,0.0,0.0,0.0,0.0,0.0,0.0,0.0,0.0,0.0,0.0,0.0,0.0,0.0,0.0,0.0,0.0,0.0,0.0,0.0,0.0,0.0,0.0,0.0,0.0,0.0,0.0,0.0,0.0,0.0,0.0,0.0,0.0,0.0,0.0,0.0,-0.3167,0.009,0.6936,0.9995,0.8935,0.609,0.1901,-0.3716,-0.9175,-1.4345,0.0,0.0,0.0,0.0,0.0,0.0,0.0,0.0,0.0,0.0,0.0,0.0,0.0,0.0,0.0,0.0,0.0,0.0,0.0,0.0,0.0,0.0,0.0,0.0,0.0,0.0,0.0,0.0,-2.4094,-2.4054,-2.419,0.0,0.0,0.0,0.0,0.0,0.0,0.0,0.0,0.0,0.0,-2.6974,-2.5701,-2.5729,0.0,0.0,-2.6826,-2.7599,-2.8627,-2.9076,-2.9442,-2.9832,-2.9835,0.0,0.0,0.0,0.0,0.0,0.0,0.0,0.0,0.0,0.0,0.0,0.0,0.0,0.0,0.0,0.0,0.0,0.0,0.0,0.0,0.0,0.0,0.0,0.0,0.0,0.0,0.0,0.0,0.0,0.0,0.0,0.0,0.0,0.0,0.0,0.0,0.0,0.0,0.0,0.0,0.0,0.0,0.0,0.0,0.0,0.0,0.0,0.0,0.0,0.0,0.0,0.0,-0.3376,-0.0539,0.6423,0.9473,0.8488,0.5755,0.1514,-0.424,-0.9154,-1.4146,0.0,0.0,0.0,0.0,0.0,0.0,0.0,0.0,0.0,0.0,0.0,0.0,0.0,0.0,0.0,0.0,0.0,0.0,0.0,0.0,0.0,0.0,0.0,0.0,0.0,0.0,0.0,0.0,-2.4054,-2.4036,-2.4054,0.0,0.0,0.0,0.0,0.0,0.0,0.0,0.0,0.0,0.0,-2.5952,-2.5524,-2.5411,-2.5677,-2.6404,-2.6781,-2.747,-2.8762,-2.9223,-2.9638,-3.0241,0.0,0.0,0.0,0.0,0.0,0.0,0.0,0.0,0.0,0.0,0.0,0.0,0.0,0.0,0.0,0.0,0.0,0.0,0.0,0.0,0.0,0.0,0.0,0.0,0.0,0.0,0.0,0.0,0.0,0.0,-1.8954,0.0,0.0,0.0,0.0,0.0,0.0,0.0,0.0,0.0,0.0,0.0,0.0,0.0,0.0,0.0,0.0,0.0,0.0,0.0,0.0,0.0,0.0,0.0,-0.105,0.5356,0.8386,0.7927,0.5553,0.1512,-0.4235,-0.8964,-1.3967,-1.928,0.0,0.0,0.0,0.0,0.0,0.0,0.0,0.0,0.0,0.0,0.0,0.0,0.0,0.0,0.0,0.0,0.0,0.0,0.0,0.0,0.0,0.0,0.0,0.0,0.0,0.0,-2.3732,-2.3714,-2.3732,0.0,0.0,0.0,0.0,0.0,0.0,0.0,0.0,0.0,0.0,-2.559,-2.5411,-2.5905,-2.5977,-2.6106,-2.6488,-2.7467,-2.8334,-2.8819,-3.0032,-3.1028,0.0,0.0,0.0,0.0,0.0,0.0,0.0,0.0,0.0,0.0,0.0,0.0,0.0,0.0,0.0,0.0,0.0,0.0,0.0,0.0,0.0,0.0,0.0,0.0,0.0,0.0,0.0,-1.6769,-1.7446,0.0,0.0,0.0,0.0,0.0,0.0,0.0,0.0,0.0,0.0,0.0,-1.0319,-1.03,0.0,0.0,0.0,0.0,0.0,0.0,0.0,0.0,0.0,0.0,0.0,0.0,-0.375,-0.045,0.5663,0.8931,0.8886,0.5498,0.1304,-0.3757,-0.8639,-1.3533,-1.8447,0.0,0.0,0.0,0.0,0.0,0.0,0.0,0.0,0.0,0.0,0.0,0.0,0.0,0.0,0.0,0.0,0.0,0.0,0.0,0.0,0.0,0.0,0.0,0.0,0.0,-2.371,0.0,0.0,0.0,0.0,0.0,0.0,0.0,0.0,0.0,0.0,0.0,-2.5179,-2.4824,-2.5033,-2.5373,-2.5924,-2.6179,-2.6824,0.0,0.0,0.0,0.0,0.0,0.0,0.0,0.0,0.0,0.0,0.0,0.0,0.0,0.0,-3.8633,-3.5163,-3.5043,-3.5432,-3.5366,0.0,0.0,0.0,0.0,0.0,0.0,0.0,0.0,0.0,0.0,0.0,0.0,0.0,0.0,-1.4675,0.0,-1.6071,0.0,0.0,0.0,0.0,0.0,0.0,0.0,0.0,-0.9031,-0.8057,-0.6918,-0.709,-0.7557,0.0,-0.9227,-1.1259,0.0,0.0,0.0,0.0,0.0,0.0,0.0,0.0,-0.2898,-0.0045,0.5859,0.9056,0.9079,0.5803,0.1712,-0.3036,-0.9516,-1.4623,-1.8095,-1.9264,-1.9643,0.0,0.0,0.0,0.0,0.0,0.0,0.0,0.0,0.0,0.0,0.0,0.0,0.0,0.0,0.0,0.0,0.0,0.0,0.0,0.0,0.0,0.0,0.0,-2.3522,0.0,0.0,0.0,0.0,0.0,0.0,0.0,0.0,0.0,-2.4893,-2.5056,-2.5095,-2.5026,-2.5366,-2.5842,-2.6386,0.0,0.0,0.0,0.0,0.0,0.0,0.0,-3.2551,-3.3173,-3.3166,-3.3737,-3.5685,-3.7715,-3.9047,-3.8912,0.0,0.0,-3.761,-3.7716,-3.8308,-3.824,-3.8891,-3.9398,-3.9157,-3.969,-4.0044,0.0,0.0,0.0,0.0,0.0,0.0,0.0,0.0,-1.1204,-1.1879,0.0,-1.3825,0.0,0.0,0.0,0.0,0.0,0.0,0.0,0.0,-0.4822,-0.3708,-0.3522,-0.3416,-0.4002,-0.5304,-0.592,-0.6984,-0.8588,-1.2833,0.0,0.0,0.0,0.0,0.0,0.0,-0.1602,0.0369,0.5958,0.883,0.8765,0.6387,0.2685,-0.2529,-1.1544,-1.6936,-1.8155,-1.928,-1.9533,-1.8672,-1.9312,0.0,0.0,0.0,0.0,0.0,0.0,0.0,0.0,0.0,0.0,0.0,0.0,0.0,0.0,0.0,0.0,0.0,0.0,0.0,0.0,-2.3392,0.0,0.0,0.0,0.0,0.0,0.0,0.0,0.0,0.0,0.0,-2.6122,-2.5428,-2.5327,-2.6506,0.0,0.0,0.0,0.0,-2.8148,-2.8805,-2.9771,-3.0696,-3.1515,-3.3072,-3.4289,-3.4484,0.0,0.0,-3.6853,-3.843,-3.9484,-3.9187,-4.0511,-4.1714,-4.192,-4.1874,-4.2227,-4.2862,-4.1917,-4.135,-4.1968,-4.2115,-4.2153,-0.6616,0.0,0.0,0.0,0.0,-0.8917,-0.8671,-0.8524,-0.8632,-0.9204,-1.0138,-1.1123,0.0,0.0,0.0,0.0,0.0,0.0,-0.5642,-0.4281,-0.3705,-0.3161,-0.2557,-0.2531,-0.2748,-0.3138,-0.3283,-0.3858,-0.4801,-0.723,-1.0007,-1.2919,0.0,0.0,0.0,0.0,0.1844,0.4284,0.825,1.0303,1.036,0.6874,0.1102,-0.7076,-1.2728,-1.638,-1.7792,-1.84,-1.8763,-1.8878,-1.9179,0.0,0.0,0.0,0.0,0.0,0.0,0.0,0.0,0.0,0.0,0.0,0.0,0.0,0.0,0.0,0.0,0.0,0.0,0.0,-2.3028,-2.3117,-2.3443,0.0,0.0,0.0,0.0,0.0,0.0,0.0,0.0,0.0,-2.6843,-2.6415,-2.6118,0.0,0.0,-2.7326,-2.7897,-2.8403,-2.9089,-3.0018,0.0,0.0,0.0,-3.3495,-3.394,-3.515,-3.6073,-3.6714,-3.6957,-3.8423,-3.9558,-3.9491,-4.082,-4.2003,-4.2099,-4.2698,-4.3076,-4.3059,-4.3283,-4.3687,-4.4014,-4.4049,-4.3762,-0.0592,-0.2838,-0.5098,-0.5788,-0.5404,-0.5,-0.4758,-0.4661,-0.4854,-0.5464,-0.6376,-0.7195,-0.8035,-0.8832,-0.8553,0.0,0.0,0.0,-0.264,-0.1375,-0.1072,-0.0682,-0.0258,-0.0258,-0.0255,-0.0251,-0.0254,-0.0509,-0.1004,-0.1337,-0.2924,-0.5637,0.0,0.0,-0.3392,0.1644,0.5151,0.7032,0.9983,1.1439,1.1228,0.589,-0.0567,-0.7855,-1.2509,-1.5851,-1.7897,-1.8174,-1.8535,-1.9123,-1.9239,-1.9625,0.0,0.0,0.0,0.0,0.0,0.0,0.0,0.0,0.0,0.0,0.0,-2.3087,0.0,0.0,0.0,0.0,-2.299,-2.321,-2.3003,-2.3284,0.0,0.0,0.0,0.0,0.0,0.0,0.0,-2.827,-2.7317,-2.6779,-2.7549,-2.7502,-2.7362,-2.7183,-2.77,-2.8221,-2.8585,0.0,-2.9663,-3.043,-3.1082,-3.19,-3.313,-3.3264,-3.3668,-3.5011,-3.5932,-3.6615,-3.6986,-3.7901,-3.8778,-3.9524,-4.0443,-4.1205,-4.1517,-4.2354,-4.3053,-4.3098,-4.3663,-4.4191,-4.4271,-4.4233,-4.4036,0.4598,0.4157,-0.0057,-0.1498,-0.1072,-0.0839,-0.0383,0.0165,-0.0653,-0.1295,-0.1925,-0.2611,-0.3513,-0.4513,-0.3866,0.0,-0.1781,-0.0477,0.0686,0.1794,0.2513,0.2837,0.2879,0.2876,0.2872,0.2913,0.297,0.2955,0.2822,0.4411,0.4652,0.3469,0.1204,0.0412,0.1289,0.5758,0.8467,0.9217,1.1567,1.2378,1.157,0.4279,-0.1744,-0.6163,-1.1462,-1.5613,-1.831,-1.8484,-1.8783,-1.9396,-1.9455,-1.957,-1.9816,0.0,0.0,0.0,0.0,0.0,0.0,0.0,0.0,0.0,0.0,0.0,0.0,0.0,0.0,0.0,-2.2569,0.0,-2.3308,-2.3744,0.0,0.0,0.0,-2.6566,-2.772,-2.7525,-2.759,-2.8286,0.0,0.0,-2.8229,0.0,-2.8732,-2.8397,-2.8842,-2.9223,-2.9363,-2.9661,-2.998,-3.0316,-3.0991,-3.1602,-3.2009,-3.2676,-3.3502,-3.4438,-3.5111,-3.5891,-3.6657,-3.7007,-3.7693,-3.8996,-3.9446,-3.9766,-4.0563,-4.1342,-4.2178,-4.2934,-4.3291,-4.3403,-4.346,-4.3463,-4.3411,0.6468,0.5435,0.5043,0.4024,0.2668,0.2268,0.2094,0.1947,0.0767,0.0204,0.0051,-0.0052,0.0,0.0102,0.06,0.1245,0.1908,0.2405,0.3199,0.4189,0.4007,0.4157,0.4525,0.4521,0.4542,0.4596,0.5519,0.5945,0.5963,0.7403,0.8582,0.9489,1.1616,1.1005,0.7949,1.0811,1.2749,1.3493,1.4896,1.4181,1.1206,0.6066,0.0397,-0.5796,-1.2261,-1.6718,-1.8828,-1.9182,-1.9487,-1.9844,-1.9962,-2.0061,-2.0096,-2.0155,0.0,0.0,0.0,0.0,0.0,0.0,0.0,0.0,0.0,-2.2887,-2.0373,0.0,-2.2694,0.0,-2.2153,-2.2762,-2.2853,-2.3994,0.0,0.0,-2.6742,-2.7272,-2.816,-2.8175,-2.8167,-2.824,-2.818,-2.8323,-2.8805,-2.9184,-2.9513,-2.97,-2.9842,-2.995,-2.9992,-3.0222,-3.0442,-3.0535,-3.0724,-3.1097,-3.1777,-3.263,-3.3461,-3.4369,-3.4665,-3.5071,-3.5867,-3.6574,-3.7165,-3.761,-3.8177,-3.8865,-3.9733,-4.0081,-4.0514,-4.1296,-4.2373,-4.3275,-4.3372,-4.33,-4.3063,0.8174,0.7497,0.799,0.7471,0.6165,0.4844,0.4337,0.4334,0.338,0.3074,0.3314,0.3649,0.3959,0.4295,0.4742,0.5074,0.5396,0.5646,0.6231,0.7026,0.6704,0.6706,0.6979,0.6972,0.6975,0.7004,0.7706,0.8134,0.8471,0.9761,1.1009,1.2127,1.5065,1.5567,1.3789,1.5136,1.5948,1.6038,1.6268,1.5196,1.2712,0.6759,0.1789,-0.205,-1.0806,-1.6743,-1.926,-1.9588,-1.9854,-2.0139,-2.0241,-2.0299,-2.028,-2.0681,-2.0869,0.0,0.0,0.0,0.0,0.0,0.0,0.0,0.0,0.0,0.0,0.0,-2.2254,0.0,-2.2312,-2.307,-2.3232,-2.4602,-2.596,-2.704,-2.7604,-2.8195,-2.8891,-2.8968,-2.895,-2.8857,-2.8883,-2.9074,-2.9532,-2.9775,-3.0007,-3.0308,-3.0372,-3.0372,-3.038,-3.0506,-3.0601,-3.0603,-3.0601,-3.0723,-3.1227,-3.1979,-3.282,-3.3609,-3.4095,-3.4647,-3.5468,-3.6001,-3.6425,-3.6829,-3.7579,-3.8401,-3.9112,-3.9576,-3.9942,-4.0251,-4.0969,-4.1647,-4.1991,-4.2008,-4.1757,0.9596,0.9497,0.9565,0.9463,0.9089,0.7043,0.6407,0.6705,0.6187,0.6261,0.6854,0.7344,0.7623,0.7742,0.8158,0.8386,0.8498,0.8802,0.931,0.9897,0.9829,0.982,0.9915,0.9905,0.9905,0.9905,0.9971,1.0226,1.0745,1.2035,1.2892,1.3474,1.5306,1.6995,1.8425,1.8637,1.8372,1.7649,1.6675,1.5816,1.4904,0.7165,0.2668,0.1422,-0.9116,-1.6519,-1.9626,-1.9886,-2.0054,-2.0395,-2.0534,-2.053,-2.0445,-2.1247,-2.1618,0.0,-2.2153,0.0,0.0,0.0,0.0,0.0,0.0,0.0,0.0,-2.221,-2.1972,-2.1625,-2.271,-2.3574,-2.39,-2.524,-2.6499,-2.7372,-2.8099,-2.8793,-2.9456,-2.9471,-2.9507,-2.9751,-2.9645,-2.9698,-3.0151,-3.0232,-3.0205,-3.0448,-3.0546,-3.0559,-3.0535,-3.0574,-3.0615,-3.0607,-3.0554,-3.0535,-3.0543,-3.1008,-3.1757,-3.2659,-3.3374,-3.4285,-3.5215,-3.5388,-3.5633,-3.6305,-3.7057,-3.7852,-3.848,-3.9261,-3.9772,-3.9671,-3.9769,-3.9943,-4.0302,-4.0423,-4.0193,1.0174,0.9459,0.9813,0.9995,0.9891,0.8657,0.7904,0.7527,0.6963,0.7148,0.7893,0.8162,0.8672,0.9359,0.9605,0.9969,1.0381,1.0654,1.1303,1.2259,1.2393,1.2715,1.3155,1.3201,1.3201,1.3233,1.3552,1.3812,1.3946,1.5092,1.601,1.6632,1.793,1.903,1.9946,0.0,0.0,0.0,1.762,1.6253,1.5222,0.8935,0.2797,-0.2908,-1.1843,0.0,-2.0183,-2.0404,-2.0474,-2.0581,-2.1177,0.0,0.0,0.0,0.0,0.0,0.0,0.0,0.0,0.0,0.0,0.0,-2.126,-2.1437,-2.1685,-2.196,-2.1938,-2.1606,-2.2807,-2.3744,-2.397,-2.5052,-2.6074,-2.6703,-2.6985,-2.7543,-2.8615,-2.8256,-2.8404,-2.9978,-2.8967,-2.8738,-3.018,-2.9941,-2.9801,-3.041,-3.0598,-3.053,-3.029,-3.0432,-3.0608,-3.0604,-3.0405,-3.0226,-3.0128,-3.0129,-3.0791,-3.1914,-3.2425,-3.322,-3.451,-3.4851,-3.4832,-3.5116,-3.5741,-3.6574,-3.7289,-3.8061,-3.8863,-3.9467,-3.9576,-3.9637,-3.9735,-3.975,-3.9735,1.0636,0.0,1.0203,1.0339,0.0,1.0041,0.981,0.9694,0.8591,0.8659,0.956,1.0147,1.0647,1.1113,1.1845,1.2339,1.2582,1.3122,1.3722,1.4375,1.447,1.4718,1.5007,1.4993,1.4921,1.4803,1.5023,1.5168,1.5211,1.6249,1.697,1.7328,1.8562,1.9416,1.9847,2.0162,2.0251,2.0097,1.8088,1.6934,1.6398,0.8907,0.2433,-0.2676,0.0,0.0,0.0,0.0,0.0,0.0,0.0,0.0,0.0,0.0,0.0,-2.1171,-2.1469,-2.1632,-2.1485,-2.1302,-2.1233,-2.1381,-2.1691,-2.197,-2.2177,-2.2555,-2.2681,-2.2383,-2.3541,-2.4257,-2.4203,-2.5397,-2.6292,-2.6497,-2.6915,-2.7509,-2.8166,-2.7999,-2.8137,-2.8917,-2.8771,-2.8914,-2.978,-2.9999,-2.9877,-2.9936,-3.0201,-3.018,-2.9708,-3.0113,-3.0501,-3.0337,-3.0102,-2.9943,-2.9886,-3.016,-3.0676,-3.1902,-3.2543,-3.3181,-3.4167,-3.4352,-3.4289,-3.4176,-3.4982,-3.5988,-3.6491,-3.7302,-3.8108,-3.857,-3.8564,-3.8426,-3.8456,-3.8719,-3.8951,1.1132,1.1111,1.064,1.0706,1.1138,1.1036,1.1373,1.1836,0.0,0.0,0.0,1.2117,1.2622,1.2908,1.3984,1.456,1.4727,1.5482,1.596,1.617,1.6314,1.6371,1.6295,1.6295,1.6161,1.5918,1.5906,1.5945,1.6011,1.6929,1.7412,1.7577,1.8678,1.9322,1.9414,1.9445,1.9546,1.9665,1.8043,1.7101,1.6746,0.8375,0.207,-0.1607,-1.0212,-1.6273,-1.9285,-2.0095,-2.0443,-2.041,-2.0555,-2.0604,-2.0527,-2.1316,-2.1719,-2.16,-2.2206,-2.2564,-2.2469,-2.2269,-2.2144,-2.208,-2.2325,-2.2665,-2.3038,-2.3444,-2.3596,-2.3454,-2.4333,-2.4764,-2.4489,-2.5615,-2.6358,-2.6235,-2.6867,-2.7415,-2.7782,-2.7846,-2.792,-2.8242,-2.8746,-2.9181,-2.9432,-2.9916,-3.0128,-2.9567,-2.9846,-2.9905,-2.9284,-2.9784,-3.0226,-2.9988,-2.9782,-2.9699,-2.9926,-3.0302,-3.1109,-3.1981,-3.2673,-3.3262,-3.3605,-3.3753,-3.3571,-3.325,-3.4473,-3.5422,-3.5811,-3.6739,-3.7538,-3.7719,-3.747,-3.7135,-3.7117,-3.7665,-3.8118,1.1689,1.1627,1.1113,1.1189,1.1649,1.1206,1.1549,1.2318,1.1715,1.1729,1.2236,1.2751,1.3513,1.4417,1.4994,1.5531,1.605,1.6797,1.7154,0.0,1.79,1.8104,1.789,1.7873,1.7754,1.7492,1.7492,1.7597,1.7847,1.8183,1.8554,1.8901,1.9327,1.9645,1.9842,1.9468,1.8839,1.8063,1.7089,1.556,1.3311,0.8257,0.2355,-0.4241,-1.1615,-1.6579,-1.8667,-1.9753,-2.0377,-2.0484,-2.1181,-2.1266,-2.0575,-2.124,-2.1366,-2.0675,-2.0648,-2.0696,-2.0756,-2.055,-2.102,-2.2293,-2.2457,-2.2843,-2.3671,-2.4083,-2.4281,-2.4319,-2.4711,-2.4956,-2.5058,-2.5303,-2.5516,-2.557,-2.5703,-2.6101,-2.6834,-2.6991,-2.7546,-2.8851,-2.8621,-2.8827,-2.9755,-2.9704,-2.9583,-2.968,-2.9715,-2.9848,-2.9593,-2.9687,-2.9782,-2.9731,-2.957,-2.9752,-3.0234,-3.0339,-3.0906,-3.1847,-3.2165,-3.2418,-3.2732,-3.2782,-3.2733,-3.2624,-3.3855,-3.4796,-3.5044,-3.6239,-3.7017,-3.7248,-3.719,-3.702,-3.6684,-3.7097,-3.7596,1.1957,1.2102,1.1616,1.14,1.1303,1.1026,1.1047,1.119,1.1291,1.1911,1.2894,1.373,1.4398,1.4949,1.5957,1.6591,1.6857,1.7372,1.7591,1.7579,1.7941,1.7954,1.7676,1.7653,1.7636,1.7549,1.7526,1.776,1.8205,1.8461,1.8789,1.921,1.9573,1.9692,1.9464,1.876,1.7914,1.6934,1.5827,1.4423,1.266,0.7756,0.1921,-0.4733,-1.008,-1.3943,-1.6363,-1.7852,-1.8683,-1.8818,-1.9756,-2.01,-1.9745,-2.0218,-2.0402,-2.0196,-2.0139,-2.0179,-2.023,-2.0214,-2.0929,-2.2493,-2.2666,-2.3262,-2.461,-2.4778,-2.4885,-2.5031,-2.5134,-2.5195,-2.5312,-2.5312,-2.5318,-2.539,-2.547,-2.5837,-2.6553,-2.6641,-2.7094,-2.8195,-2.8382,-2.8582,-2.9202,-2.9371,-2.9285,-2.9135,-2.9038,-2.9081,-2.9282,-2.9316,-2.9395,-2.9513,-2.9686,-2.9961,-3.036,-3.0888,-3.1374,-3.1939,-3.2163,-3.2222,-3.2213,-3.2127,-3.2039,-3.1946,-3.3014,-3.405,-3.4396,-3.5461,-3.6273,-3.6724,-3.6764,-3.6603,-3.6557,-3.732,-3.8259,1.2222,1.2282,1.1653,1.0972,1.0186,1.0021,0.9649,0.9147,0.9262,0.979,1.0782,1.2683,1.3776,1.4109,1.5264,1.5832,1.6025,1.6516,1.6795,1.6874,1.6881,1.6823,1.6767,1.6841,1.6979,1.7166,1.7272,1.7647,1.8249,1.8538,1.8853,1.9247,1.9581,1.9465,1.8936,1.7908,1.6896,1.5936,1.4521,1.3333,1.2224,0.7694,0.2427,-0.3437,-0.7387,-1.0776,-1.3699,-1.5556,-1.6727,-1.7111,-1.8014,-1.8576,-1.869,-1.8964,-1.9315,-1.9613,-1.9782,-1.9914,-2.0051,-2.0169,-2.094,-2.2575,-2.2728,-2.3478,-2.5082,-2.5252,-2.5284,-2.5459,-2.5428,-2.5424,-2.5416,-2.5412,-2.5464,-2.5561,-2.5456,-2.5819,-2.6687,-2.6702,-2.6874,-2.7664,-2.8365,-2.8745,-2.8781,-2.9173,-2.925,-2.8671,-2.8369,-2.8519,-2.8893,-2.8929,-2.8998,-2.9384,-2.9793,-3.0056,-3.0225,-3.1074,-3.1745,-3.1936,-3.2157,-3.2074,-3.1842,-3.166,-3.1685,-3.1652,-3.2551,-3.3581,-3.4197,-3.5019,-3.5822,-3.635,-3.6457,-3.6481,-3.6843,-3.7966,-3.9012,1.2579,1.174,1.0664,0.9378,0.8014,0.7402,0.6727,0.5994,0.5077,0.3805,0.3271,0.7475,0.9949,1.0839,1.1057,1.1455,1.2029,1.3093,1.3811,1.4215,1.4337,1.4707,1.522,1.5681,1.6208,1.6696,1.7077,1.7648,1.8531,1.8735,1.9019,1.9392,1.9279,1.8949,1.8358,1.7105,1.591,1.4834,1.3324,1.2037,1.0882,0.8865,0.5194,-0.0121,-0.45,-0.8299,-1.1388,-1.3445,-1.499,-1.6132,-1.6759,-1.7268,-1.7625,-1.7959,-1.8282,-1.8618,-1.915,-1.9575,-1.9877,-1.9981,-2.0769,-2.2305,-2.2571,-2.3309,-2.5013,-2.5189,-2.5286,-2.543,-2.5472,-2.5529,-2.549,-2.5541,-2.5755,-2.6136,-2.5678,-2.5658,-2.6873,-2.7148,-2.7433,-2.8244,-2.8912,-2.9494,-2.9172,-2.915,-2.9013,-2.8666,-2.8654,-2.8714,-2.8808,-2.8633,-2.8709,-2.9321,-2.9647,-2.9835,-3.0243,-3.0827,-3.15,-3.176,-3.1846,-3.1696,-3.1449,-3.1397,-3.1382,-3.2032,-3.2865,-3.3685,-3.4338,-3.5064,-3.5732,-3.6284,-3.6533,-3.6759,-3.7541,-3.8616,-3.9298,1.0644,1.0171,0.9039,0.763,0.5995,0.4111,0.2762,0.1834,0.1087,-0.0191,-0.1482,0.0077,0.2646,0.5864,0.6682,0.753,0.8434,0.9235,0.9791,1.0132,1.0162,1.0593,1.1441,1.2303,1.3415,1.4913,1.5776,1.7057,1.8604,1.9317,1.9538,1.9473,1.9153,1.8591,1.775,1.6189,1.495,1.4141,1.213,1.0695,0.983,0.8731,0.5978,0.1587,-0.2511,-0.5658,-0.8064,-1.0583,-1.245,-1.3438,-1.484,-1.5713,-1.5844,-1.6409,-1.7014,-1.7538,-1.8324,-1.889,-1.9239,-1.9913,-2.0867,-2.2079,-2.2736,-2.3647,-2.4822,-2.4949,-2.5003,-2.5143,-2.5618,-2.5964,-2.5891,-2.6233,-2.6598,-2.676,-2.6533,-2.6663,-2.7474,-2.7456,-2.7712,-2.8509,-2.8621,-2.8717,-2.873,-2.8555,-2.8388,-2.8288,-2.8342,-2.836,-2.8334,-2.8183,-2.8358,-2.8817,-2.922,-2.9898,-3.0621,-3.1214,-3.1586,-3.1721,-3.1603,-3.1351,-3.1286,-3.163,-3.2009,-3.2256,-3.3254,-3.4015,-3.4387,-3.5108,-3.5783,-3.6343,-3.7556,-3.8221,-3.894,-4.0078,-4.0808,0.8163,0.7347,0.5738,0.4203,0.2727,0.0327,-0.142,-0.2566,-0.3303,-0.4615,-0.6262,-0.6774,-0.4908,-0.1274,0.118,0.2795,0.3647,0.4378,0.4922,0.5213,0.5228,0.5764,0.6849,0.8117,1.0048,1.2424,1.4125,1.628,1.8713,1.9483,1.9432,1.8734,1.8217,1.7433,1.6256,1.4529,1.333,1.2604,1.0579,0.9116,0.8351,0.7765,0.5916,0.2617,-0.0904,-0.3836,-0.6138,-0.8613,-1.0331,-1.1198,-1.3014,-1.4059,-1.4293,-1.4892,-1.5706,-1.6719,-1.7535,-1.8113,-1.8465,-1.9462,-2.0478,-2.1417,-2.2303,-2.3265,-2.4172,-2.4431,-2.4431,-2.4503,-2.5386,-2.5946,-2.6172,-2.6645,-2.7059,-2.7231,-2.7046,-2.7063,-2.7735,-2.7565,-2.7592,-2.836,-2.82,-2.7926,-2.8057,-2.8002,-2.7908,-2.7794,-2.7823,-2.7897,-2.7922,-2.8006,-2.822,-2.8637,-2.9282,-2.9955,-3.0819,-3.1271,-3.1573,-3.1603,-3.1389,-3.1213,-3.1241,-3.1816,-3.2493,-3.2763,-3.3829,-3.4556,-3.4895,-3.543,-3.5941,-3.669,-3.7859,-3.9182,-3.9589,-4.1024,-4.1846,0.546,0.3191,0.0082,-0.1509,-0.2324,-0.3987,-0.5644,-0.7003,-0.8218,-0.9945,-1.1499,-1.1812,-1.1633,-1.0231,-0.5611,-0.3413,-0.2812,-0.1652,-0.0846,-0.0409,-0.0399,0.0367,0.1855,0.3446,0.5992,0.9232,1.1932,1.524,1.8802,1.908,1.8213,1.6779,1.6085,1.5004,1.3677,1.1941,1.0693,1.0186,0.8776,0.7271,0.6186,0.5953,0.4995,0.2993,0.0261,-0.3153,-0.6471,-0.7985,-0.9099,-1.0205,-1.1339,-1.2319,-1.3069,-1.3526,-1.4594,-1.6249,-1.6913,-1.7299,-1.7684,-1.8443,-1.9328,-2.0324,-2.1132,-2.1834,-2.3456,-2.364,-2.364,-2.3596,-2.4717,-2.5523,-2.594,-2.6451,-2.6945,-2.7358,-2.6504,-2.6662,-2.7735,-2.7263,-2.7181,-2.7769,-2.7936,-2.7765,-2.7487,-2.7678,-2.7648,-2.753,-2.7648,-2.7933,-2.8035,-2.8224,-2.8635,-2.9281,-2.9795,-3.0078,-3.0251,-3.0874,-3.1244,-3.1291,-3.1291,-3.119,-3.1444,-3.1799,-3.2527,-3.3237,-3.41,-3.481,-3.5334,-3.582,-3.6274,-3.7048,-3.8203,-3.926,-4.0088,-4.0689,-4.157,0.1149,-0.1678,-0.3995,-0.5255,-0.5901,-0.7805,-0.9166,-1.0059,-1.119,-1.2305,-1.3162,-1.3079,-1.2673,-1.208,-1.0327,-0.8622,-0.716,-0.6327,-0.5627,-0.5177,-0.5332,-0.4783,-0.3548,-0.2461,0.0361,0.452,0.784,1.2521,1.7998,1.8892,1.8605,1.7224,1.4852,1.2927,1.1639,1.0391,0.9487,0.8854,0.7817,0.6755,0.5642,0.4097,0.2549,0.1228,-0.0789,-0.3306,-0.6217,-0.7091,-0.7896,-0.8696,-1.0022,-1.0929,-1.1333,-1.2563,-1.3928,-1.5358,-1.5921,-1.6433,-1.7167,-1.8612,-1.9654,-2.0175,-2.1563,-2.2486,-2.315,-2.332,-2.332,-2.3534,-2.4605,-2.5456,-2.5774,-2.6449,-2.7198,-2.7589,-2.7371,-2.7118,-2.7391,-2.7255,-2.722,-2.7507,-2.7707,-2.7754,-2.7487,-2.7457,-2.7439,-2.7348,-2.7457,-2.7877,-2.8447,-2.8543,-2.8914,-2.9886,-3.0187,-3.0277,-3.0801,-3.097,-3.119,-3.119,-3.119,-3.119,-3.1343,-3.2307,-3.3119,-3.3532,-3.4304,-3.5222,-3.5793,-3.6364,-3.6825,-3.763,-3.8784,-3.9803,-4.0634,-4.1525,-4.2327,-0.3344,-0.5668,-0.7445,-0.8302,-0.8811,-1.0496,-1.1526,-1.2025,-1.2783,-1.3429,-1.3756,-1.3391,-1.3116,-1.2975,-1.2953,-1.2329,-1.0961,-1.0088,-0.9533,-0.9334,-0.9582,-0.924,-0.8441,-0.7685,-0.5262,-0.1191,0.2857,0.7705,1.2324,1.3636,1.3639,1.2628,1.047,0.921,0.8545,0.778,0.711,0.6598,0.5682,0.4712,0.3781,0.2113,0.0265,-0.137,-0.2517,-0.3854,-0.5674,-0.6732,-0.7453,-0.8024,-0.9076,-0.9865,-1.0321,-1.189,-1.3331,-1.4296,-1.49,-1.5638,-1.6567,-1.8151,-1.9263,-1.981,-2.1145,-2.2246,-2.2608,-2.2703,-2.2859,-2.3388,-2.4225,-2.5077,-2.561,-2.6321,-2.7067,-2.7531,-2.7589,-2.7426,-2.7178,-2.7224,-2.7313,-2.7512,-2.7736,-2.7754,-2.7577,-2.75,-2.75,-2.7517,-2.7657,-2.8263,-2.8847,-2.9378,-2.9647,-3.0695,-3.0959,-3.1179,-3.147,-3.1588,-3.1351,-3.1291,-3.1252,-3.1213,-3.1613,-3.2659,-3.3481,-3.387,-3.4584,-3.5557,-3.6316,-3.6925,-3.7613,-3.8337,-3.9355,-4.0489,-4.1482,-4.2581,-4.3194,-0.791,-0.8613,-1.0266,-1.0835,-1.0983,-1.2013,-1.2722,-1.3048,-1.3182,-1.3547,-1.3914,-1.3459,-1.348,-1.3802,-1.3789,-1.3986,-1.3835,-1.2836,-1.2423,-1.2607,-1.2773,-1.2741,-1.2414,-1.1822,-1.005,-0.7313,-0.284,0.0316,0.2497,0.2958,0.2727,0.2284,0.2937,0.3417,0.4345,0.3689,0.3453,0.311,0.2057,0.0972,0.0089,-0.0221,-0.1679,-0.4136,-0.4587,-0.4845,-0.5399,-0.6888,-0.7685,-0.7812,-0.8389,-0.9182,-1.0215,-1.1656,-1.2707,-1.3264,-1.399,-1.4973,-1.6021,-1.6984,-1.8293,-1.9263,-1.9876,-2.0855,-2.1628,-2.182,-2.2249,-2.3238,-2.3807,-2.4425,-2.5439,-2.6018,-2.6528,-2.7116,-2.7019,-2.6808,-2.6808,-2.7083,-2.7487,-2.7811,-2.7954,-2.7926,-2.7897,-2.8003,-2.8057,-2.8174,-2.8663,-2.9254,-2.9643,-3.0475,-3.12,-3.154,-3.1767,-3.2004,-3.2109,-3.2109,-3.1714,-3.1372,-3.1351,-3.1346,-3.1901,-3.2762,-3.3749,-3.4293,-3.5411,-3.6342,-3.7137,-3.7756,-3.8543,-3.932,-4.0306,-4.125,-4.2268,-4.3268,-4.3746,-0.9703,-1.0299,-1.1527,-1.2209,-1.252,-1.3179,-1.3557,-1.363,-1.3669,-1.3934,-1.4181,-1.3868,-1.3921,-1.4246,-1.431,-1.4534,-1.4864,-1.4648,-1.4407,-1.4169,-1.4539,-1.4819,-1.4965,-1.5268,-1.3314,-1.0561,-1.2115,-0.9404,-0.4632,-0.6289,-0.7661,-0.6318,-0.3979,-0.2556,-0.1553,-0.034,0.0342,-0.0173,-0.083,-0.1362,-0.1752,-0.3218,-0.457,-0.5392,-0.5685,-0.582,-0.5946,-0.6459,-0.6715,-0.6802,-0.7643,-0.878,-1.0089,-1.1372,-1.2354,-1.3144,-1.4419,-1.5366,-1.6192,-1.7664,-1.878,-1.9499,-2.0383,-2.1122,-2.1579,-2.1886,-2.2442,-2.3359,-2.3952,-2.47,-2.5471,-2.618,-2.6601,-2.6839,-2.6791,-2.6725,-2.6825,-2.7083,-2.7572,-2.8112,-2.8264,-2.8264,-2.8389,-2.864,-2.908,-2.9152,-2.9799,-3.0512,-3.1292,-3.1596,-3.2098,-3.2534,-3.267,-3.2709,-3.2737,-3.2751,-3.2477,-3.2109,-3.1898,-3.1869,-3.2342,-3.306,-3.4012,-3.5168,-3.6262,-3.7165,-3.7923,-3.8661,-3.9416,-4.043,-4.1529,-4.2372,-4.3121,-4.38,-4.4399,-1.0902,-1.1546,-1.2215,-1.277,-1.3223,-1.3509,-1.3765,-1.3875,-1.3888,-1.4117,-1.4374,-1.4259,-1.4342,-1.4676,-1.4847,-1.5151,-1.5536,-1.5905,-1.5805,-1.5479,-1.588,-1.6352,-1.6746,-1.7625,-1.6729,-1.4625,-1.7143,-1.5833,-1.0381,-1.2581,-1.34,-1.16,-0.9112,-0.7056,-0.5885,-0.3844,-0.2904,-0.3311,-0.3771,-0.3818,-0.3814,-0.5067,-0.5993,-0.5993,-0.5927,-0.5987,-0.6157,-0.6202,-0.6319,-0.6636,-0.7601,-0.8765,-0.9884,-1.1073,-1.2112,-1.301,-1.4324,-1.5565,-1.6531,-1.7963,-1.9147,-1.9608,-2.0363,-2.1039,-2.1355,-2.1886,-2.2615,-2.3701,-2.4506,-2.5203,-2.593,-2.6387,-2.6674,-2.6708,-2.6708,-2.6841,-2.7083,-2.7482,-2.8124,-2.8789,-2.9105,-2.9196,-2.9584,-2.9857,-3.0257,-3.0384,-3.1002,-3.1674,-3.2444,-3.2719,-3.3122,-3.3442,-3.356,-3.3524,-3.3386,-3.3312,-3.3208,-3.2931,-3.2638,-3.2664,-3.2915,-3.3811,-3.4747,-3.6381,-3.766,-3.823,-3.8925,-3.9593,-4.0352,-4.1525,-4.2625,-4.3491,-4.4224,-4.4725,-4.5235,-1.1605,-1.2449,-1.253,-1.2794,-1.3176,-1.3257,-1.3501,-1.3854,-1.3894,-1.4163,-1.447,-1.4578,-1.4752,-1.515,-1.5462,-1.5805,-1.6285,-1.6638,-1.6728,-1.6766,-1.7084,-1.7388,-1.7778,-1.8789,-1.8903,-1.883,-1.8893,-1.8354,-1.6789,-1.6287,-1.5607,-1.4412,-1.2489,-1.0614,-0.8512,-0.6847,-0.5942,-0.5979,-0.641,-0.6093,-0.5379,-0.5962,-0.6271,-0.6264,-0.5916,-0.5916,-0.6227,-0.6435,-0.6641,-0.7112,-0.8126,-0.9041,-0.9713,-1.1012,-1.214,-1.2773,-1.4061,-1.5676,-1.7001,-1.7949,-1.872,-1.9596,-1.9919,-2.0115,-2.115,-2.1988,-2.2993,-2.438,-2.5135,-2.5812,-2.642,-2.6674,-2.6759,-2.6826,-2.6876,-2.7132,-2.7765,-2.8183,-2.8905,-2.9789,-3.0228,-3.0485,-3.1041,-3.1268,-3.1414,-3.1561,-3.2085,-3.2625,-3.2919,-3.3414,-3.3998,-3.4204,-3.4186,-3.4186,-3.4024,-3.3938,-3.3845,-3.3817,-3.3671,-3.3902,-3.4086,-3.4988,-3.6009,-3.7581,-3.8628,-3.9208,-3.9783,-4.032,-4.1203,-4.2286,-4.3386,-4.446,-4.5092,-4.5466,-4.5602,-1.1945,-1.252,-1.2887,-1.3084,-1.321,-1.321,-1.3475,-1.3874,-1.3894,-1.4342,-1.4814,-1.4937,-1.5195,-1.5639,-1.5966,-1.62,-1.6416,-1.691,-1.7158,-1.7294,-1.7915,-1.8258,-1.8531,-1.9332,-1.9821,-1.9832,-1.998,-1.9715,-1.9284,-1.8399,-1.7397,-1.6336,-1.4867,-1.3164,-1.1331,-0.9301,-0.8222,-0.7747,-0.6803,-0.6617,-0.6732,-0.7147,-0.7182,-0.6852,-0.7076,-0.7041,-0.6894,-0.7203,-0.7502,-0.769,-0.8681,-0.9479,-1.0104,-1.1512,-1.2641,-1.3294,-1.4913,-1.6362,-1.7255,-1.8175,-1.898,-1.9666,-2.0174,-2.0985,-2.176,-2.2584,-2.3739,-2.4966,-2.5541,-2.5913,-2.6522,-2.6725,-2.7096,-2.7786,-2.7577,-2.7487,-2.8063,-2.873,-2.9569,-3.0119,-3.0742,-3.1164,-3.1531,-3.1953,-3.2284,-3.2412,-3.2878,-3.3489,-3.363,-3.3883,-3.436,-3.451,-3.4553,-3.4614,-3.4614,-3.4553,-3.4551,-3.4623,-3.4854,-3.5408,-3.585,-3.6646,-3.7741,-3.9045,-3.925,-3.9735,-4.0217,-4.0732,-4.1857,-4.2898,-4.383,-4.4731,-4.5362,-4.581,-4.5791,-1.2066,-1.2544,-1.2787,-1.302,-1.322,-1.3403,-1.373,-1.4127,-1.4347,-1.4783,-1.5299,-1.5403,-1.5551,-1.5812,-1.6285,-1.6517,-1.6607,-1.7199,-1.7486,-1.7692,-1.8603,-1.9178,-1.9522,-2.0113,-2.0569,-2.0994,-2.131,-2.1364,-2.1071,-2.036,-1.9497,-1.854,-1.7224,-1.5525,-1.3486,-1.1722,-1.0158,-0.9268,-0.8262,-0.7946,-0.8035,-0.8514,-0.859,-0.8336,-0.8563,-0.8519,-0.8331,-0.8784,-0.9056,-0.9073,-0.9681,-1.0435,-1.1168,-1.2451,-1.3431,-1.3999,-1.5774,-1.7088,-1.7696,-1.8616,-1.9339,-1.9675,-2.0243,-2.0842,-2.17,-2.272,-2.39,-2.4996,-2.5697,-2.6251,-2.6623,-2.6962,-2.7555,-2.8276,-2.8499,-2.8657,-2.9119,-2.9917,-3.0571,-3.1132,-3.1604,-3.2063,-3.232,-3.2816,-3.3018,-3.3191,-3.3522,-3.387,-3.4096,-3.4383,-3.4615,-3.4774,-3.4925,-3.5016,-3.5243,-3.5283,-3.5664,-3.5722,-3.6369,-3.6882,-3.7371,-3.809,-3.885,-3.9667,-3.9884,-4.0176,-4.0558,-4.111,-4.2107,-4.3097,-4.4064,-4.485,-4.546,-4.5878,-4.588,-1.2029,-1.2532,-1.2516,-1.2749,-1.3216,-1.3689,-1.4092,-1.453,-1.4847,-1.5285,-1.5683,-1.5785,-1.5827,-1.587,-1.6474,-1.6799,-1.6892,-1.7645,-1.8065,-1.8572,-1.9398,-2.0187,-2.0836,-2.1045,-2.1573,-2.2149,-2.2793,-2.2829,-2.2476,-2.2028,-2.1473,-2.0405,-1.9299,-1.7599,-1.5463,-1.3765,-1.2141,-1.087,-1.04,-1.0012,-0.9767,-1.0083,-1.0252,-1.0013,-0.9807,-1.0046,-1.0215,-1.0575,-1.0714,-1.0573,-1.0971,-1.1613,-1.2563,-1.3656,-1.4444,-1.5171,-1.6415,-1.7466,-1.8149,-1.9014,-1.9603,-1.9726,-1.9873,-2.0375,-2.1659,-2.2868,-2.4045,-2.5245,-2.605,-2.6607,-2.703,-2.7538,-2.8356,-2.9062,-2.9832,-3.0547,-3.1083,-3.1389,-3.1825,-3.2504,-3.2614,-3.3109,-3.3513,-3.3815,-3.3831,-3.3647,-3.4024,-3.4278,-3.4492,-3.4696,-3.4925,-3.5086,-3.5254,-3.5446,-3.5734,-3.6061,-3.6588,-3.7034,-3.7923,-3.8506,-3.8728,-3.9261,-3.9757,-4.0196,-4.029,-4.0438,-4.0696,-4.1426,-4.2218,-4.2962,-4.3672,-4.4605,-4.547,-4.5742,-4.5852,-1.1689,-1.2496,-1.2504,-1.2795,-1.3251,-1.3689,-1.4114,-1.4513,-1.493,-1.5389,-1.5741,-1.5814,-1.5955,-1.6219,-1.6607,-1.6926,-1.7281,-1.8178,-1.9167,-2.0244,-2.0453,-2.1414,-2.2133,-2.2248,-2.2274,-2.2664,-2.2882,-2.3043,-2.292,-2.2578,-2.19,-2.1265,-2.0013,-1.8673,-1.7148,-1.5649,-1.4286,-1.3056,-1.2424,-1.195,-1.1622,-1.1829,-1.1943,-1.1571,-1.111,-1.1267,-1.1757,-1.1704,-1.206,-1.2754,-1.2733,-1.2893,-1.3766,-1.4523,-1.5281,-1.6086,-1.6844,-1.7757,-1.8559,-1.9035,-1.9332,-1.9873,-2.0584,-2.147,-2.2678,-2.3738,-2.4924,-2.5983,-2.659,-2.6911,-2.7469,-2.8528,-2.9485,-3.0381,-3.1189,-3.2004,-3.2776,-3.2635,-3.2496,-3.2706,-3.3172,-3.3587,-3.3778,-3.4018,-3.4074,-3.4147,-3.4379,-3.4655,-3.4832,-3.4999,-3.5155,-3.532,-3.5383,-3.5526,-3.5776,-3.6392,-3.743,-3.8104,-3.9046,-3.9604,-3.9842,-3.9991,-4.0307,-4.0476,-4.0595,-4.0754,-4.085,-4.1011,-4.1636,-4.2449,-4.3333,-4.4258,-4.5032,-4.5418,-4.5746,-1.1308,-1.1813,-1.2046,-1.2448,-1.2979,-1.3794,-1.4309,-1.4602,-1.5199,-1.5551,-1.577,-1.5814,-1.5983,-1.6328,-1.6659,-1.6993,-1.7533,-1.8591,-1.9968,-2.1171,-2.1643,-2.244,-2.3452,-2.3558,-2.3536,-2.365,-2.4004,-2.413,-2.3975,-2.3386,-2.2787,-2.1982,-2.0482,-1.9444,-1.8716,-1.7531,-1.6575,-1.5814,-1.5033,-1.4437,-1.4054,-1.4177,-1.4228,-1.3964,-1.3606,-1.3671,-1.3878,-1.3973,-1.4359,-1.4834,-1.4903,-1.4771,-1.5217,-1.5953,-1.6697,-1.7152,-1.772,-1.8352,-1.9066,-1.9597,-2.0087,-2.0756,-2.1466,-2.2425,-2.3442,-2.4468,-2.5291,-2.6133,-2.6589,-2.6996,-2.7774,-2.9283,-3.045,-3.126,-3.2158,-3.2925,-3.3524,-3.3421,-3.3164,-3.3246,-3.3652,-3.3876,-3.4049,-3.4265,-3.4379,-3.4464,-3.4676,-3.4925,-3.4999,-3.5155,-3.5304,-3.5412,-3.546,-3.5584,-3.5782,-3.6661,-3.8161,-3.8988,-3.9854,-4.0215,-4.0364,-4.0506,-4.0623,-4.0717,-4.0773,-4.085,-4.0964,-4.1063,-4.1442,-4.263,-4.3573,-4.4119,-4.4701,-4.5382,-4.5545,-1.0895,-1.1169,-1.1638,-1.2164,-1.2839,-1.399,-1.453,-1.4732,-1.5461,-1.577,-1.5842,-1.5856,-1.6123,-1.6394,-1.6763,-1.7141,-1.8091,-1.9195,-2.0845,-2.2264,-2.2617,-2.3285,-2.4096,-2.4432,-2.4559,-2.4828,-2.5023,-2.5255,-2.5082,-2.4662,-2.3848,-2.2868,-2.1321,-2.0563,-2.0178,-1.9553,-1.8833,-1.8332,-1.793,-1.7397,-1.694,-1.6895,-1.679,-1.6611,-1.6417,-1.6293,-1.6223,-1.6344,-1.6625,-1.6777,-1.7368,-1.7299,-1.7177,-1.7464,-1.8268,-1.8309,-1.88,-1.9353,-2.0027,-2.0587,-2.1283,-2.2139,-2.2548,-2.3149,-2.4148,-2.4882,-2.5539,-2.6162,-2.6772,-2.7571,-2.8198,-2.9938,-3.1042,-3.17,-3.2624,-3.3375,-3.3743,-3.3868,-3.3802,-3.3828,-3.3951,-3.4086,-3.4334,-3.4551,-3.4674,-3.4812,-3.4999,-3.5155,-3.5223,-3.527,-3.5398,-3.5474,-3.5474,-3.6219,-3.6546,-3.7219,-3.8681,-3.958,-4.0485,-4.0616,-4.0731,-4.0791,-4.0808,-4.0848,-4.0908,-4.0968,-4.0976,-4.1008,-4.1704,-4.2948,-4.3494,-4.3761,-4.4453,-4.5337,-4.5323,-1.0514,-1.1664,-1.1752,-1.2506,-1.3647,-1.4269,-1.4681,-1.5067,-1.5564,-1.5799,-1.5856,-1.6095,-1.6382,-1.6738,-1.706,-1.8198,-1.9578,-2.0639,-2.1864,-2.3109,-2.3425,-2.387,-2.4247,-2.4639,-2.4804,-2.4921,-2.5184,-2.5389,-2.5456,-2.5363,-2.4602,-2.3944,-2.3082,-2.2449,-2.1961,-2.1751,-2.1186,-2.0679,-2.048,-2.0179,-1.9657,-1.9311,-1.9056,-1.8804,-1.8467,-1.8355,-1.8524,-1.8309,-1.8238,-1.8489,-1.9435,-1.9315,-1.8768,-1.8436,-1.8796,-1.9316,-1.9699,-2.0226,-2.109,-2.1744,-2.213,-2.2551,-2.3333,-2.4116,-2.4882,-2.5502,-2.616,-2.6856,-2.7855,-2.8856,-2.9651,-3.1046,-3.2015,-3.2521,-3.3033,-3.3778,-3.4018,-3.4099,-3.4147,-3.4218,-3.4246,-3.4338,-3.4595,-3.4832,-3.4963,-3.507,-3.5207,-3.532,-3.5369,-3.5398,-3.546,-3.5474,-3.5488,-3.6507,-3.7469,-3.8238,-3.9253,-3.998,-4.065,-4.0723,-4.0838,-4.092,-4.0973,-4.0965,-4.0957,-4.0972,-4.0984,-4.0978,-4.1296,-4.2047,-4.2646,-4.3222,-4.396,-4.4672,-4.5008,-1.0244,-1.1383,-1.1913,-1.2651,-1.3553,-1.445,-1.4906,-1.5154,-1.5593,-1.5913,-1.6067,-1.6246,-1.6607,-1.7027,-1.7382,-1.8717,-2.0411,-2.1242,-2.2346,-2.3443,-2.3858,-2.4096,-2.4357,-2.467,-2.4809,-2.4962,-2.519,-2.536,-2.5322,-2.4967,-2.4774,-2.4275,-2.3652,-2.3217,-2.3158,-2.2987,-2.2962,-2.2659,-2.2661,-2.24,-2.1824,-2.1345,-2.097,-2.0685,-2.0416,-2.0304,-2.0191,-2.0219,-1.9937,-2.0016,-2.0756,-2.0925,-2.066,-2.0445,-2.0298,-2.0445,-2.0656,-2.1134,-2.197,-2.2578,-2.3099,-2.3715,-2.4547,-2.5313,-2.5912,-2.6535,-2.714,-2.794,-2.8757,-2.9763,-3.0345,-3.1724,-3.2479,-3.2921,-3.3447,-3.3865,-3.4123,-3.4218,-3.4383,-3.4555,-3.4696,-3.4794,-3.487,-3.5088,-3.5239,-3.5369,-3.5412,-3.546,-3.5488,-3.5507,-3.5507,-3.5641,-3.5757,-3.6661,-3.7719,-3.8527,-3.9542,-4.0346,-4.0756,-4.0847,-4.0924,-4.099,-4.1018,-4.1004,-4.1003,-4.0955,-4.094,-4.0921,-4.1054,-4.1216,-4.1931,-4.2667,-4.3369,-4.3958,-4.4319,-1.0244,-1.1223,-1.2154,-1.2857,-1.3516,-1.4592,-1.5154,-1.5329,-1.5737,-1.6039,-1.6301,-1.6474,-1.6825,-1.7329,-1.8008,-1.9143,-2.0975,-2.1432,-2.2522,-2.3624,-2.4115,-2.4357,-2.4512,-2.47,-2.4842,-2.493,-2.5061,-2.5262,-2.5245,-2.4879,-2.4568,-2.4475,-2.3829,-2.3729,-2.415,-2.4122,-2.4281,-2.4304,-2.4299,-2.3914,-2.3412,-2.2918,-2.2503,-2.2306,-2.2272,-2.2029,-2.1708,-2.2018,-2.1849,-2.1861,-2.2279,-2.2802,-2.2586,-2.2865,-2.2555,-2.1698,-2.1777,-2.2122,-2.2809,-2.3397,-2.4147,-2.4857,-2.5702,-2.6315,-2.6925,-2.7552,-2.8313,-2.9127,-2.9802,-3.0407,-3.0993,-3.1962,-3.2751,-3.3201,-3.3634,-3.4012,-3.4334,-3.4553,-3.4755,-3.4944,-3.5122,-3.519,-3.5207,-3.5239,-3.5383,-3.5398,-3.546,-3.546,-3.5507,-3.5507,-3.5565,-3.5795,-3.6161,-3.6892,-3.7719,-3.8464,-3.9523,-4.0596,-4.0842,-4.0923,-4.0999,-4.107,-4.1025,-4.0965,-4.0912,-4.0854,-4.0848,-4.0831,-4.0889,-4.1101,-4.1546,-4.1982,-4.2508,-4.318,-4.3748,-1.0723,-1.1799,-1.2681,-1.3524,-1.4351,-1.4923,-1.5374,-1.5739,-1.6077,-1.6246,-1.6421,-1.6885,-1.7199,-1.7592,-1.8551,-1.9879,-2.1103,-2.1944,-2.2806,-2.384,-2.4265,-2.4461,-2.4545,-2.4697,-2.4804,-2.4869,-2.4888,-2.5043,-2.5163,-2.5138,-2.5188,-2.5108,-2.5093,-2.5254,-2.5058,-2.5039,-2.5262,-2.5108,-2.505,-2.4758,-2.4313,-2.405,-2.3805,-2.3613,-2.3495,-2.3446,-2.3312,-2.3708,-2.383,-2.3665,-2.4735,-2.4802,-2.4081,-2.4806,-2.4684,-2.3872,-2.3226,-2.3005,-2.3965,-2.4555,-2.504,-2.5661,-2.6332,-2.6944,-2.7774,-2.8488,-2.9236,-2.9888,-3.0465,-3.1046,-3.1741,-3.2556,-3.3171,-3.3579,-3.3963,-3.4405,-3.4774,-3.4774,-3.4999,-3.5171,-3.532,-3.5383,-3.5398,-3.5446,-3.5474,-3.5507,-3.5507,-3.5507,-3.5584,-3.5641,-3.5815,-3.6103,-3.6699,-3.7445,-3.8105,-3.8786,-3.9576,-4.0737,-4.0865,-4.0948,-4.0994,-4.1023,-4.0947,-4.0878,-4.0824,-4.0754,-4.0735,-4.0716,-4.0716,-4.0889,-4.12,-4.1334,-4.1456,-4.2215,-4.3121,-1.1877,-1.2613,-1.3462,-1.4227,-1.4887,-1.5521,-1.589,-1.6114,-1.6432,-1.6696,-1.686,-1.7134,-1.7545,-1.807,-1.8717,-1.9606,-2.0862,-2.1771,-2.2667,-2.3712,-2.4221,-2.4561,-2.467,-2.476,-2.4804,-2.479,-2.4804,-2.4861,-2.5012,-2.5118,-2.5192,-2.538,-2.5415,-2.5421,-2.5523,-2.5586,-2.5527,-2.5414,-2.5331,-2.5129,-2.4881,-2.4727,-2.4595,-2.4393,-2.4377,-2.4569,-2.4892,-2.4949,-2.5366,-2.5433,-2.6375,-2.6384,-2.5928,-2.6155,-2.6135,-2.559,-2.4883,-2.4646,-2.4839,-2.5357,-2.5726,-2.6145,-2.6837,-2.7857,-2.8842,-2.9602,-3.0225,-3.1016,-3.1481,-3.2013,-3.2577,-3.3158,-3.3676,-3.4073,-3.4342,-3.4637,-3.4999,-3.5053,-3.5138,-3.5335,-3.5507,-3.5507,-3.5507,-3.5507,-3.5507,-3.5507,-3.5507,-3.5507,-3.5738,-3.6045,-3.6257,-3.6526,-3.7238,-3.8041,-3.8685,-3.9328,-3.9816,-4.0657,-4.083,-4.0897,-4.0954,-4.0957,-4.0855,-4.081,-4.0742,-4.0696,-4.0639,-4.06,-4.06,-4.0681,-4.0796,-4.088,-4.0974,-4.1647,-4.2495,-1.3026,-1.3511,-1.4241,-1.4836,-1.5284,-1.5985,-1.636,-1.6465,-1.6793,-1.7052,-1.728,-1.7486,-1.7963,-1.8489,-1.8785,-1.9561,-2.0906,-2.151,-2.2476,-2.341,-2.4122,-2.4556,-2.4639,-2.4716,-2.4716,-2.4716,-2.4607,-2.47,-2.4757,-2.479,-2.4896,-2.5271,-2.5303,-2.5401,-2.5496,-2.5566,-2.5586,-2.5602,-2.5499,-2.5337,-2.5197,-2.5133,-2.522,-2.5247,-2.534,-2.5644,-2.6261,-2.651,-2.6808,-2.7065,-2.7611,-2.7771,-2.758,-2.7478,-2.7338,-2.6895,-2.6401,-2.6168,-2.6007,-2.6038,-2.6104,-2.6528,-2.7391,-2.8674,-2.9926,-3.0679,-3.1237,-3.1846,-3.2438,-3.2967,-3.3451,-3.3692,-3.419,-3.4534,-3.4793,-3.4981,-3.5141,-3.5283,-3.5331,-3.5383,-3.5507,-3.5507,-3.5507,-3.5507,-3.5507,-3.5507,-3.5507,-3.5526,-3.5892,-3.6353,-3.6815,-3.7123,-3.7656,-3.8575,-3.9513,-4.0055,-4.0452,-4.0591,-4.0759,-4.0832,-4.0868,-4.0831,-4.0742,-4.0693,-4.0627,-4.062,-4.0546,-4.0508,-4.0489,-4.0569,-4.0581,-4.0444,-4.0634,-4.1229,-4.1921,-1.3985,-1.4424,-1.4885,-1.5284,-1.5635,-1.6092,-1.6511,-1.679,-1.7109,-1.728,-1.7399,-1.7849,-1.8229,-1.8566,-1.8932,-1.9847,-2.1619,-2.1766,-2.2682,-2.3656,-2.4373,-2.4512,-2.4559,-2.4578,-2.4545,-2.4495,-2.4444,-2.4543,-2.4655,-2.4544,-2.4695,-2.4979,-2.5214,-2.5313,-2.5434,-2.5547,-2.5605,-2.5644,-2.5586,-2.5601,-2.5565,-2.564,-2.585,-2.6399,-2.6589,-2.6897,-2.755,-2.7975,-2.8331,-2.8401,-2.8872,-2.9045,-2.8773,-2.864,-2.8336,-2.7968,-2.772,-2.7531,-2.7426,-2.6893,-2.645,-2.6993,-2.8081,-2.9466,-3.0626,-3.1391,-3.1952,-3.2497,-3.3069,-3.3506,-3.3864,-3.4149,-3.4656,-3.4925,-3.5126,-3.5362,-3.5515,-3.5618,-3.5624,-3.5532,-3.5699,-3.6026,-3.6103,-3.6238,-3.5968,-3.5949,-3.5892,-3.593,-3.6238,-3.6699,-3.7368,-3.781,-3.8157,-3.9056,-4.038,-4.0761,-4.0613,-4.0667,-4.0852,-4.0798,-4.0752,-4.0681,-4.054,-4.0485,-4.0394,-4.0441,-4.0438,-4.03,-4.0248,-4.0353,-4.0344,-4.0188,-4.0137,-4.0483,-4.1245,-1.421,-1.4921,-1.5565,-1.5917,-1.6087,-1.6667,-1.6995,-1.7166,-1.7462,-1.7612,-1.7618,-1.7866,-1.8187,-1.8528,-1.8751,-1.9542,-2.0963,-2.162,-2.2589,-2.3486,-2.4126,-2.4439,-2.4512,-2.4461,-2.4462,-2.4357,-2.4339,-2.4409,-2.4554,-2.4535,-2.474,-2.4996,-2.5214,-2.5312,-2.5422,-2.552,-2.5605,-2.5664,-2.5723,-2.5801,-2.6321,-2.6362,-2.667,-2.7415,-2.7492,-2.7865,-2.8469,-2.8806,-2.9213,-2.9555,-2.9802,-2.9731,-2.9616,-2.9439,-2.9148,-2.8795,-2.8603,-2.8626,-2.873,-2.8285,-2.8293,-2.9059,-2.9799,-3.042,-3.1324,-3.214,-3.2751,-3.3234,-3.365,-3.4024,-3.4559,-3.4775,-3.5016,-3.5239,-3.5484,-3.5724,-3.595,-3.6089,-3.643,-3.6526,-3.6853,-3.7219,-3.7199,-3.7161,-3.6757,-3.6411,-3.6353,-3.6392,-3.6776,-3.7233,-3.7926,-3.8633,-3.9026,-3.9475,-4.0738,-4.0776,-4.061,-4.074,-4.0908,-4.0793,-4.0662,-4.0363,-4.0252,-4.0213,-4.012,-4.0043,-4.0004,-3.9945,-4.0004,-4.012,-4.0078,-3.9932,-3.9881,-3.9841,-4.0529,-1.4428,-1.5193,-1.6053,-1.644,-1.6548,-1.7065,-1.7355,-1.7469,-1.7698,-1.7789,-1.7794,-1.7883,-1.8103,-1.8485,-1.9018,-1.9704,-2.0914,-2.1806,-2.2717,-2.3507,-2.4152,-2.4391,-2.441,-2.4393,-2.4339,-2.4284,-2.4393,-2.4528,-2.462,-2.4758,-2.4934,-2.5091,-2.5224,-2.5322,-2.5367,-2.549,-2.5666,-2.5918,-2.6055,-2.6426,-2.7148,-2.7301,-2.76,-2.8288,-2.8403,-2.8782,-2.9297,-2.9617,-2.9783,-3.0061,-3.0222,-3.0136,-3.0032,-2.9889,-2.9653,-2.9458,-2.9405,-2.9485,-2.9624,-2.9661,-2.9902,-3.0499,-3.0712,-3.1322,-3.2119,-3.284,-3.3189,-3.3729,-3.4115,-3.4553,-3.507,-3.5138,-3.5223,-3.5417,-3.5893,-3.619,-3.6536,-3.6776,-3.7238,-3.7603,-3.7815,-3.7834,-3.7969,-3.7892,-3.7757,-3.7373,-3.7161,-3.7257,-3.7579,-3.806,-3.8686,-3.9367,-3.9993,-4.0466,-4.0978,-4.0814,-4.0688,-4.0672,-4.0793,-4.0716,-4.0537,-4.0252,-4.0101,-4.012,-3.9983,-3.9709,-3.9622,-3.9626,-3.9735,-3.9882,-3.9735,-3.9546,-3.9388,-3.9356,-3.9841,-1.4721,-1.5208,-1.6306,-1.6763,-1.6786,-1.7179,-1.7479,-1.7726,-1.7789,-1.7789,-1.7833,-1.8018,-1.8146,-1.8487,-1.93,-2.028,-2.1261,-2.2319,-2.3254,-2.3915,-2.4155,-2.4209,-2.4228,-2.4247,-2.4266,-2.4266,-2.4445,-2.4639,-2.4756,-2.4892,-2.5061,-2.5194,-2.5274,-2.5313,-2.5313,-2.537,-2.5919,-2.6699,-2.6777,-2.7383,-2.7988,-2.8242,-2.8641,-2.9132,-2.9301,-2.9663,-2.9987,-3.014,-3.0237,-3.0309,-3.0367,-3.0311,-3.0299,-3.0122,-2.9965,-2.992,-3.0302,-3.0514,-3.0631,-3.0432,-3.0945,-3.1462,-3.1647,-3.1991,-3.2804,-3.3273,-3.3533,-3.4067,-3.4445,-3.4774,-3.5088,-3.5304,-3.5412,-3.5782,-3.6243,-3.6834,-3.7199,-3.7623,-3.8123,-3.8642,-3.8334,-3.8123,-3.8392,-3.8584,-3.8642,-3.843,-3.8084,-3.8161,-3.8503,-3.8753,-3.9301,-3.9871,-4.0506,-4.0664,-4.0941,-4.0855,-4.0771,-4.0731,-4.0662,-4.0588,-4.0413,-4.0139,-4.0042,-4.0042,-3.9728,-3.9327,-3.9327,-3.9358,-3.9402,-3.9427,-3.9282,-3.911,-3.8936,-3.894,-3.9368,-1.4907,-1.5595,-1.6214,-1.658,-1.6879,-1.7406,-1.7698,-1.7789,-1.7789,-1.7789,-1.7811,-1.7922,-1.8057,-1.8475,-1.9199,-2.0263,-2.1403,-2.2236,-2.3151,-2.4116,-2.419,-2.419,-2.419,-2.419,-2.4209,-2.4303,-2.4495,-2.4719,-2.4804,-2.4998,-2.5154,-2.5284,-2.538,-2.5313,-2.5495,-2.5793,-2.6511,-2.6857,-2.7383,-2.8164,-2.8965,-2.916,-2.9469,-3.0129,-3.0104,-3.0206,-3.0417,-3.0398,-3.0398,-3.0398,-3.0398,-3.0398,-3.0398,-3.0254,-3.0273,-3.04,-3.0782,-3.156,-3.2297,-3.2776,-3.2959,-3.2809,-3.2637,-3.2787,-3.3196,-3.3476,-3.3899,-3.4338,-3.4614,-3.4944,-3.5289,-3.5398,-3.5608,-3.6224,-3.6815,-3.7565,-3.8084,-3.8565,-3.9065,-3.9623,-3.9662,-3.9508,-3.9623,-3.9488,-3.9469,-3.9465,-3.9176,-3.9373,-3.9715,-3.9515,-3.9731,-4.0255,-4.075,-4.083,-4.0874,-4.0788,-4.0723,-4.0689,-4.0572,-4.0463,-4.025,-4.0043,-3.9778,-3.9645,-3.9301,-3.898,-3.9036,-3.9017,-3.8942,-3.8902,-3.8894,-3.8894,-3.881,-3.8744,-3.8872,-1.521,-1.5985,-1.6211,-1.6484,-1.6839,-1.7371,-1.7692,-1.7766,-1.7789,-1.7789,-1.7789,-1.7811,-1.7883,-1.8263,-1.8988,-1.9977,-2.1269,-2.2159,-2.3131,-2.4079,-2.419,-2.419,-2.419,-2.4209,-2.4247,-2.4357,-2.4591,-2.4818,-2.4896,-2.516,-2.5274,-2.5341,-2.5591,-2.5822,-2.5995,-2.6351,-2.6832,-2.7323,-2.8125,-2.9023,-2.9668,-3.0019,-3.0195,-3.0464,-3.0549,-3.0544,-3.0436,-3.0398,-3.0398,-3.0398,-3.0398,-3.0398,-3.0398,-3.0398,-3.0544,-3.088,-3.1776,-3.2661,-3.3658,-3.4127,-3.4041,-3.3751,-3.3732,-3.3705,-3.375,-3.4,-3.4334,-3.4655,-3.4793,-3.507,-3.5383,-3.5493,-3.5911,-3.6507,-3.7315,-3.8046,-3.8796,-3.9277,-3.97,-4.0296,-4.0469,-4.0508,-4.0562,-4.0523,-4.035,-4.0312,-4.0273,-4.0511,-4.0654,-4.0364,-4.0111,-4.0533,-4.0816,-4.0803,-4.0761,-4.068,-4.0641,-4.062,-4.0515,-4.0408,-4.0212,-4.0024,-3.9649,-3.9264,-3.9045,-3.8892,-3.8762,-3.8719,-3.878,-3.878,-3.8762,-3.8732,-3.8707,-3.8707,-3.8707,-1.558,-1.6234,-1.6281,-1.6466,-1.6815,-1.7175,-1.7491,-1.7766,-1.7789,-1.7789,-1.7789,-1.7789,-1.7833,-1.8014,-1.8901,-1.9956,-2.1028,-2.206,-2.3133,-2.393,-2.419,-2.419,-2.4209,-2.4247,-2.4339,-2.4512,-2.4697,-2.4891,-2.5018,-2.5452,-2.5534,-2.5678,-2.6313,-2.6563,-2.6717,-2.7024,-2.7437,-2.8124,-2.8937,-2.9739,-3.0332,-3.0644,-3.0636,-3.0691,-3.0615,-3.056,-3.0487,-3.0417,-3.0417,-3.0417,-3.0398,-3.0398,-3.0398,-3.0398,-3.0948,-3.1802,-3.3,-3.3815,-3.4491,-3.4813,-3.4794,-3.4615,-3.4636,-3.4675,-3.4572,-3.4486,-3.4675,-3.487,-3.5016,-3.5223,-3.5432,-3.5748,-3.6065,-3.6834,-3.7661,-3.8469,-3.9296,-3.9815,-4.02,-4.0489,-4.0508,-4.0562,-4.0635,-4.0673,-4.0681,-4.0652,-4.0587,-4.0664,-4.0799,-4.0797,-4.0603,-4.0624,-4.0803,-4.0709,-4.0658,-4.06,-4.0566,-4.0546,-4.0546,-4.0441,-4.0248,-4.0024,-3.9671,-3.9333,-3.897,-3.878,-3.8719,-3.8707,-3.8707,-3.8707,-3.8707,-3.8707,-3.8707,-3.8707,-3.8707,-1.5433,-1.5942,-1.5945,-1.6153,-1.6506,-1.704,-1.7355,-1.7455,-1.7681,-1.7789,-1.7789,-1.7789,-1.7789,-1.7879,-1.8688,-1.9821,-2.088,-2.1917,-2.3035,-2.3742,-2.419,-2.419,-2.4247,-2.4339,-2.4445,-2.4572,-2.4766,-2.4968,-2.5206,-2.5674,-2.6294,-2.6631,-2.7159,-2.7458,-2.7766,-2.8151,-2.8525,-2.8967,-2.9748,-3.024,-3.0607,-3.0816,-3.0781,-3.0703,-3.0664,-3.0616,-3.0537,-3.0471,-3.0471,-3.0487,-3.0429,-3.0398,-3.0398,-3.0456,-3.091,-3.2468,-3.353,-3.4395,-3.5078,-3.5254,-3.5223,-3.5207,-3.5223,-3.4999,-3.4851,-3.4812,-3.4908,-3.5053,-3.5174,-3.5304,-3.5624,-3.5955,-3.6507,-3.7334,-3.818,-3.9008,-3.9758,-4.0123,-4.0489,-4.0546,-4.0566,-4.0658,-4.0731,-4.0749,-4.0757,-4.0791,-4.082,-4.086,-4.0878,-4.0872,-4.0846,-4.0819,-4.0754,-4.0658,-4.06,-4.0527,-4.0508,-4.0489,-4.0489,-4.0441,-4.025,-4.0004,-3.9712,-3.9352,-3.8931,-3.878,-3.8707,-3.8707,-3.8707,-3.8707,-3.8707,-3.8707,-3.8707,-3.8707,-3.8707,-1.5463,-1.5955,-1.5856,-1.5902,-1.6179,-1.6664,-1.6959,-1.715,-1.7589,-1.7789,-1.7789,-1.7789,-1.7789,-1.7929,-1.8619,-1.9659,-2.1018,-2.1811,-2.2872,-2.3929,-2.419,-2.419,-2.4284,-2.441,-2.4545,-2.4682,-2.4845,-2.5041,-2.5378,-2.6058,-2.6736,-2.7381,-2.8005,-2.8343,-2.867,-2.9159,-2.964,-2.9929,-3.0275,-3.0583,-3.074,-3.082,-3.0781,-3.0723,-3.0703,-3.0657,-3.0612,-3.0557,-3.0549,-3.056,-3.0487,-3.0467,-3.0698,-3.1025,-3.1999,-3.3481,-3.4372,-3.4993,-3.5465,-3.5498,-3.5512,-3.5526,-3.5532,-3.5565,-3.5439,-3.5408,-3.5324,-3.5273,-3.5289,-3.5396,-3.5777,-3.6238,-3.7065,-3.7892,-3.8738,-3.9585,-4.0027,-4.0392,-4.0527,-4.06,-4.0677,-4.0754,-4.0791,-4.0813,-4.0828,-4.0851,-4.0838,-4.0792,-4.0813,-4.0789,-4.0784,-4.0761,-4.0677,-4.0566,-4.0527,-4.0489,-4.0489,-4.0489,-4.0489,-4.0406,-4.0232,-3.9903,-3.9552,-3.9189,-3.8833,-3.875,-3.8707,-3.8707,-3.8707,-3.8707,-3.8707,-3.8707,-3.8707,-3.8707,-3.8707,-1.5521,-1.6148,-1.5942,-1.5842,-1.5883,-1.6211,-1.6533,-1.6866,-1.7472,-1.7749,-1.7743,-1.7749,-1.7704,-1.7822,-1.8397,-1.9447,-2.0582,-2.1515,-2.2563,-2.4079,-2.419,-2.4209,-2.4321,-2.4445,-2.4654,-2.4795,-2.5006,-2.5256,-2.5638,-2.6409,-2.7332,-2.8005,-2.8832,-2.9275,-2.9498,-2.9967,-3.0333,-3.0487,-3.0598,-3.0736,-3.0765,-3.082,-3.084,-3.0742,-3.0723,-3.069,-3.0649,-3.064,-3.0644,-3.0685,-3.0609,-3.0593,-3.1191,-3.2023,-3.3277,-3.4234,-3.5029,-3.5403,-3.5616,-3.5635,-3.5599,-3.5611,-3.5628,-3.5965,-3.604,-3.5645,-3.5445,-3.5614,-3.5671,-3.5724,-3.5998,-3.6719,-3.7526,-3.8354,-3.92,-3.9873,-4.0315,-4.0577,-4.0656,-4.0699,-4.0781,-4.0858,-4.0835,-4.0834,-4.0827,-4.0885,-4.0853,-4.0775,-4.0709,-4.0708,-4.0693,-4.0677,-4.062,-4.0527,-4.0508,-4.0489,-4.0489,-4.0489,-4.0489,-4.0406,-4.025,-3.984,-3.9377,-3.91,-3.8844,-3.875,-3.8707,-3.8707,-3.8707,-3.8707,-3.8707,-3.8707,-3.8707,-3.8707,-3.8707,-1.5225,-1.5433,-1.5668,-1.5926,-1.6151,-1.6258,-1.6487,-1.6815,-1.7224,-1.7408,-1.7415,-1.7432,-1.7455,-1.7609,-1.803,-1.9006,-2.0162,-2.1267,-2.2098,-2.3285,-2.395,-2.4303,-2.4405,-2.4588,-2.4766,-2.4956,-2.5195,-2.5589,-2.6322,-2.714,-2.8005,-2.889,-2.966,-3.0063,-3.0179,-3.0602,-3.0691,-3.0809,-3.081,-3.0799,-3.0818,-3.084,-3.0859,-3.084,-3.084,-3.084,-3.0801,-3.0762,-3.1133,-3.1443,-3.0865,-3.0991,-3.1553,-3.2628,-3.3565,-3.4455,-3.5313,-3.5635,-3.5732,-3.5715,-3.5689,-3.59,-3.6073,-3.643,-3.6416,-3.5839,-3.5685,-3.5974,-3.6108,-3.6128,-3.6449,-3.7238,-3.7988,-3.8834,-3.9638,-4.0138,-4.062,-4.0694,-4.0731,-4.0814,-4.0896,-4.0896,-4.0876,-4.0854,-4.0856,-4.0839,-4.0781,-4.0708,-4.0611,-4.0562,-4.0581,-4.0566,-4.0546,-4.0508,-4.0489,-4.0489,-4.0489,-4.0473,-4.0457,-4.0356,-4.0213,-3.9712,-3.9205,-3.9082,-3.8913,-3.8773,-3.8707,-3.8707,-3.8707,-3.8707,-3.8707,-3.8707,-3.8707,-3.8707,-3.8707,-1.4783,-1.5134,-1.561,-1.5898,-1.6055,-1.6091,-1.6261,-1.6573,-1.6795,-1.6935,-1.7126,-1.7361,-1.7526,-1.7642,-1.8047,-1.8961,-2.021,-2.1171,-2.2443,-2.3449,-2.3878,-2.4264,-2.4508,-2.4693,-2.4831,-2.5018,-2.5269,-2.5822,-2.7005,-2.7621,-2.8371,-2.9563,-3.0333,-3.0568,-3.0683,-3.0722,-3.0772,-3.0886,-3.0859,-3.0828,-3.0825,-3.084,-3.0898,-3.0918,-3.0898,-3.0918,-3.1055,-3.1055,-3.1367,-3.1636,-3.1253,-3.2179,-3.2876,-3.3666,-3.4302,-3.4998,-3.5588,-3.582,-3.582,-3.5801,-3.5781,-3.6035,-3.644,-3.6812,-3.7397,-3.6954,-3.693,-3.7103,-3.6526,-3.6469,-3.7348,-3.8157,-3.8657,-3.9364,-4.001,-4.0545,-4.0747,-4.0816,-4.0861,-4.0921,-4.0945,-4.0945,-4.0898,-4.0807,-4.0795,-4.0757,-4.0696,-4.0639,-4.0527,-4.0489,-4.0489,-4.0489,-4.0489,-4.0489,-4.0489,-4.0489,-4.0489,-4.0473,-4.0441,-4.0062,-3.9757,-3.9414,-3.9072,-3.8933,-3.8815,-3.8762,-3.8707,-3.8634,-3.8689,-3.8707,-3.8707,-3.8707,-3.8707,-3.8707,-3.8707,-1.4501,-1.5225,-1.5639,-1.5814,-1.5814,-1.5814,-1.5975,-1.6224,-1.6366,-1.6554,-1.6917,-1.7502,-1.7749,-1.8031,-1.8489,-1.9699,-2.0688,-2.1345,-2.265,-2.3596,-2.406,-2.4373,-2.4556,-2.4727,-2.4891,-2.5168,-2.5474,-2.6514,-2.7717,-2.8179,-2.8929,-3.0198,-3.0532,-3.0584,-3.0664,-3.0733,-3.0792,-3.0821,-3.0798,-3.0714,-3.0748,-3.0781,-3.084,-3.0859,-3.0879,-3.0937,-3.125,-3.1523,-3.1641,-3.209,-3.2305,-3.3125,-3.3809,-3.4389,-3.4983,-3.5566,-3.584,-3.5957,-3.5976,-3.5918,-3.5996,-3.623,-3.6719,-3.734,-3.797,-3.8234,-3.8195,-3.8027,-3.745,-3.7373,-3.8253,-3.8838,-3.9301,-3.9797,-4.0384,-4.0822,-4.0862,-4.0907,-4.0956,-4.0974,-4.0974,-4.0965,-4.0887,-4.0789,-4.0716,-4.0677,-4.062,-4.0546,-4.0489,-4.0489,-4.0489,-4.0489,-4.0489,-4.0489,-4.0489,-4.0489,-4.0489,-4.0422,-4.0302,-3.9781,-3.9333,-3.909,-3.8923,-3.8803,-3.8707,-3.8707,-3.8579,-3.845,-3.8542,-3.8615,-3.8358,-3.8303,-3.8707,-3.8707,-3.8707,-1.4876,-1.5668,-1.5785,-1.5814,-1.5814,-1.5814,-1.5829,-1.5987,-1.6506,-1.6763,-1.6968,-1.7455,-1.7777,-1.7766,-1.8126,-1.9195,-2.0635,-2.1393,-2.2197,-2.3103,-2.397,-2.4407,-2.4666,-2.4842,-2.5019,-2.5398,-2.5966,-2.6937,-2.8044,-2.8621,-2.9352,-3.0429,-3.0543,-3.0613,-3.0713,-3.0742,-3.0784,-3.0776,-3.0713,-3.066,-3.0623,-3.0644,-3.0684,-3.0703,-3.0742,-3.125,-3.1738,-3.207,-3.291,-3.3633,-3.3984,-3.4297,-3.4609,-3.4883,-3.5312,-3.5742,-3.6016,-3.6016,-3.5996,-3.5976,-3.6074,-3.6816,-3.7422,-3.8245,-3.8782,-3.9229,-3.9331,-3.9677,-3.9176,-3.8638,-3.9157,-3.9398,-3.98,-4.0294,-4.0848,-4.0912,-4.097,-4.0974,-4.0981,-4.095,-4.0903,-4.0855,-4.0785,-4.0696,-4.0658,-4.06,-4.0546,-4.0489,-4.0489,-4.0489,-4.0489,-4.0489,-4.0489,-4.0489,-4.0489,-4.0489,-4.0489,-4.0406,-4.0212,-3.9694,-3.9301,-3.8942,-3.8762,-3.8719,-3.8707,-3.8707,-3.8542,-3.8432,-3.8303,-3.8303,-3.7881,-3.7826,-3.8322,-3.8597,-3.8524]}]]